     2              OBSERVATION DATA    GPS                 RINEX VERSION / TYPE
ASRINEXO V2.2.0 UX USGS 15-AUG-94 14:00                     PGM / RUN BY / DATE
                                                            COMMENT
Original Marker Name: LGO7                                  COMMENT
Campaign Name: USGS-So. Cal Monit                           COMMENT
4-Character Station Name: LGO7                              COMMENT
6-Character Antenna Code: ASHL12                            COMMENT
Vertical Measurement Point: BBE                             COMMENT
Vertical Offset to Rinex Ref. Point: 0.0595                 COMMENT
Radial Measurement Point: EGP                               COMMENT
Radial Offset to Rinex Ref. Point: 0.1424                   COMMENT
Antenna Height from Field Measurement: 1.2960 m             COMMENT
Additional Antenna Identification Info.:                    COMMENT
Original Ashtech L1/L2 (700228ABC)                          COMMENT
Original XYZ: -2666864.7600 -4267875.7600 3905567.1000      COMMENT
New XYZ position is based on association with SCEC monument COMMENT
E1E9P8X1+0011. Position of that monument is believed to be  COMMENT
valid to within 1 m horizontally; vertical accuracy         COMMENT
should be no worse than 3-times this value.                 COMMENT
                                                            COMMENT
Revised Rinex header created by UCSD GPS archive for        COMMENT
GSAC on 08-Jul-2000 (2000:190) 01:47:38 GMT                 COMMENT
For assistance contact dagnew@ucsd.edu                      COMMENT
or anderson@python.ucsd.edu                                 COMMENT
                                                            COMMENT
LGO 70 1977                                                 MARKER NAME
                                                            MARKER NUMBER
CHS US GEOLOGICAL SURVEY                                    OBSERVER / AGENCY
762 ASHTECH L-XII 6A                                        REC # / TYPE / VERS
718 ASHTECH GEODETIC L                                      ANT # / TYPE
 -2595719.6248 -4539654.5273  3642039.5864                  APPROX POSITION XYZ
        1.2287        0.0000        0.0000                  ANTENNA: DELTA H/E/N
     1     2     0                                          WAVELENGTH FACT L1/2
     3    C1    L1    L2                                    # / TYPES OF OBSERV
    30                                                      INTERVAL
  1991     5     8    18    57    0.000000                  TIME OF FIRST OBS
  1991     5     9     1    11    0.000000                  TIME OF LAST OBS
                                                            END OF HEADER
 91  5  8 18 57  0.0000000  0  2 19  2
  20530525.621        5211.178 7      4060.781 9
  23315219.815      -84265.119 5    -65661.479 4
 91  5  8 18 57 30.0000000  0  4 19 18 16  2
  20531609.070       10922.878 7      8511.449 9
  20450786.816       27360.790 9     21319.757 9
  24091013.743      -32191.128 5    -25083.700 3
  23298898.505     -170056.070 5   -132511.289 4
 91  5  8 18 58  0.0000000  0  4 19 18 16  2
  20832568.613       17029.891 7     13270.165 9
  20759865.648       76150.375 9     59337.539 9
  24380089.216      -88485.293 5    -68949.287 3
  23582440.723     -255432.792 6   -199038.835 3
 91  5  8 18 58 30.0000000  0  5 19 11 18 16  2
  20833807.648       23538.112 7     18341.502 9
  23777780.991      -40457.572 6    -31525.453 2
  20769274.038      125599.696 9     97869.399 9
  24369501.140     -144122.741 5   -112303.134 2
  23566272.905     -340393.526 5   -265241.765 5
 91  5  8 18 59  0.0000000  0  5 19 11 18 16  2
  20835120.148       30436.688 7     23717.002 9
  23767839.864      -92695.706 6    -72230.331 3
  20778809.238      175696.586 8    136905.855 9
  24359034.796     -199109.824 5   -155150.230 2
  23550180.052     -424944.873 6   -331125.687 4
 91  5  8 18 59 30.0000000  0  5 19 11 18 16  2
  20836503.096       37713.846 7     29387.511 9
  23758012.076     -144337.304 6   -112470.358 3
  20788462.245      226428.546 8    176437.185 9
  24348697.043     -253456.924 5   -197498.629 2
  23534168.727     -509097.196 6   -396698.686 4
 91  5  8 19  0  0.0000000  0  6 19  6 11 18 16  2
  20837955.285       45356.845 8     35343.087 9
  24884779.318     -134524.166 5   -104823.542 2
  23748297.888     -195391.824 6   -152252.915 3
  20798233.075      277782.748 8    216453.363 9
  24338472.035     -307174.867 5   -239356.792 3
  23518225.772     -592861.750 6   -461969.503 3
 91  5  8 19  0 30.0000000  0  6 19  6 11 18 16  2
  20839483.628       53362.154 7     41580.988 9
  24873041.848     -196191.795 4   -152876.069 2
  23738694.650     -245859.906 6   -191578.530 3
  20808125.342      329755.492 8    256951.523 9
  24328366.317     -360265.160 5   -280725.838 2
  23502364.047     -676240.301 6   -526940.058 3
 91  5  8 19  1  0.0000000  0  6 19  6 11 18 16  2
  20841070.428       61729.831 7     48101.255 9
  24861355.647     -257595.571 4   -200722.984 2
  23729202.621     -295738.620 5   -230444.926 4
  20818131.506      382346.532 8    297931.470 9
  24318385.630     -412725.383 5   -321603.948 3
  23486567.691     -759231.543 6   -591608.325 3
 91  5  8 19  1 30.0000000  0  6 19  6 11 18 16  2
  20842730.974       70443.524 8     54891.150 9
  24849720.993     -318752.146 4   -248377.275 2
  23719817.318     -345041.253 5   -268862.414 5
  20828254.308      435539.463 8    339380.444 9
  24308525.751     -464570.371 5   -362002.647 4
  23470841.171     -841850.160 6   -655986.219 4
 91  5  8 19  2  0.0000000  0  6 19  6 11 18 16  2
  20844453.886       79507.986 8     61954.361 9
  24838130.123     -379656.938 4   -295835.421 2
  23710549.228     -393759.731 5   -306824.717 4
  20838492.508      489338.788 8    381301.916 9
  24298781.009     -515793.530 6   -401916.784 3
  23455198.604     -924089.847 6   -720069.344 3
 91  5  8 19  2 30.0000000  0  6 19  6 11 18 16  2
  20846243.353       88915.188 8     69284.651 9
  24826582.720     -440317.980 4   -343103.574 2
  23701385.770     -441899.096 5   -344335.755 3
  20848845.251      543736.102 8    423689.353 9
  24289145.976     -566399.859 6   -441350.298 3
  23439616.886    -1005957.156 6   -783861.799 4
 91  5  8 19  3  0.0000000  0  6 19  6 11 18 16  2
  20848093.967       98655.750 8     76874.696 9
  24815085.976     -500744.991 5   -390189.347 1
  23692332.335     -489465.741 5   -381400.522 4
  20859307.703      598721.605 8    466535.113 9
  24279631.157     -616397.374 6   -480309.407 3
  23424109.523    -1087459.756 6   -847370.084 4
 91  5  8 19  3 30.0000000  0  6 19  6 11 18 16  2
  20850013.839      108728.538 8     84723.633 9
  24803628.512     -560939.280 4   -437093.775 2
  23683391.332     -536458.207 5   -418017.890 2
  20869883.478      654294.001 8    509838.206 9
  24270228.474     -665785.174 5   -518793.395 3
  23408666.325    -1168597.618 6   -910594.130 4
 91  5  8 19  4  0.0000000  0  6 19  6 11 18 16  2
  20851993.671      119129.601 8     92828.370 9
  24792217.797     -620905.188 4   -483820.273 2
  23674558.242     -582877.694 5   -454188.725 2
  20880567.792      710448.568 8    553594.932 9
  24260950.193     -714565.299 6   -556803.893 5
  23393299.855    -1249373.146 6   -973535.870 5
 91  5  8 19  4 30.0000000  0  6 19  6 11 18 16  2
  20854038.244      129879.418 8    101204.857 9
  24780856.274     -680622.935 4   -530353.335 3
  23665838.787     -628700.718 5   -489894.840 3
  20891371.396      767205.703 8    597821.176 9
  24251785.234     -762716.035 5   -594323.936 2
  23378002.052    -1329765.122 6  -1036178.739 3
 91  5  8 19  5  0.0000000  0  6 19  6 11 18 16  2
  20856150.889      140980.643 8    109855.165 9
  24769546.003     -740089.609 4   -576690.815 2
  23657232.932     -673921.449 5   -525131.594 2
  20902285.949      824567.743 8    642518.780 9
  24242745.899     -810232.736 5   -631349.936 3
  23362774.695    -1409768.839 6  -1098519.066 3
 91  5  8 19  5 30.0000000  0  6 19  6 11 18 16  2
  20858327.978      152418.467 8    118767.762 9
  24758266.601     -799320.736 4   -622845.164 2
  23648738.323     -718552.338 6   -559908.751 3
  20913312.916      882519.462 8    687675.877 9
  24233821.073     -857128.837 5   -667892.339 3
  23347623.474    -1489397.844 6  -1160567.390 3
 91  5  8 19  6  0.0000000  0  6 19  6 11 18 16  2
  20860564.136      164174.401 8    127928.227 9
  24747043.284     -858335.036 4   -668830.088 3
  23640359.113     -762609.044 5   -594238.502 1
  20924448.406      941041.730 8    733277.555 9
  24225015.571     -903421.055 5   -703964.172 3
  23332537.918    -1568669.040 6  -1222336.931 4
 91  5  8 19  6 30.0000000  0  6 19  6 11 18 16  2
  20862862.941      176242.661 8    137332.068 9
  24735840.942     -917138.019 4   -714650.369 2
  23632081.846     -806094.110 5   -628122.785 4
  20935694.513     1000128.636 8    779319.208 9
  24216316.497     -949112.016 5   -739567.498 2
  23317517.416    -1647586.853 6  -1283831.089 4
 91  5  8 19  7  0.0000000  0  6 19  6 11 18 16  2
  20865215.719      188624.140 8    146979.964 9
  24724700.043     -975729.275 3   -760305.631 2
  23623915.197     -849003.729 6   -661558.683 2
  20947046.456     1059780.440 8    825801.036 9
  24207736.138     -994199.881 5   -774700.881 3
  23302567.675    -1726148.775 6  -1345047.950 4
 91  5  8 19  7 30.0000000  0  6 19  6 11 18 16  2
  20867631.440      201302.319 8    156859.067 9
  24713583.748    -1034125.824 4   -805809.202 2
  23615856.477     -891351.969 6   -694557.185 1
  20958499.435     1119980.332 8    872709.944 9
  24199269.397    -1038699.768 6   -809376.102 3
  23287684.768    -1804370.338 6  -1405999.591 5
 91  5  8 19  8  0.0000000  0  6 19  6 11 18 16  2
  20870098.726      214276.832 8    166969.073 9
  24702514.499    -1092328.601 4   -851161.773 2
  23607903.592     -933136.680 6   -727116.534 3
  20970060.623     1180726.656 8    920044.644 9
  24190911.772    -1082610.517 6   -843592.264 2
  23272865.432    -1882250.371 6  -1466685.112 5
 91  5  8 19  8 30.0000000  0  6 19  6 11 18 16  2
  20872622.376      227545.197 8    177308.054 9
  24691474.340    -1150340.560 4   -896366.134 3
  23600061.325     -974357.819 6   -759236.754 2
  20981724.959     1242016.343 8    967802.743 9
  24182667.783    -1125933.099 5   -877350.081 4
  23258107.242    -1959790.542 6  -1527105.807 5
 91  5  8 19  9  0.0000000  0  6 19  6 11 18 16  2
  20875200.594      241093.820 7    187865.412 9
  24680452.782    -1208175.367 4   -941432.018 3
  23592320.670    -1015026.213 6   -790926.265 2
  20993487.907     1303835.910 8   1015973.740 9
  24174539.210    -1168679.238 5   -910658.757 2
  23243412.012    -2037002.951 6  -1587271.100 6
 91  5  8 19  9 30.0000000  0  6 19  6 11 18 16  2
  20877831.877      254907.143 7    198629.024 9
  24669500.467    -1265849.049 4   -986372.319 3
  23584688.259    -1055154.599 6   -822194.996 4
  21005348.593     1366168.816 8   1064544.734 9
  24166511.081    -1210863.077 5   -943529.246 2
  23228780.354    -2113901.679 6  -1647191.952 4
 91  5  8 19 10  0.0000000  0  6 19  6 11 18 16  2
  20880513.819      268993.530 8    209605.427 9
  24658543.039    -1323353.565 4  -1031181.288 4
  23577155.977    -1094732.018 6   -853034.414 3
  21017309.112     1429023.062 8   1113521.970 9
  24158593.550    -1252474.160 5   -975953.455 3
  23214206.839    -2190477.285 6  -1706861.037 5
 91  5  8 19 10 30.0000000  0  6 19  6 11 18 16  2
  20883245.231      283346.093 7    220789.229 9
  24647630.301    -1380696.265 4  -1075863.708 4
  23569730.718    -1133762.948 6   -883447.973 2
  21029367.980     1492391.203 8   1162899.640 9
  24150775.259    -1293518.816 5  -1007936.253 1
  23199697.786    -2266735.579 6  -1766282.846 5
 91  5  8 19 11  0.0000000  0  6 19  6 11 18 16  2
  20886029.100      297967.502 7    232182.528 9
  24636758.920    -1437875.061 4  -1120418.416 2
  23562404.680    -1172242.173 6   -913431.632 2
  21041524.552     1556274.663 8   1212678.860 9
  24143075.403    -1333992.409 5  -1039474.076 2
  23185247.191    -2342672.540 6  -1825454.288 5
 91  5  8 19 11 30.0000000  0  6 19  6 11 18 16  2
  20888861.846      312855.646 7    243783.683 9
  24625902.843    -1494891.831 4  -1164846.858 3
  23555188.387    -1210168.915 6   -942984.809 2
  21053777.973     1620671.277 8   1262857.942 9
  24135484.960    -1373894.646 5  -1070566.674 3
  23170857.148    -2418288.949 6  -1884375.949 4
 91  5  8 19 12  0.0000000  0  6 19  6 11 18 16  2
  20891743.749      328005.614 7    255588.840 9
  24615083.027    -1551752.387 5  -1209153.578 3
  23548073.113    -1247545.993 6   -972109.645 2
  21066129.726     1685575.023 8   1313432.195 9
  24127998.537    -1413230.021 5  -1101217.582 3
  23156527.378    -2493588.656 6  -1943050.834 5
 91  5  8 19 12 30.0000000  0  6 19  6 11 18 16  2
  20894673.013      343420.885 7    267600.727 9
  24604297.397    -1608452.932 5  -1253335.636 3
  23541069.957    -1284366.530 6  -1000800.830 3
  21078576.512     1750989.240 8   1364404.210 9
  24120616.153    -1451992.379 5  -1131421.980 2
  23142259.051    -2568566.419 6  -2001474.832 5
 91  5  8 19 13  0.0000000  0  6 19  6 11 18 16  2
  20897661.345      359095.938 7    279815.040 9
  24593533.055    -1664999.858 5  -1297398.436 2
  23534165.429    -1320633.966 6  -1029061.019 3
  21091122.521     1816907.977 8   1415769.355 9
  24113359.968    -1490186.706 5  -1161183.743 2
  23128050.979    -2643226.674 6  -2059651.442 5
 91  5  8 19 13 30.0000000  0  6 19  6 11 18 16  2
  20900689.254      375035.215 7    292235.247 9
  24582805.883    -1721388.987 5  -1341337.839 3
  23527373.036    -1356341.542 6  -1056884.965 4
  21103762.062     1883334.250 8   1467529.978 9
  24106195.223    -1527807.362 5  -1190498.527 3
  23113904.977    -2717563.901 6  -2117576.328 4
 91  5  8 19 14  0.0000000  0  6 19  6 11 18 16  2
  20903770.823      391238.066 7    304860.826 9
  24572094.294    -1777621.605 5  -1385155.261 2
  23520686.462    -1391487.722 6  -1084271.441 3
  21116499.954     1950266.417 8   1519684.813 9
  24099145.614    -1564853.089 5  -1219365.304 3
  23099821.029    -2791577.644 6  -2175249.133 4
 91  5  8 19 14 30.0000000  0  6 19  6 11 18 16  2
  20906906.941      407691.961 7    317682.041 8
  24561428.878    -1833710.016 5  -1428860.771 2
  23514100.628    -1426081.764 6  -1111227.683 4
  21129331.360     2017691.665 8   1572223.859 9
  24092208.106    -1601334.562 5  -1247792.413 3
  23085798.540    -2865278.785 6  -2232678.354 5
 91  5  8 19 15  0.0000000  0  6 19  6 11 18 16  2
  20910084.155      424393.854 7    330696.494 8
  24550779.045    -1889658.471 5  -1472456.779 3
  23507622.112    -1460124.821 6  -1137754.572 4
  21142254.521     2085605.547 8   1625143.662 9
  24085365.649    -1637254.659 5  -1275782.077 4
  23071831.211    -2938669.884 6  -2289866.006 4
 91  5  8 19 15 30.0000000  0  6 19  6 11 18 16  2
  20913311.416      441356.940 7    343914.482 9
  24540159.802    -1945454.113 5  -1515933.711 2
  23501252.416    -1493601.733 6  -1163840.323 3
  21155270.010     2154020.549 8   1678453.948 9
  24078638.904    -1672598.966 6  -1303323.099 2
  23057924.731    -3011736.357 6  -2346800.709 6
 91  5  8 19 16  0.0000000  0  6 19  6 11 18 16  2
  20916584.850      458570.049 7    357327.285 8
  24529574.134    -2001108.433 5  -1559300.961 2
  23494985.868    -1526521.029 6  -1189491.567 3
  21168382.941     2222925.054 8   1732145.665 9
  24072023.683    -1707376.808 6  -1330422.732 2
  23044086.307    -3084488.595 6  -2403490.539 4
 91  5  8 19 16 30.0000000  0  6 19  6 11 18 16  2
  20919908.942      476032.891 7    370934.686 9
  24519006.142    -2056622.307 5  -1602558.326 2
  23488831.124    -1558880.811 6  -1214706.822 5
  21181590.592     2292317.009 8   1786217.190 9
  24065510.093    -1741587.441 5  -1357080.381 4
  23030297.651    -3156925.793 6  -2459934.907 5
 91  5  8 19 17  0.0000000  0  6 19  6 11 18 16  2
  20923284.006      493748.621 7    384739.134 9
  24508465.146    -2111992.667 5  -1645704.291 3
  23482776.510    -1590675.525 6  -1239481.768 5
  21194887.885     2362199.404 8   1840670.886 9
  24059112.529    -1775226.579 5  -1383292.704 2
  23016574.049    -3229043.280 6  -2516130.153 5
 91  5  8 19 17 30.0000000  0  6 19  6 11 18 16  2
  20926700.148      511709.136 7    398734.333 9
  24497962.209    -2167227.979 5  -1688744.553 3
  23476836.717    -1621910.614 6  -1263820.649 5
  21208277.210     2432563.688 8   1895500.079 9
  24052815.391    -1808300.183 6  -1409064.326 3
  23002911.017    -3300847.976 6  -2572081.676 6
 91  5  8 19 18  0.0000000  0  6 19  6 11 18 16  2
  20930165.150      529915.658 7    412921.223 9
  24487481.172    -2222327.539 4  -1731679.081 3
  23470998.572    -1652582.968 6  -1287721.046 4
  21221760.382     2503409.919 8   1950704.810 9
  24046636.967    -1840806.303 6  -1434393.782 3
  22989307.334    -3372337.948 7  -2627787.947 5
 91  5  8 19 18 30.0000000  0  6 19  6 11 18 16  2
  20933673.918      548378.548 7    427307.877 9
  24477017.812    -2277281.643 4  -1774500.259 2
  23465268.636    -1682679.895 6  -1311173.062 5
  21235333.179     2574747.375 8   2006292.311 9
  24040554.467    -1872733.502 6  -1459272.120 3
  22975764.516    -3443501.326 7  -2683239.748 4
 91  5  8 19 19  0.0000000  0  6 19  6 11 18 16  2
  20937239.643      567102.555 7    441898.009 9
  24466582.338    -2332085.928 4  -1817204.741 3
  23459658.321    -1712194.405 6  -1334171.237 4
  21249004.326     2646579.538 8   2062265.301 9
  24034595.200    -1904075.650 6  -1483694.566 3
  22962284.939    -3514332.274 7  -2738432.504 5
 91  5  8 19 19 30.0000000  0  6 19  6 11 18 16  2
  20940849.447      586083.285 7    456688.184 9
  24456187.627    -2386745.288 4  -1859796.227 2
  23454150.823    -1741129.016 6  -1356717.549 4
  21262767.190     2718901.046 8   2118619.604 9
  24028740.844    -1934836.720 5  -1507664.233 3
  22948866.524    -3584834.427 6  -2793369.079 5
 91  5  8 19 20  0.0000000  0  6 19  6 11 18 16  2
  20944509.910      605310.789 7    471670.653 9
  24445810.314    -2441270.443 4  -1902283.138 2
  23448750.976    -1769491.808 6  -1378818.291 3
  21276622.105     2791700.932 8   2175346.661 9
  24022994.121    -1965025.157 5  -1531187.682 3
  22935514.071    -3655017.310 6  -2848056.865 5
 91  5  8 19 20 30.0000000  0  6 19  6 11 18 16  2
  20948216.545      624787.017 7    486846.928 9
  24435462.073    -2495659.773 5  -1944664.218 2
  23443461.134    -1797278.489 6  -1400470.134 5
  21290565.753     2864980.357 8   2232447.389 9
  24017361.627    -1994637.963 5  -1554262.590 3
  22922220.670    -3724878.096 6  -2902493.669 5
 91  5  8 19 21  0.0000000  0  6 19  6 11 18 16  2
  20951966.649      644507.981 7    502213.907 9
  24425128.839    -2549917.609 5  -1986942.799 2
  23438285.504    -1824490.803 6  -1421674.395 4
  21304600.231     2938733.852 8   2289917.523 9
  24011831.653    -2023678.162 5  -1576891.316 3
  22908982.743    -3794419.092 6  -2956681.282 5
 91  5  8 19 21 30.0000000  0  6 19  6 11 18 16  2
  20955765.317      664465.237 7    517765.009 9
  24414832.460    -2604052.916 4  -2029125.975 2
  23433213.319    -1851135.214 6  -1442436.154 4
  21318721.348     3012952.157 8   2347749.842 9
  24006416.501    -2052153.276 6  -1599079.710 2
  22895814.355    -3863647.850 6  -3010625.608 6
 91  5  8 19 22  0.0000000  0  6 19  6 11 18 16  2
  20959613.160      684657.398 7    533499.159 9
  24404554.073    -2658067.255 4  -2071214.867 3
  23428249.657    -1877210.750 6  -1462754.636 4
  21332934.812     3087633.408 8   2405942.905 9
  24001102.090    -2080063.938 5  -1620828.272 4
  22882697.532    -3932564.383 6  -3064326.649 5
 91  5  8 19 22 30.0000000  0  6 19  6 11 18 16  2
  20963495.781      705085.539 7    549417.192 9
  24394298.772    -2711960.170 4  -2113209.162 3
  23423403.522    -1902714.387 6  -1482627.502 3
  21347233.713     3162777.233 8   2464496.400 9
  23995900.389    -2107407.228 5  -1642134.727 2
  22869636.480    -4001166.888 6  -3117782.983 5
 91  5  8 19 23  0.0000000  0  6 19  6 11 18 16  2
  20967433.545      725754.451 7    565522.839 9
  24384069.559    -2765727.485 4  -2155105.559 2
  23418653.311    -1927639.462 6  -1502049.501 5
  21361621.661     3238386.412 8   2523412.521 9
  23990803.913    -2134177.775 5  -1662994.903 3
  22856644.671    -4069449.953 6  -3170990.411 6
 91  5  8 19 23 30.0000000  0  6 19  6 11 18 16  2
  20971410.589      746658.684 7    581811.856 9
  24373856.522    -2819375.138 4  -2196909.211 3
  23414020.907    -1951989.490 6  -1521023.437 5
  21376098.327     3314455.167 8   2582686.757 9
  23985820.166    -2160380.229 5  -1683412.413 4
  22843710.430    -4137417.717 6  -3223952.158 5
 91  5  8 19 24  0.0000000  0  6 19  6 11 18 16  2
  20975434.714      767799.942 7    598285.570 9
  24363670.481    -2872901.842 5  -2238618.144 3
  23409497.950    -1975760.607 6  -1539546.278 4
  21390661.057     3390984.442 8   2642319.839 9
  23980941.347    -2186011.627 5  -1703384.959 5
  22830843.337    -4205067.713 6  -3276666.268 6
 91  5  8 19 24 30.0000000  0  6 19  6 11 18 16  2
  20979499.603      789171.767 7    614938.936 8
  24353507.509    -2926314.780 5  -2280238.362 3
  23405084.999    -1998957.615 6  -1557621.743 4
  21405310.411     3467965.971 8   2702305.326 9
  23976168.346    -2211078.885 5  -1722917.872 3
  22818026.013    -4272405.817 6  -3329137.364 5
 91  5  8 19 25  0.0000000  0  6 19  6 11 18 16  2
  20983605.849      810772.611 7    631770.761 9
  24343364.640    -2979616.278 5  -2321771.788 2
  23400781.775    -2021580.360 6  -1575249.749 6
  21420046.718     3545396.752 8   2762640.884 9
  23971512.261    -2235581.738 6  -1742011.011 4
  22805269.537    -4339432.786 6  -3381366.011 6
 91  5  8 19 25 30.0000000  0  6 19  6 11 18 16  2
  20987771.163      832605.099 7    648783.091 9
  24333243.950    -3032803.797 5  -2363216.423 2
  23396587.075    -2043624.048 6  -1592426.548 5
  21434864.553     3623278.828 8   2823328.105 9
  23966953.619    -2259517.025 6  -1760661.879 3
  22792573.928    -4406144.429 6  -3433348.957 6
 91  5  8 19 26  0.0000000  0  6 19  6 11 18 16  2
  20991961.973      854678.285 7    665982.958 8
  24323139.733    -3085868.863 5  -2404565.616 2
  23392496.115    -2065077.967 6  -1609143.788 5
  21449772.623     3701619.640 8   2884372.779 9
  23962514.301    -2282874.597 6  -1778862.592 4
  22779942.780    -4472530.657 6  -3485078.328 5
 91  5  8 19 26 30.0000000  0  6 19  6 11 18 16  2
  20996207.628      876989.958 7    683368.693 9
  24313074.814    -3138814.543 5  -2445821.791 2
  23388530.449    -2085942.955 6  -1625402.103 6
  21464767.351     3780415.298 8   2945771.875 9
  23958169.999    -2305656.431 5  -1796614.678 4
  22767371.277    -4538593.909 6  -3536556.016 6
 91  5  8 19 27  0.0000000  0  6 19  6 11 18 16  2
  21000497.363      899533.311 7    700934.939 9
  24303021.272    -3191647.873 5  -2486990.424 3
  23384673.322    -2106223.262 6  -1641204.826 5
  21479843.920     3859658.178 8   3007519.451 9
  23953944.726    -2327868.069 5  -1813922.432 2
  22754860.936    -4604339.897 7  -3587786.488 6
 91  5  8 19 27 30.0000000  0  6 19  6 11 18 16  2
  21004832.957      922310.874 7    718683.692 8
  24292989.020    -3244367.053 5  -2528070.134 2
  23380923.829    -2125915.084 6  -1656548.972 5
  21495011.021     3939349.298 8   3069616.298 9
  23949830.069    -2349506.866 5  -1830783.824 2
  22742411.462    -4669765.394 7  -3638767.222 5
 91  5  8 19 28  0.0000000  0  6 19  6 11 18 16  2
  21009212.019      945315.980 7    736609.738 8
  24282975.038    -3296979.042 5  -2569066.295 4
  23377286.732    -2145023.153 6  -1671438.259 5
  21510259.056     4019481.096 8   3132056.527 9
  23945825.750    -2370578.960 6  -1847203.627 3
  22730018.335    -4734875.611 7  -3689502.291 6
 91  5  8 19 28 30.0000000  0  6 19  6 11 18 16  2
  21013631.862      968545.771 7    754710.882 8
  24272978.175    -3349487.396 5  -2609981.731 3
  23373766.884    -2163549.038 6  -1685873.898 4
  21525591.934     4100049.384 8   3194836.874 8
  23941920.357    -2391085.705 6  -1863182.922 2
  22717688.465    -4799672.794 7  -3739993.429 6
 91  5  8 19 29  0.0000000  0  6 19  6 11 18 16  2
  21018093.080      991996.583 7    772984.231 9
  24263005.270    -3401896.087 5  -2650819.463 2
  23370342.645    -2181494.601 6  -1699857.340 5
  21541009.376     4181049.210 8   3257953.484 8
  23938117.780    -2411030.683 6  -1878724.473 3
  22705417.070    -4864160.086 7  -3790243.090 6
 91  5  8 19 29 30.0000000  0  6 19  6 11 18 16  2
  21022598.953     1015668.137 7    791429.594 9
  24253053.359    -3454205.970 5  -2691580.221 2
  23367042.826    -2198858.030 6  -1713387.179 5
  21556500.842     4262478.976 8   3321405.120 8
  23934431.543    -2430413.114 6  -1893827.653 2
  22693205.024    -4928336.713 6  -3840250.690 6
 91  5  8 19 30  0.0000000  0  6 19  6 11 18 16  2
  21027146.515     1039564.024 7    810049.766 8
  24243118.845    -3506414.308 5  -2732261.843 2
  23363849.751    -2215634.421 6  -1726459.574 4
  21572079.855     4344340.369 8   3385193.080 9
  23930854.109    -2449229.363 6  -1908489.657 2
  22681050.843    -4992198.715 6  -3890013.124 7
 91  5  8 19 30 30.0000000  0  6 19  6 11 18 16  2
  21031740.529     1063681.752 7    828842.791 9
  24233203.509    -3558524.235 5  -2772866.808 2
  23360768.478    -2231824.977 6  -1739075.481 4
  21587739.820     4426629.619 8   3449314.444 9
  23927382.214    -2467481.326 6  -1922711.969 3
  22668961.105    -5055748.044 7  -3939531.914 6
 91  5  8 19 31  0.0000000  0  6 19  6 11 18 16  2
  21036366.634     1088021.808 7    847809.048 9
  24223307.945    -3610536.009 5  -2813395.321 3
  23357800.528    -2247427.722 6  -1751233.353 3
  21603479.219     4509345.410 8   3513768.169 9
  23924016.747    -2485168.082 6  -1936493.866 3
  22656926.528    -5118983.239 7  -3988805.929 7
 91  5  8 19 31 30.0000000  0  6 19  6 11 18 16  2
  21041038.598     1112577.639 7    866943.442 8
  24213422.902    -3662456.264 5  -2853852.486 3
  23354938.413    -2262447.496 6  -1762936.964 4
  21619298.068     4592480.328 8   3578548.491 9
  23920757.396    -2502296.101 6  -1949840.355 4
  22644952.520    -5181910.085 7  -4037839.689 7
 91  5  8 19 32  0.0000000  0  6 19  6 11 18 16  2
  21045750.733     1137341.029 7    886239.571 9
  24203558.521    -3714293.986 5  -2894245.369 2
  23352191.121    -2276890.975 6  -1774191.535 3
  21635199.056     4676024.399 8   3643647.639 9
  23917602.990    -2518872.966 6  -1962757.405 4
  22633033.375    -5244536.220 7  -4086639.123 7
 91  5  8 19 32 30.0000000  0  6 19  6 11 18 16  2
  21050504.242     1162316.445 7    905700.916 8
  24193713.946    -3766045.047 5  -2934570.745 3
  23349557.743    -2290752.179 6  -1784992.400 3
  21651171.100     4759981.192 8   3709068.386 9
  23914556.496    -2534892.774 6  -1975240.351 3
  22621174.783    -5306856.422 7  -4135200.167 6
 91  5  8 19 33  0.0000000  0  6 19  6 11 18 16  2
  21055300.312     1187505.941 7    925329.078 8
  24183875.653    -3817708.068 5  -2974827.501 3
  23347026.589    -2304027.837 6  -1795336.970 3
  21667227.395     4844350.552 8   3774810.611 9
  23911609.241    -2550354.066 6  -1987288.119 4
  22609374.353    -5368867.833 7  -4183520.611 7
 91  5  8 19 33 30.0000000  0  6 19  6 11 18 16  2
  21060133.569     1212908.412 7    945123.181 8
  24174066.746    -3869284.926 5  -3015017.116 4
  23344613.852    -2316717.885 6  -1805225.234 2
  21683361.028     4929129.693 8   3840872.146 9
  23908775.605    -2565257.445 6  -1998901.156 5
  22597630.880    -5430571.320 7  -4231601.120 7
 91  5  8 19 34  0.0000000  0  6 19  6 11 18 16  2
  21065007.293     1238524.051 7    965083.400 8
  24164266.529    -3920776.173 5  -3055140.009 2
  23342312.657    -2328820.656 6  -1814655.894 2
  21699572.595     5014317.706 8   3907252.275 9
  23906045.990    -2579602.314 6  -2010078.970 3
  22585947.976    -5491965.812 7  -4279440.847 6
 91  5  8 19 34 30.0000000  0  6 19  6 11 18 16  2
  21069926.300     1264354.549 7    985211.037 8
  24154482.192    -3972180.442 5  -3095195.137 2
  23340120.578    -2340333.200 6  -1823626.609 3
  21715860.331     5099915.065 8   3973951.381 9
  23903423.100    -2593386.644 6  -2020820.021 4
  22574325.625    -5553049.063 7  -4327038.049 7
 91  5  8 19 35  0.0000000  0  6 19  6 11 18 16  2
  21074875.862     1290401.109 7   1005507.049 8
  24144715.567    -4023496.794 5  -3135181.750 3
  23338041.804    -2351252.556 6  -1832135.117 4
  21732229.299     5185921.223 8   4040969.019 8
  23900904.248    -2606608.589 6  -2031122.838 4
  22562760.232    -5613818.784 7  -4374390.939 6
 91  5  8 19 35 30.0000000  0  6 19  6 11 18 16  2
  21079879.398     1316658.939 7   1025967.685 8
  24134966.008    -4074730.681 5  -3175104.077 3
  23336076.368    -2361582.303 6  -1840184.218 4
  21748672.011     5272329.999 8   4108300.388 8
  23898494.513    -2619273.211 5  -2040991.376 2
  22551256.891    -5674279.382 7  -4421502.951 7
 91  5  8 19 36  0.0000000  0  6 19  6 11 18 16  2
  21084916.822     1343125.998 7   1046591.354 8
  24125230.846    -4125884.990 5  -3214964.424 2
  23334223.050    -2371323.438 6  -1847774.627 4
  21765189.375     5359137.558 7   4175942.492 8
  23896189.112    -2631381.863 6  -2050426.703 4
  22539808.711    -5734432.795 7  -4468375.617 6
 91  5  8 19 36 30.0000000  0  6 19  6 11 18 16  2
  21089993.806     1369809.888 7   1067383.980 8
  24115517.583    -4176952.480 5  -3254757.100 3
  23332483.351    -2380467.008 6  -1854899.424 3
  21781784.689     5446349.343 7   4243899.582 9
  23893994.939    -2642927.086 6  -2059422.993 3
  22528422.601    -5794270.621 7  -4515002.366 6
 91  5  8 19 37  0.0010000  0  6 19  6 11 18 16  2
  21095110.352     1396711.476 7   1088346.234 8
  24105814.794    -4227935.895 5  -3294484.275 2
  23330860.885    -2389012.648 6  -1861558.279 4
  21798458.846     5533967.165 7   4312173.052 8
  23891905.680    -2653909.107 6  -2067980.423 5
  22517096.139    -5853794.378 7  -4561384.382 6
 91  5  8 19 37 30.0010000  0  6 19  6 11 18 16  2
  21100271.289     1423836.278 7   1109482.421 7
  24096133.291    -4278824.692 5  -3334137.692 3
  23329348.126    -2396950.901 7  -1867743.853 4
  21815212.748     5621991.083 7   4380762.954 8
  23889923.754    -2664319.532 6  -2076092.460 4
  22505829.336    -5912992.150 7  -4607512.379 6
 91  5  8 19 38  0.0010000  0  6 19  6 11 18 16  2
  21105480.179     1451179.361 7   1130788.700 8
  24086467.389    -4329627.089 5  -3373723.771 3
  23327949.002    -2404286.729 6  -1873460.017 4
  21832039.487     5710416.083 8   4449665.394 7
  23888052.445    -2674164.940 6  -2083764.226 4
  22494626.087    -5971870.962 7  -4653391.831 5
 91  5  8 19 38 30.0010000  0  6 19  6 11 18 16  2
  21110719.956     1478741.658 7   1152265.801 7
  24076811.677    -4380342.823 5  -3413242.329 4
  23326672.187    -2411018.151 7  -1878705.218 4
  21848941.785     5799241.458 8   4518879.810 8
  23886279.171    -2683444.567 5  -2090995.137 3
  22483480.109    -6030429.900 7  -4699022.032 6
 91  5  8 19 39  0.0010000  0  6 19  6 11 18 16  2
  21116006.500     1506523.963 7   1173914.334 8
  24067173.939    -4430971.524 5  -3452693.074 2
  23325504.488    -2417143.345 7  -1883478.009 5
  21865919.643     5888466.502 8   4588405.650 8
  23884622.518    -2692156.452 5  -2097783.623 4
  22472398.278    -6088667.248 7  -4744401.638 6
 91  5  8 19 39 30.0010000  0  6 19  6 11 18 16  2
  21121332.603     1534522.872 7   1195731.649 8
  24057554.507    -4481517.415 5  -3492079.265 2
  23324451.019    -2422664.509 7  -1887780.164 5
  21882972.729     5978085.470 8   4658238.447 8
  23883071.996    -2700303.851 5  -2104132.271 3
  22461378.204    -6146585.727 7  -4789532.764 6
 91  5  8 19 40  0.0010000  0  6 19  6 11 18 16  2
  21126704.286     1562740.919 7   1217719.721 8
  24047955.753    -4531978.567 5  -3531399.416 3
  23323519.858    -2427578.241 7  -1891608.969 5
  21900101.670     6068100.043 8   4728379.511 9
  23881631.794    -2707885.258 5  -2110039.874 4
  22450418.700    -6204182.869 7  -4834413.494 7
 91  5  8 19 40 30.0010000  0  6 19  6 11 18 16  2
  21132115.546     1591176.140 7   1239877.015 8
  24038372.285    -4582357.887 5  -3570655.822 3
  23322700.535    -2431886.001 7  -1894965.585 4
  21917307.062     6158506.374 8   4798825.836 9
  23880293.520    -2714902.931 6  -2115508.208 4
  22439519.451    -6261460.376 7  -4879045.160 7
 91  5  8 19 41  0.0010000  0  6 19  6 11 18 16  2
  21137566.069     1619828.882 7   1262203.804 8
  24028794.210    -4632655.242 5  -3609848.318 3
  23321997.221    -2435586.178 6  -1897848.777 5
  21934583.510     6249302.027 7   4869575.522 9
  23879073.662    -2721355.804 6  -2120536.445 3
  22428680.143    -6318416.637 7  -4923426.511 7
 91  5  8 19 41 30.0010000  0  6 19  6 11 18 16  2
  21143062.766     1648699.975 7   1284700.750 7
  24019244.316    -4682869.993 6  -3648976.445 3
  23321402.727    -2438676.466 6  -1900256.734 5
  21951935.483     6340487.538 7   4940629.002 9
  23877950.340    -2727243.113 6  -2125123.967 4
  22417900.812    -6375050.903 7  -4967556.949 7
 91  5  8 19 42  0.0010000  0  6 19  6 11 18 16  2
  21148599.022     1677796.444 7   1307373.304 7
  24009707.633    -4732996.299 6  -3688035.677 2
  23320933.561    -2441149.364 6  -1902183.586 3
  21969363.626     6432067.385 7   5011989.749 9
  23876939.745    -2732557.701 6  -2129265.232 5
  22407187.425    -6431355.801 7  -5011430.741 7
 91  5  8 19 42 30.0010000  0  6 19  6 11 18 16  2
  21154178.467     1707123.746 7   1330225.732 7
  24000183.810    -4783029.371 5  -3727022.272 3
  23320581.293    -2442998.754 6  -1903624.607 4
  21986865.217     6524044.876 7   5083660.354 8
  23876030.170    -2737294.914 6  -2132956.595 4
  22396538.797    -6487325.340 7  -5055043.213 7
 91  5  8 19 43  0.0010000  0  6 19  6 11 18 16  2
  21159805.866     1736682.431 7   1353258.450 8
  23990679.200    -4832968.923 5  -3765936.008 5
  23320347.164    -2444223.197 6  -1904578.666 3
  22004444.445     6616419.618 7   5155640.496 8
  23875243.811    -2741454.367 6  -2136197.735 4
  22385951.331    -6542958.616 7  -5098393.660 7
 91  5  8 19 43 30.0010000  0  6 19  6 11 18 16  2
  21165473.452     1766474.720 7   1376473.205 7
  23981190.173    -4882813.556 5  -3804775.781 3
  23320234.435    -2444819.812 6  -1905043.510 4
  22022097.120     6709191.020 7   5227929.726 8
  23874564.177    -2745033.891 6  -2138986.989 4
  22375428.012    -6598253.120 7  -5141480.133 7
 91  5  8 19 44  0.0010000  0  6 19  6 11 18 16  2
  21171185.990     1796497.752 7   1399867.750 8
  23971727.513    -4932566.933 5  -3843544.448 4
  23320243.440    -2444790.860 6  -1905020.870 5
  22039828.949     6802355.244 7   5300525.050 7
  23873991.880    -2748036.726 6  -2141326.871 4
  22364968.857    -6653211.689 7  -5184304.831 7
 91  5  8 19 44 30.0010000  0  6 19  6 11 18 16  2
  21176941.404     1826744.354 7   1423436.523 8
  23962270.263    -4982237.248 5  -3882248.379 3
  23320362.154    -2444142.892 6  -1904515.923 4
  22057629.724     6895902.137 7   5373418.542 7
  23873528.402    -2750471.040 6  -2143223.738 4
  22354575.351    -6707841.481 7  -5226873.347 7
 91  5  8 19 45  0.0010000  0  6 19  6 11 18 16  2
  21182739.692     1857215.575 7   1447180.307 8
  23952841.788    -5031823.252 6  -3920886.632 3
  23320608.271    -2442873.644 6  -1903526.851 4
  22075501.853     6989831.900 7   5446610.368 7
  23873174.651    -2752334.492 6  -2144675.801 3
  22344242.396    -6762140.121 7  -5269183.819 7
 91  5  8 19 45 30.0010000  0  6 19  6 11 18 16  2
  21188582.357     1887908.174 7   1471096.608 8
  23943419.019    -5081328.808 6  -3959462.162 3
  23320967.432    -2440985.868 6  -1902055.831 4
  22093450.729     7084138.777 7   5520096.040 7
  23872927.015    -2753631.147 6  -2145686.217 2
  22333970.919    -6816110.663 7  -5311238.636 7
 91  5  8 19 46  0.0010000  0  6 19  6 11 18 16  2
  21194462.487     1918821.829 7   1495185.147 8
  23934005.534    -5130754.853 5  -3997975.789 3
  23321445.899    -2438479.076 6  -1900102.425 3
  22111468.253     7178821.078 8   5593874.253 7
  23872794.202    -2754361.736 6  -2146255.538 3
  22323761.774    -6869753.348 7  -5353037.974 6
 91  5  8 19 46 30.0010000  0  6 19  6 11 18 16  2
  21200390.273     1949952.924 7   1519443.128 8
  23924629.515    -5180105.514 5  -4036430.645 2
  23322038.282    -2435356.187 6  -1897668.963 2
  22129554.426     7273873.200 7   5667940.638 7
  23872757.329    -2754530.003 6  -2146386.720 5
  22313614.105    -6923071.277 7  -5394584.255 6
 91  5  8 19 47  0.0010000  0  6 19  6 11 18 16  2
  21206356.450     1981302.194 7   1543871.117 8
  23915243.322    -5229380.666 5  -4074826.728 3
  23322746.394    -2431616.095 6  -1894754.554
  22147716.753     7369294.412 7   5742294.624 8
  23872827.182    -2754135.748 6  -2146079.500 5
  22303531.788    -6976063.418 7  -5435876.680 6
 91  5  8 19 47 30.0010000  0  6 19  6 11 18 16  2
  21212360.093     2012867.654 7   1568467.560 8
  23905881.699    -5278583.280 5  -4113166.258 4
  23323577.129    -2427260.284 6  -1891360.369 3
  22165940.835     7465079.650 7   5816932.266 7
  23873010.654    -2753181.650 6  -2145336.066 5
  22293509.727    -7028731.485 7  -5476916.577 6
 91  5  8 19 48  0.0010000  0  6 19  6 11 18 16  2
  21218412.300     2044648.803 7   1593232.081 8
  23896531.174    -5327714.314 5  -4151450.001 3
  23324524.170    -2422288.938 6  -1887486.539 3
  22184235.678     7561226.927 7   5891852.012 7
  23873302.352    -2751668.280 5  -2144156.821 5
  22283546.421    -7081075.853 7  -5517704.248 6
 91  5  8 19 48 30.0010000  0  6 19  6 11 18 16  2
  21224501.675     2076652.014 7   1618169.626 8
  23887198.030    -5376768.191 5  -4189673.602 3
  23325586.330    -2416695.243 6  -1883127.750 2
  22202601.858     7657740.816 7   5967057.430 7
  23873696.291    -2749590.156 6  -2142537.527 3
  22273651.763    -7133090.101 7  -5558234.688 6
 91  5  8 19 49  0.0010000  0  6 19  6 11 18 16  2
  21230634.240     2108872.715 7   1643276.653 8
  23877870.592    -5425749.699 5  -4227840.849 3
  23326773.206    -2410483.124 6  -1878287.096 4
  22221037.891     7754614.807 7   6042543.447 8
  23874203.830    -2746951.704 6  -2140481.624 4
  22263815.878    -7184777.900 7  -5598510.759 6
 91  5  8 19 49 30.0010000  0  6 19  6 11 18 16  2
  21236804.864     2141321.707 7   1668561.558 8
  23868571.633    -5474649.272 5  -4265944.221 1
  23328072.218    -2403641.816 6  -1872956.113 2
  22239540.793     7851856.897 7   6118316.300 7
  23874810.312    -2743743.727 6  -2137981.910 3
  22254043.843    -7236129.459 7  -5638524.818 6
 91  5  8 19 50  0.0010000  0  6 19  6 11 18 16  2
  21243020.771     2173993.401 7   1694019.996 8
  23859277.158    -5523472.560 5  -4303988.141 2
  23329494.132    -2396175.809 6  -1867138.397 3
  22258113.234     7949460.062 7   6194370.495 7
  23875530.116    -2739971.984 6  -2135042.921 4
  22244332.361    -7287149.282 7  -5678280.387 7
 91  5  8 19 50 30.0010000  0  6 19  6 11 18 16  2
  21249286.132     2206887.701 7   1719651.895 8
  23849997.691    -5572220.212 5  -4341973.152 3
  23331030.257    -2388085.146 6  -1860833.911 3
  22276758.216     8047422.273 7   6270704.469 7
  23876351.254    -2735635.853 5  -2131664.119 4
  22234688.638    -7337837.340 7  -5717777.443 7
 91  5  8 19 51  0.0010000  0  6 19  6 11 18 16  2
  21255583.270     2240008.788 7   1745460.521 8
  23840739.199    -5620888.787 5  -4379896.555 4
  23332690.523    -2379365.493 6  -1854039.304 3
  22295471.271     8145746.026 7   6347320.168 6
  23877280.897    -2730733.089 5  -2127843.826 4
  22225104.873    -7388189.596 7  -5757012.830 8
 91  5  8 19 51 30.0010000  0  6 19  6 11 18 16  2
  21261927.768     2273354.096 7   1771443.865 8
  23831495.696    -5669481.526 5  -4417760.833 3
  23334468.875    -2370018.823 6  -1846756.105 3
  22314246.972     8244426.085 7   6424213.506 7
  23878328.381    -2725267.076 5  -2123584.595 4
  22215587.664    -7438208.346 7  -5795988.350 7
 91  5  8 19 52  0.0010000  0  6 19  6 11 18 16  2
  21268314.844     2306917.063 7   1797596.803 8
  23822258.196    -5718005.800 5  -4455571.773 4
  23336365.678    -2360051.726 7  -1838989.479 4
  22333094.028     8343454.014 7   6501378.406 6
  23879469.992    -2719244.161 5  -2118891.414 2
  22206131.915    -7487899.755 7  -5834708.797 8
 91  5  8 19 52 30.0010000  0  6 19  6 11 18 16  2
  21274743.609     2340702.985 8   1823923.492 8
  23813038.374    -5766457.006 6  -4493325.754 4
  23338383.273    -2349458.713 7  -1830735.068 3
  22352002.229     8442832.431 7   6578815.921 6
  23880720.422    -2712660.560 5  -2113761.376 3
  22196738.812    -7537258.899 7  -5873170.330 7
 91  5  8 19 53  0.0010000  0  6 19  6 11 18 16  2
  21281214.325     2374706.269 8   1850419.547 8
  23803836.246    -5814840.850 5  -4531027.250 4
  23340518.097    -2338244.947 6  -1821996.989 4
  22370981.784     8542554.437 7   6656521.169 7
  23882083.284    -2705522.169 6  -2108199.018 4
  22187407.779    -7586291.062 7  -5911377.071 8
 91  5  8 19 53 30.0010000  0  6 19  6 11 18 16  2
  21287729.712     2408931.045 8   1877088.200 8
  23794639.510    -5863153.917 5  -4568673.596 4
  23342773.433    -2326406.137 6  -1812771.867 4
  22390021.315     8642621.906 7   6734495.622 5
  23883543.867    -2697825.588 6  -2102201.720 3
  22178141.486    -7634991.693 7  -5949325.477 8
 91  5  8 19 54  0.0010000  0  6 19  6 11 18 16  2
  21294281.676     2443372.561 8   1903925.733 9
  23785452.668    -5911401.501 5  -4606268.937 8
  23345141.201    -2313946.646 6  -1803063.107 5
  22409130.088     8743027.961 7   6812733.887 6
  23885115.678    -2689576.687 6  -2095774.049 5
  22168934.874    -7683365.185 7  -5987018.959 8
 91  5  8 19 54 30.0010000  0  6 19  6 11 18 16  2
  21300878.608     2478040.154 8   1930939.431 8
  23776288.320    -5959574.991 5  -4643806.542 4
  23347628.276    -2300857.598 6  -1792863.757 5
  22428301.508     8843779.647 7   6891241.486 6
  23886794.808    -2680766.419 6  -2088908.952 3
  22159794.502    -7731402.525 7  -6024450.520 7
 91  5  8 19 55  0.0010000  0  6 19  6 11 18 16  2
  21307516.008     2512918.633 8   1958117.447 9
  23767136.257    -6007690.254 5  -4681298.779 4
  23350239.771    -2287154.333 6  -1782185.814 5
  22447537.093     8944859.669 7   6970004.919 6
  23888577.679    -2671411.614 6  -2081619.516 3
  22150715.572    -7779119.284 8  -6061632.269 7
 91  5  8 19 55 30.0010000  0  6 19  6 11 18 16  2
  21314196.597     2548014.264 7   1985464.673 9
  23757990.493    -6055741.451 6  -4718741.083 5
  23352966.385    -2272829.859 6  -1771023.816 5
  22466835.341     9046272.024 7   7049027.329 6
  23890461.884    -2661505.970 6  -2073900.897 2
  22141695.729    -7826508.451 8  -6098558.746 7
 91  5  8 19 56  0.0010000  0  6 19  6 11 18 16  2
  21320914.931     2583326.006 8   2012980.321 9
  23748860.609    -6103730.035 5  -4756134.609 3
  23355806.914    -2257885.418 6  -1759378.725 5
  22486196.235     9148013.611 7   7128306.266 6
  23892445.607    -2651051.681 5  -2065754.708 2
  22132741.220    -7873571.391 8  -6135231.025 7
 91  5  8 19 56 30.0010000  0  6 19  6 11 18 16  2
  21327675.861     2618856.191 8   2040666.168 9
  23739734.616    -6151654.977 5  -4793478.518 4
  23358767.657    -2242319.402 6  -1747249.298 6
  22505616.478     9250084.467 7   7207841.779 6
  23894541.745    -2640047.367 5  -2057180.000 4
  22123844.890    -7920305.829 8  -6171647.331 7
 91  5  8 19 57  0.0010000  0  6 19  6 11 18 16  2
  21334478.741     2654598.324 8   2068517.171 9
  23730626.335    -6199522.801 5  -4830777.940 2
  23361852.227    -2226137.694 5  -1734640.123 6
  22525102.997     9352476.203 7   7287627.324 6
  23896741.624    -2628500.714 6  -2048182.662 3
  22115015.394    -7966718.174 8  -6207812.646 7
 91  5  8 19 57 30.0010000  0  6 19  6 11 18 16  2
  21341321.216     2690557.989 8   2096537.679 9
  23721529.135    -6247328.274 5  -4868028.783 2
  23365043.209    -2209334.426 5  -1721546.610 5
  22544650.661     9455192.067 7   7367665.423 6
  23899046.431    -2616406.484 6  -2038758.637 3
  22106244.966    -8012802.419 7  -6243722.311 8
 91  5  8 19 58  0.0010000  0  6 19  6 11 18 16  2
  21348204.454     2726733.569 8   2124726.437 9
  23712441.516    -6295074.030 5  -4905233.124 5
  23368361.612    -2191911.801 5  -1707970.474 6
  22564258.284     9558228.665 7   7447953.481 7
  23901448.977    -2603767.802 6  -2028910.378 2
  22097536.592    -8058560.400 7  -6279377.751 8
 91  5  8 19 58 30.0010000  0  6 19  6 11 18 16  2
  21355129.346     2763120.007 8   2153079.499 9
  23703374.295    -6342765.564 6  -4942395.172 4
  23371790.353    -2173875.102 5  -1693915.861 6
  22583922.271     9661577.928 7   7528485.127 6
  23903954.340    -2590591.055 6  -2018642.840 5
  22088889.381    -8103997.662 7  -6314783.274 7
 91  5  8 19 59  0.0010000  0  6 19  6 11 18 16  2
  21362093.536     2799719.587 8   2181598.653 9
  23694295.977    -6390401.409 6  -4979513.831 5
  23375342.589    -2155221.997 6  -1679380.924 6
  22603648.311     9765240.079 6   7609260.604 6
  23906565.224    -2576874.537 6  -2007954.688 3
  22080305.724    -8149111.406 7  -6349936.713 7
 91  5  8 19 59 30.0010000  0  6 19  6 11 18 16  2
  21369102.678     2836539.041 7   2210289.127 9
  23685252.733    -6437975.261 5  -5016584.189 3
  23379010.852    -2135946.184 6  -1664360.763 7
  22623436.125     9869219.421 7   7690283.237 7
  23909275.348    -2562612.331 6  -1996841.319 5
  22071784.713    -8193895.146 8  -6384833.005 7
 91  5  8 20  0  0.0010000  0  6 19  6 11 18 16  2
  21376150.507     2873586.368 8   2239157.177 9
  23676212.490    -6485479.511 6  -5053600.312 3
  23382799.033    -2116039.302 6  -1648848.857 6
  22643284.474     9973522.039 7   7771557.783 7
  23912097.292    -2547797.840 6  -1985297.614 2
  22063326.383    -8238340.706 8  -6419465.773 8
 91  5  8 20  0 30.0010000  0  6 19  6 11 18 16  2
  21383246.882     2910857.891 7   2268199.910 9
  23667180.345    -6532918.493 5  -5090565.570 3
  23386708.318    -2095505.731 6  -1632848.606 6
  22663195.190    10078141.981 7   7853079.583 7
  23915021.181    -2532436.064 5  -1973327.449 2
  22054932.793    -8282452.088 8  -6453838.134 8
 91  5  8 20  1  0.0010000  0  6 19  6 11 18 16  2
  21390378.053     2948354.861 7   2297418.329 9
  23658170.082    -6580291.576 6  -5127479.480 3
  23390730.628    -2074344.602 6  -1616359.374 6
  22683161.380    10183078.038 7   7934848.196 8
  23918052.074    -2516526.676 6  -1960930.581 4
  22046602.461    -8326228.174 8  -6487949.233 8
 91  5  8 20  1 30.0010000  0  6 19  6 11 18 16  2
  21397561.383     2986072.467 7   2326808.654 9
  23649161.023    -6627604.109 5  -5164346.196 4
  23394877.969    -2052560.856 6  -1599384.977 5
  22703192.904    10288323.637 7   8016857.521 7
  23921175.017    -2500075.352 6  -1948111.419 2
  22038336.275    -8369673.544 8  -6521802.642 8
 91  5  8 20  2  0.0010000  0  6 19  6 11 18 16  2
  21404774.989     3024010.237 7   2356370.543 9
  23640180.740    -6674856.939 6  -5201166.373 3
  23399143.709    -2030155.394 6  -1581926.126 6
  22723276.604    10393875.645 7   8099106.088 6
  23924418.175    -2483083.810 6  -1934871.297 5
  22030130.659    -8412788.964 8  -6555398.950 7
 91  5  8 20  2 30.0010000  0  6 19  6 11 18 16  2
  21412034.750     3062162.846 7   2386099.835 9
  23631193.564    -6722056.345 6  -5237944.924 3
  23403522.772    -2007134.386 6  -1563987.651 6
  22743419.652    10499726.032 7   8181586.678 7
  23927748.567    -2465559.186 6  -1921215.809 4
  22021986.799    -8455580.159 8  -6588742.609 8
 91  5  8 20  3  0.0010000  0  6 19  6 11 18 16  2
  21419339.499     3100535.950 7   2416000.946 9
  23622220.784    -6769196.814 5  -5274677.548 4
  23408022.363    -1983492.294 6  -1545565.199 5
  22763621.176    10605878.259 7   8264302.957 6
  23931184.480    -2447496.935 6  -1907141.384 4
  22013904.993    -8498041.027 8  -6621828.873 7
 91  5  8 20  3 30.0010000  0  6 19  6 11 18 16  2
  21426685.622     3139141.534 7   2446083.198 9
  23613256.991    -6816267.031 5  -5311355.429 2
  23412640.667    -1959217.343 6  -1526649.624 6
  22783880.547    10712342.525 7   8347261.879 5
  23934726.525    -2428885.988 6  -1892639.455 3
  22005891.242    -8540159.606 8  -6654648.430 8
 91  5  8 20  4  0.0010000  0  6 19  6 11 18 16  2
  21434075.806     3177987.672 7   2476352.904 9
  23604326.772    -6863259.454 5  -5347972.683 2
  23417382.782    -1934301.998 6  -1507235.047 6
  22804199.580    10819124.475 7   8430468.845 4
  23938374.702    -2409719.405 6  -1877704.510 3
  21997944.640    -8581928.374 8  -6687195.398 8
 91  5  8 20  4 30.0010000  0  6 19  6 11 18 16  2
  21441512.147     3217073.109 7   2506809.070 9
  23595391.755    -6910175.819 5  -5384530.656 4
  23422249.316    -1908748.124 7  -1487322.940 5
  22824577.369    10926220.270 7   8513920.349 5
  23942122.416    -2390000.146 5  -1862338.935 4
  21990058.293    -8623348.724 8  -6719470.879 8
 91  5  8 20  5  0.0010000  0  6 19  6 11 18 16  2
  21448996.772     3256386.046 7   2537442.512 9
  23586472.024    -6957028.537 5  -5421039.067 3
  23427226.467    -1882568.288 7  -1466923.026 5
  22845016.617    11033615.618 7   8597605.269 5
  23945984.044    -2369741.228 5  -1846552.828 3
  21982240.910    -8664432.413 8  -6751484.032 9
 91  5  8 20  5 30.0010000  0  6 19  6 11 18 16  2
  21456517.362     3295932.163 7   2568257.654 9
  23577581.085    -7003812.556 6  -5457493.954 4
  23432328.038    -1855757.564 7  -1446031.547 6
  22865510.432    11141313.920 7   8681526.273 4
  23949943.394    -2348938.572 5  -1830342.996 3
  21974490.378    -8705174.229 8  -6783230.796 8
 91  5  8 20  6  0.0010000  0  6 19  6 11 18 16  2
  21464087.127     3335711.123 7   2599254.229 9
  23568683.533    -7050528.595 6  -5493895.837 4
  23437553.122    -1828316.545 7  -1424648.931 5
  22886060.611    11249312.524 6   8765681.258 5
  23954004.095    -2327593.685 5  -1813710.679 3
  21966802.196    -8745574.461 8  -6814711.384 8
 91  5  8 20  6 30.0010000  0  6 19  6 11 18 16  2
  21471696.748     3375712.765 7   2630424.318 9
  23559799.488    -7097187.630 6  -5530253.340 3
  23442886.135    -1800256.321 7  -1402783.807 5
  22906668.044    11357598.822 6   8850060.414 6
  23958169.706    -2305718.128 6  -1796664.870 2
  21959176.084    -8785643.867 8  -6845934.185 9
 91  5  8 20  7  0.0010000  0  6 19  6 11 18 16  2
  21479353.747     3415941.534 7   2661771.389 9
  23550938.529    -7143785.369 6  -5566563.065 4
  23448348.053    -1771572.535 7  -1380432.782 4
  22927328.840    11466174.999 6   8934665.456 5
  23962432.759    -2283308.988 6  -1779203.273 3
  21951614.713    -8825378.100 8  -6876895.802 9
 91  5  8 20  7 30.0010000  0  6 19  6 11 18 16  2
  21487055.714     3456393.426 7   2693292.312 9
  23542079.053    -7190326.215 5  -5602828.482 4
  23453926.277    -1742269.576 7  -1357599.315 5
  22948046.000    11575034.982 6   9019491.631 5
  23966795.331    -2260371.655 6  -1761330.110 3
  21944117.803    -8864780.611 8  -6907598.946 9
 91  5  8 20  8  0.0010000  0  6 19  6 11 18 16  2
  21494799.057     3497072.767 6   2724990.477 9
  23533234.585    -7236806.483 5  -5639046.718 4
  23459620.248    -1712344.432 7  -1334280.992 4
  22968818.914    11684180.489 6   9104540.302 6
  23971261.645    -2236903.108 6  -1743043.010 4
  21936682.649    -8903848.112 8  -6938041.040 9
 91  5  8 20  8 30.0010000  0  6 19  6 11 18 16  2
  21502583.180     3537987.701 6   2756872.207 8
  23524407.794    -7283218.727 6  -5675211.929 4
  23465432.619    -1681789.791 7  -1310472.178 3
  22989639.205    11793616.265 6   9189815.127 6
  23975830.181    -2212897.690 6  -1724337.581 2
  21929314.958    -8942572.863 8  -6968216.070 9
 91  5  8 20  9  0.0010000  0  6 19  6 11 18 16  2
  21510412.552     3579131.900 6   2788932.589 8
  23515587.302    -7329569.924 6  -5711329.569 5
  23471369.113    -1650612.980 7  -1286178.511 3
  23010520.049    11903333.826 6   9275309.547 5
  23980498.847    -2188362.824 6  -1705219.598 2
  21922006.318    -8980961.373 8  -6998129.071 8
 91  5  8 20  9 30.0010000  0  6 19  6 11 18 16  2
  21518282.111     3620502.618 6   2821169.470 8
  23506777.595    -7375862.855 6  -5747401.842 4
  23477419.226    -1618817.258 7  -1261402.609 4
  23031453.958    12013329.235 6   9361020.461 6
  23985269.440    -2163302.047 5  -1685691.807 2
  21914765.717    -9019016.105 8  -7027782.002 9
 91  5  8 20 10  0.0010000  0  6 19  6 11 18 16  2
  21526195.419     3662099.002 6   2853582.197 7
  23497969.388    -7422098.850 6  -5783429.746 3
  23483586.848    -1586404.149 7  -1236145.590 3
  23052439.729    12123598.753 7   9446944.960 5
  23990130.286    -2137717.895 5  -1665756.197 4
  21907584.795    -9056738.026 8  -7057175.605 9
 91  5  8 20 10 30.0010000  0  6 19  6 11 18 16  2
  21534153.416     3703914.283 7   2886165.493 7
  23489187.880    -7468285.229 6  -5819418.996 4
  23489874.092    -1553381.448 7  -1210413.612 4
  23073471.971    12234132.638 7   9533075.442 5
  23995093.634    -2111618.843 5  -1645419.349 2
  21900470.114    -9094134.369 8  -7086315.507 9
 91  5  8 20 11  0.0010000  0  6 19  6 11 18 16  2
  21542155.178     3745946.779 7   2918918.034 7
  23480407.558    -7514424.410 6  -5855371.476 4
  23496270.173    -1519751.929 7  -1184208.755 3
  23094552.183    12344926.739 7   9619408.695 6
  24000164.039    -2085008.393 5  -1624684.046 4
  21893416.003    -9131207.206 8  -7115203.333 9
 91  5  8 20 11 30.0010000  0  6 19  6 11 18 16  2
  21550195.907     3788203.685 7   2951845.456 7
  23471638.318    -7560509.541 6  -5891281.818 5
  23502784.060    -1485509.076 6  -1157525.993 3
  23115684.850    12455986.196 6   9705948.721 4
  24005326.459    -2057881.798 5  -1603546.517 2
  21886423.038    -9167949.762 8  -7143833.801 9
 91  5  8 20 12  0.0010000  0  6 19  6 11 18 16  2
  21558285.811     3830684.673 7   2984947.483 7
  23462881.677    -7606541.328 6  -5927150.592 4
  23509417.272    -1450654.189 6  -1130366.301 4
  23136869.676    12567308.034 6   9792693.184 4
  24010589.619    -2030240.463 5  -1582007.917 4
  21879495.738    -9204362.660 8  -7172207.380 9
 91  5  8 20 12 30.0010000  0  6 19  6 11 18 16  2
  21566404.786     3873383.641 7   3018219.352 7
  23454125.349    -7652526.220 6  -5962982.816 4
  23516164.102    -1415194.034 6  -1102734.971 3
  23158102.787    12678884.249 6   9879635.878 6
  24015945.405    -2002091.748 6  -1560073.940 4
  21872628.397    -9240452.583 8  -7200329.296 9
 91  5  8 20 13  0.0010000  0  6 19  6 11 18 16  2
  21574575.327     3916300.844 7   3051661.282 7
  23445387.589    -7698464.704 6  -5998778.871 5
  23523031.739    -1379129.901 6  -1074633.016 3
  23179385.649    12790711.730 6   9966774.333 6
  24021401.024    -1973437.845 6  -1537746.314 4
  21865822.812    -9276219.725 8  -7228199.691 9
 91  5  8 20 13 30.0010000  0  6 19  6 11 18 16  2
  21582782.444     3959436.683 7   3085273.575 6
  23436656.739    -7744356.792 6  -6034538.782 5
  23530007.918    -1342462.410 6  -1046060.874 3
  23200713.183    12902788.216 6  10054106.846 6
  24026944.801    -1944280.385 6  -1515026.328 4
  21859076.575    -9311663.875 8  -7255818.408 9
 91  5  8 20 14  0.0010000  0  6 19  6 11 18 16  2
  21591036.641     4002783.562 7   3119050.310 5
  23427930.374    -7790210.405 6  -6070268.701 4
  23537098.308    -1305199.968 6  -1017025.188 5
  23222085.686    13015104.540 6  10141626.215 6
  24032587.486    -1914628.218 5  -1491920.829 4
  21852391.798    -9346792.789 8  -7283191.488 9
 91  5  8 20 14 30.0010000  0  6 19  6 11 18 16  2
  21599319.003     4046348.863 7   3152997.251 6
  23419207.027    -7836018.160 6  -6105962.886 5
  23544303.223    -1267335.742 6   -987520.584 4
  23243505.252    13127665.508 6  10229336.236 5
  24038327.019    -1884475.010 5  -1468424.932 4
  21845767.590    -9381598.935 8  -7310313.054 9
 91  5  8 20 15  0.0010000  0  6 19  6 11 18 16  2
  21607650.540     4090132.242 7   3187114.124 6
  23410497.449    -7881781.523 6  -6141622.509 3
  23551620.850    -1228871.880 6   -957548.711 4
  23264969.805    13240467.464 6  10317234.019 4
  24044155.881    -1853823.758 5  -1444540.930 2
  21839206.326    -9416083.925 8  -7337184.363 9
 91  5  8 20 15 30.0010000  0  6 19  6 11 18 16  2
  21616030.326     4134131.311 7   3221399.056 7
  23401801.971    -7927502.879 6  -6177249.377 3
  23559055.114    -1189811.544 6   -927112.060 5
  23286484.109    13353506.144 6  10405316.259 5
  24050082.167    -1822678.382 5  -1420271.900 3
  21832705.335    -9450249.834 8  -7363807.039 9
 91  5  8 20 16  0.0010000  0  6 19  6 11 18 16  2
  21624440.110     4178355.881 7   3255859.699 6
  23393104.695    -7973172.898 6  -6212836.258 3
  23566600.588    -1150146.058 5   -896203.866 3
  23308039.787    13466788.486 6  10493588.374 4
  24056108.896    -1791031.138 5  -1395611.814 5
  21826265.786    -9484087.434 8  -7390173.892 9
 91  5  8 20 16 30.0010000  0  6 19  6 11 18 16  2
  21632898.457     4222804.938 7   3290495.286 7
  23384429.302    -8018793.058 6  -6248384.278 5
  23574264.183    -1109877.875 6   -864826.029 5
  23329642.528    13580310.781 6  10582047.444 4
  24062223.173    -1758885.245 5  -1370563.183 2
  21819888.900    -9517598.537 8  -7416286.346 9
 91  5  8 20 17  0.0010000  0  6 19  6 11 18 16  2
  21641400.569     4267478.661 7   3325305.927 8
  23375757.207    -8064363.808 6  -6283893.792 4
  23582043.193    -1069008.450 6   -832979.697 4
  23351292.333    13694070.824 6  10670691.770 5
  24068442.657    -1726241.856 5  -1345126.914 3
  21813574.085    -9550783.361 8  -7442144.552 9
 91  5  8 20 17 30.0010000  0  6 19  6 11 18 16  2
  21649942.556     4312370.381 7   3360286.438 7
  23367091.394    -8109892.011 6  -6319370.166 5
  23589930.430    -1027545.422 6   -800670.831 5
  23372981.121    13808059.502 6  10759514.241 5
  24074742.797    -1693109.916 5  -1319309.920 3
  21807319.508    -9583648.450 8  -7467753.617 9
 91  5  8 20 18  0.0010000  0  6 19  6 11 18 16  2
  21658527.417     4357486.020 7   3395441.441 8
  23358439.384    -8155372.018 6  -6354808.967 5
  23597938.492     -985484.252 6   -767895.888 5
  23394717.880    13922280.392 6  10848517.666 5
  24081133.782    -1659485.595 5  -1293109.265 2
  21801127.299    -9616188.391 8  -7493109.330 9
 91  5  8 20 18 30.0010000  0  6 19  6 11 18 16  2
  21667152.449     4402823.176 7   3430769.045 8
  23349788.874    -8200806.765 6  -6390212.527 5
  23606054.763     -942828.521 6   -734657.636 4
  23416498.090    14036728.430 6  10937698.087 5
  24087635.070    -1625372.667 5  -1266527.874 3
  21794997.735    -9648406.279 8  -7518214.092 9
 91  5  8 20 19  0.0010000  0  6 19  6 11 18 16  2
  21675823.043     4448378.524 7   3466266.676 8
  23341148.853    -8246200.041 6  -6425583.773 5
  23614285.577     -899582.974 6   -700959.803 5
  23438315.784    14151397.525 6  11027050.742 4
  24094221.812    -1590776.900 5  -1239570.259 2
  21788926.647    -9680306.519 8  -7543071.329 9
 91  5  8 20 19 30.0010000  0  6 19  6 11 18 16  2
  21684534.402     4494159.919 7   3501940.438 9
  23332516.335    -8291544.007 6  -6460916.594 5
  23622625.803     -855740.804 6   -666797.070 5
  23460180.854    14266292.906 6  11116579.730 5
  24100894.601    -1555692.397 6  -1212231.839 4
  21782915.204    -9711880.837 8  -7567674.616 9
 91  5  8 20 20  0.0010000  0  6 19  6 11 18 16  2
  21693291.950     4540168.342 7   3537791.101 9
  23323907.793    -8336838.125 6  -6496210.554 5
  23631083.837     -811302.206 6   -632169.583 6
  23482085.798    14381413.530 6  11206284.228 5
  24107659.422    -1520120.149 5  -1184513.345 2
  21776973.021    -9743128.452 8  -7592023.326 9
 91  5  8 20 20 30.0010000  0  6 19  6 11 18 16  2
  21702098.046     4586403.900 7   3573818.758 8
  23315294.157    -8382082.778 6  -6531465.985 5
  23639652.504     -766269.110 6   -597078.847 5
  23504039.289    14496756.822 6  11296162.219 5
  24114530.061    -1484062.239 5  -1156416.438 3
  21771087.796    -9774050.527 8  -7616118.372 9
 91  5  8 20 21  0.0010000  0  6 19  6 11 18 16  2
  21710928.135     4632863.942 7   3610021.329 9
  23306694.305    -8427280.642 6  -6566684.950 4
  23648334.790     -720644.800 6   -561527.453 5
  23526031.763    14612317.627 6  11386209.709 5
  24121473.555    -1447522.990 5  -1127944.438 4
  21765265.216    -9804650.009 8  -7639962.038 9
 91  5  8 20 21 30.0010000  0  6 19  6 11 18 16  2
  21719809.790     4679548.660 6   3646398.969 9
  23298098.660    -8472431.893 6  -6601867.580 4
  23657129.805     -674430.927 6   -525516.655 6
  23548058.423    14728093.375 6  11476424.676 5
  24128518.976    -1410503.932 5  -1099098.563 2
  21759503.207    -9834926.911 8  -7663554.340 9
 91  5  8 20 22  0.0010000  0  6 19  6 11 18 16  2
  21728742.696     4726456.396 6   3682950.389 9
  23289517.410    -8517538.561 6  -6637015.492 5
  23666033.953     -627630.676 6   -489048.918 6
  23570132.442    14844079.972 6  11566803.955 5
  24135652.834    -1373008.939 5  -1069881.842 4
  21753800.860    -9864883.039 8  -7686896.691 9
 91  5  8 20 22 30.0010000  0  6 19  6 11 18 16  2
  21737709.194     4773588.529 6   3719676.681 9
  23280943.630    -8562600.191 6  -6672128.305 5
  23675047.514     -580244.479 6   -452124.627 6
  23592244.224    14960275.273 6  11657345.836 4
  24142880.540    -1335040.038 5  -1040295.844 3
  21748160.862    -9894518.362 8  -7709989.067 9
 91  5  8 20 23  0.0010000  0  6 19  6 11 18 16  2
  21746718.863     4820945.292 6   3756577.999 9
  23272377.074    -8607616.502 6  -6707205.811 5
  23684182.476     -532273.539 6   -414744.692 6
  23614392.599    15076677.264 6  11748048.780 4
  24150197.573    -1296598.567 5  -1010341.569 2
  21742583.231    -9923832.903 8  -7732831.477 9
 91  5  8 20 23 30.0010000  0  6 19  6 11 18 16  2
  21755770.501     4868527.171 6   3793654.729 9
  23263820.394    -8652586.991 6  -6742247.604 6
  23693419.086     -483718.809 6   -376909.854 6
  23636583.831    15193284.775 6  11838911.863 4
  24157608.140    -1257685.816 5   -980020.131 2
  21737066.450    -9952826.522 8  -7755423.817 9
 91  5  8 20 24  0.0010000  0  6 19  6 11 18 16  2
  21764873.093     4916337.678 6   3830909.617 9
  23255269.718    -8697508.625 6  -6777251.338 4
  23702770.221     -434578.327 6   -338618.600 7
  23658814.048    15310097.972 6  11929935.212 4
  24165092.748    -1218300.826 5   -949330.664 3
  21731609.627    -9981496.621 8  -7777764.060 9
 91  5  8 20 24 30.0010000  0  6 19  6 11 18 16  2
  21774018.560     4964373.329 6   3868339.934 9
  23246734.328    -8742384.881 6  -6812219.718 2
  23712232.567     -384856.772 7   -299874.527 6
  23681078.135    15427110.976 6  12021114.250 5
  24172677.799    -1178448.778 5   -918277.298 4
  21726215.451   -10009846.416 8  -7799854.714 9
 91  5  8 20 25  0.0010000  0  6 19  6 11 18 16  2
  21783199.713     5012635.993 6   3905947.143 9
  23238197.733    -8787214.607 6  -6847151.834 6
  23721804.029     -334554.585 7   -260678.039 6
  23703386.580    15544322.816 6  12112448.211 5
  24180350.084    -1138130.053 5   -886860.243 3
  21720883.048   -10037875.135 8  -7821695.179 9
 91  5  8 20 25 30.0010000  0  6 19  6 11 18 16  2
  21792431.820     5061128.407 6   3943733.387 9
  23229677.926    -8831994.938 6  -6882045.455 5
  23731486.142     -283669.998 7   -221027.733 6
  23725729.211    15661734.440 6  12203937.851 4
  24188113.214    -1097344.247 5   -855079.271 4
  21715608.493   -10065580.629 8  -7843283.776 9
 91  5  8 20 26  0.0010000  0  6 19  6 11 18 16  2
  21801699.596     5109850.664 7   3981698.725 9
  23221164.122    -8876726.235 6  -6916900.854 5
  23741281.857     -232204.817 7   -180925.022 7
  23748102.728    15779342.843 6  12295580.846 4
  24195965.690    -1056093.637 5   -822936.086 3
  21710400.510   -10092963.014 8  -7864620.598 9
 91  5  8 20 26 30.0010000  0  6 19  6 11 18 16  2
  21811019.251     5158808.561 7   4019847.676 7
  23212669.810    -8921402.738 6  -6951713.573 5
  23751184.297     -180155.012 7   -140366.758 6
  23770523.309    15897150.925 6  12387379.411 4
  24203909.588    -1014374.812 5   -790428.056 4
  21705249.171   -10120016.951 8  -7885701.493 9
 91  5  8 20 27  0.0010000  0  6 19  6 11 18 16  2
  21820377.873     5207995.353 7   4058174.987 7
  23204174.590    -8966032.097 6  -6986489.537 5
  23761198.872     -127529.344 7    -99359.763 6
  23792982.263    16015149.398 6  12479326.330 4
  24211925.433     -972197.235 5   -757562.576 4
  21700163.497   -10146750.354 8  -7906532.623 9
 91  5  8 20 27 30.0010000  0  6 19  6 11 18 16  2
  21829781.149     5257417.953 7   4096686.040 7
  23195689.858    -9010606.853 6  -7021222.973 6
  23771326.455      -74322.322 7    -57899.786 6
  23815469.695    16133343.090 5  12571425.364 3
  24220045.315     -929555.606 5   -724335.525 4
  21695136.875   -10173156.709 8  -7927108.911 9
 91  5  8 20 28  0.0010000  0  6 19  6 11 18 16  2
  21839233.322     5307070.442 7   4135376.212 7
  23187217.725    -9055133.625 6  -7055919.030 5
  23781558.373      -20541.946 7    -15993.024 7
  23837999.096    16251722.649 6  12663669.232 3
  24228244.632     -886458.405 5   -690753.501 3
  21690172.009   -10199242.611 8  -7947435.494 9
 91  5  8 20 28 30.0010000  0  6 19  6 11 18 16  2
  21848720.848     5356959.143 7   4174250.451 7
  23178756.673    -9099606.466 6  -7090573.046 4
  23791903.002       33816.057 7     26363.836 6
  23860567.166    16370291.714 6  12756060.754 3
  24236528.198     -842902.375 5   -656813.889 2
  21685270.399   -10225002.419 8  -7967507.991 9
 91  5  8 20 29  0.0010000  0  6 19  6 11 18 16  2
  21858259.346     5407083.098 7   4213308.006 6
  23170301.327    -9144026.086 6  -7125185.592 5
  23802358.561       88749.598 7     69169.173 6
  23883164.325    16489047.115 6  12848597.472 4
  24244914.895     -798889.863 5   -622518.603 4
  21680432.047   -10250437.432 8  -7987327.395 9
 91  5  8 20 29 30.0010000  0  6 19  6 11 18 16  2
  21867842.500     5457440.410 7   4252547.396 6
  23161863.676    -9188394.701 6  -7159758.385 4
  23812919.363      144254.753 7    112419.909 6
  23905798.968    16607984.200 6  12941275.754 4
  24253370.834     -754425.295 5   -587871.069 3
  21675654.265   -10275550.537 8  -8006895.965 9
 91  5  8 20 30  0.0010000  0  6 19  6 11 18 16  2
  21877470.343     5508032.600 7   4291969.802 6
  23153418.224    -9232710.614 6  -7194290.129 4
  23823589.578      200331.446 7    156116.020 6
  23928462.071    16727102.235 6  13034095.011 5
  24261918.823     -709509.150 5   -552871.633 2
  21670936.127   -10300340.021 8  -8026212.372 9
 91  5  8 20 30 30.0010000  0  6 19  6 11 18 16  2
  21887142.545     5558857.362 7   4331573.445 6
  23145001.251    -9276976.918 6  -7228783.211 5
  23834369.503      256975.023 7    200253.863 6
  23951167.160    16846395.775 6  13127051.041 5
  24270549.247     -664146.650 5   -517524.424 4
  21666279.746   -10324809.484 8  -8045279.403 9
 91  5  8 20 31  0.0010000  0  6 19  6 11 18 16  2
  21896860.624     5609916.934 7   4371360.047 5
  23136584.278    -9321190.921 6  -7263235.546 3
  23845257.671      314186.078 7    244833.895 6
  23973901.007    16965865.395 6  13220144.275 4
  24279262.717     -618338.039 5   -481829.570 2
  21661683.621   -10348957.174 9  -8064095.707 9
 91  5  8 20 31 30.0010000  0  6 19  6 11 18 16  2
  21906622.764     5661213.932 7   4411331.662 5
  23128179.887    -9365350.653 6  -7297645.607 5
  23856252.268      371965.238 7    289856.588 6
  23996672.948    17085510.197 6  13313374.005 5
  24288069.126     -572083.302 5   -445787.105 4
  21657150.159   -10372780.975 8  -8082659.634 9
 91  5  8 20 32  0.0010000  0  6 19  6 11 18 16  2
  21916430.171     5712749.755 7   4451489.367 5
  23119795.895    -9409454.771 6  -7332012.335 5
  23867353.869      430311.444 7    335321.156 6
  24019471.867    17205328.859 6  13406739.210 4
  24296956.470     -525383.641 5   -409397.966 2
  21652679.064   -10396280.118 8  -8100970.580 9
 91  5  8 20 32 30.0010000  0  6 19  6 11 18 16  2
  21926274.763     5764523.994 7   4491832.852 5
  23111411.903    -9453503.758 6  -7366336.115 6
  23878564.011      489222.820 7    381226.103 6
  24042303.453    17325318.768 6  13500237.861 4
  24305923.264     -478241.768 5   -372664.218 3
  21648269.115   -10419455.798 8  -8119029.491 9
 91  5  8 20 33  0.0010000  0  6 19  6 11 18 16  2
  21936179.891     5816532.996 6   4532359.279 6
  23103035.693    -9497501.145 6  -7400619.679 6
  23889883.270      548693.709 7    427567.053 5
  24065168.630    17445473.305 6  13593864.771 5
  24314979.997     -430663.018 5   -335590.051 2
  21643918.235   -10442312.077 8  -8136839.508 9
 91  5  8 20 33 30.0010000  0  6 19  6 11 18 16  2
  21946121.018     5868784.005 7   4573074.293 6
  23094681.088    -9541439.929 6  -7434857.568 6
  23901308.363      608729.733 7    474348.349 6
  24088063.176    17565797.531 5  13687623.916 4
  24324118.257     -382642.896 5   -298171.971 3
  21639631.798   -10464842.491 8  -8154395.600 9
 91  5  8 20 34  0.0010000  0  6 19  6 11 18 16  2
  21956106.504     5921271.176 6   4613973.326 6
  23086324.370    -9585325.790 6  -7469054.212 5
  23912839.293      669323.062 7    521563.924 5
  24110991.611    17686282.848 5  13781508.584 3
  24333341.971     -334190.211 5   -260416.826 2
  21635405.320   -10487053.327 8  -8171702.685 9
 91  5  8 20 34 30.0010000  0  6 19  6 11 18 16  2
  21966140.257     5973995.696 6   4655057.332 6
  23077983.236    -9629157.951 6  -7503209.030 5
  23924473.632      730472.478 7    569212.794 5
  24133951.211    17806927.646 5  13875517.531 4
  24342637.650     -285306.447 5   -222325.784 4
  21631239.412   -10508944.112 8  -8188760.369 9
 91  5  8 20 35  0.0010000  0  6 19  6 11 18 16  2
  21976218.386     6026957.789 6   4696326.442 7
  23069649.309    -9672936.206 6  -7537321.841 6
  23936214.697      792176.226 7    617293.646 5
  24156937.493    17927729.733 5  13969649.036 3
  24352024.436     -235993.631 5   -183900.406 4
  21627133.446   -10530515.360 8  -8205569.074 9
 91  5  8 20 35 30.0010000  0  6 19  6 11 18 16  2
  21986342.374     6080158.989 6   4737781.871 7
  23061327.684    -9716659.299 6  -7571391.676 6
  23948061.894      854433.212 7    665805.558 5
  24179960.665    18048687.719 5  14063902.019 3
  24361490.690     -186253.118 5   -145141.780 3
  21623091.941   -10551766.863 8  -8222128.616 9
 91  5  8 20 36  0.0010000  0  6 19  6 11 18 16  2
  21996508.330     6133597.364 6   4779422.112 7
  23053020.734    -9760328.899 6  -7605419.820 6
  23960012.536      917240.004 7    714745.898 5
  24203008.110    18169796.793 6  14158272.731 2
  24371040.880     -136089.401 5   -106053.383 2
  21619105.910   -10572700.334 8  -8238440.356 9
 91  5  8 20 36 30.0010000  0  6 19  6 11 18 16  2
  22006727.055     6187280.498 6   4821253.078 8
  23044725.163    -9803937.577 6  -7639400.504 5
  23972072.277      980601.878 7    764118.795 4
  24226084.923    18291062.112 6  14252765.181 4
  24380665.408      -85497.219 5    -66631.147 4
  21615184.619   -10593309.303 8  -8254499.233 9
 91  5  8 20 37  0.0010000  0  6 19  6 11 18 16  2
  22016996.753     6241230.268 6   4863291.801 8
  23036438.299    -9847463.582 6  -7673316.744 5
  23984240.261     1044538.440 7    813939.498 4
  24249195.625    18412503.308 6  14347394.688 4
  24390376.891      -34457.252 5    -26859.961 2
  21611326.585   -10613572.787 8  -8270288.899 9
 91  5  8 20 37 30.0010000  0  6 19  6 11 18 16  2
  22027302.415     6295421.829 7   4905518.933 8
  23028169.426    -9890931.368 6  -7707187.619 5
  23996506.264     1109022.882 7    864187.098 4
  24272327.616    18534092.762 6  14442139.711 4
  24400172.605       17003.356 5     13239.002 2
  21607534.216   -10633515.938 8  -8285828.959 9
 91  5  8 20 38  0.0010000  0  6 19  6 11 18 16  2
  22037668.333     6349852.754 6   4947932.586 8
  23019908.056    -9934343.608 6  -7741015.211 5
  24008882.901     1174050.810 7    914858.191 5
  24295494.386    18655825.551 6  14536996.422 3
  24410041.471       68879.090 5     53661.430 2
  21603797.898   -10653142.252 8  -8301122.126 9
 91  5  8 20 38 30.0010000  0  6 19  6 11 18 16  2
  22048073.828     6404534.037 7   4990541.321 8
  23011654.766    -9977689.516 6  -7774791.110 5
  24021364.448     1239630.533 7    965959.278 3
  24318683.928    18777709.109 5  14631970.622 4
  24419996.384      121178.321 5     94413.848 1
  21600125.447   -10672441.496 8  -8316160.442 9
 91  5  8 20 39  0.0020000  0  6 19  6 11 18 16  2
  22058526.093     6459461.660 7   5033342.008 8
  23003422.769   -10020976.207 6  -7808520.883 5
  24033945.552     1305756.553 7   1017486.036 5
  24341908.548    18899739.562 5  14727059.276 4
  24430030.734      173894.127 5    135491.349 3
  21596514.145   -10691420.550 8  -8330949.248 9
 91  5  8 20 39 30.0020000  0  6 19  6 11 18 16  2
  22069022.434     6514633.809 7   5076333.237 8
  22995195.550   -10064198.903 6  -7842200.769 5
  24046633.361     1372424.145 7   1069434.776 4
  24365162.254    19021908.097 5  14822255.506 3
  24440133.154      227022.370 5    176890.232 5
  21592964.893   -10710076.480 8  -8345486.274 9
 91  5  8 20 40  0.0020000  0  6 19  6 11 18 16  2
  22079564.634     6570048.324 7   5119513.315 8
  22986976.741   -10107362.914 6  -7875834.953 5
  24059418.909     1439629.074 7   1121802.237 5
  24388431.840    19144211.817 5  14917557.086 3
  24450321.289      280558.850 5    218606.752 2
  21589476.525   -10728415.298 8  -8359776.184 9
 91  5  8 20 40 30.0020000  0  6 19  6 11 18 16  2
  22090163.495     6625711.968 7   5162887.513 7
  22978778.315   -10150461.723 6  -7909418.327 5
  24072311.182     1507375.733 6   1174591.797 5
  24411733.814    19266654.968 5  15012967.294 2
  24460590.690      334506.530 5    260644.155 2
  21586045.393   -10746431.014 8  -8373814.335 9
 91  5  8 20 41  0.0020000  0  6 19  6 11 18 16  2
  22100797.430     6681620.182 7   5206452.288 8
  22970595.193   -10193499.824 7  -7942954.399 5
  24085306.289     1575657.105 6   1227798.056 4
  24435060.951    19389230.996 5  15108481.055 4
  24470938.320      388858.477 5    302996.099 2
  21582677.222   -10764128.880 8  -8387604.812 9
 91  5  8 20 41 30.0020000  0  6 19  6 11 18 16  2
  22111483.839     6737776.313 7   5250210.244 6
  22962415.944   -10236473.503 6  -7976440.274 5
  24098401.823     1644474.675 6   1281422.113 5
  24458415.694    19511940.017 5  15204098.429 4
  24481351.022      443614.982 5    345663.752 2
  21579370.511   -10781506.111 8  -8401145.436 9
 91  5  8 20 42  0.0020000  0  6 19  6 11 18 16  2
  22122217.608     6794180.054 7   5294161.138 7
  22954245.106   -10279382.673 6  -8009875.880 5
  24111598.986     1713825.950 6   1335462.026 4
  24481786.614    19634779.370 5  15299817.367 2
  24491850.346      498773.766 5    388644.868 3
  21576125.259   -10798563.563 8  -8414436.885 9
 91  5  8 20 42 30.0020000  0  6 19  6 11 18 16  2
  22132998.736     6850834.432 7   5338307.330 6
  22946091.946   -10322224.496 6  -8043259.017 5
  24124897.483     1783711.728 6   1389918.452 4
  24505188.106    19757749.872 5  15395638.475 4
  24502428.529      554335.153 5    431939.211 1
  21572942.356   -10815298.899 8  -8427477.341 9
 91  5  8 20 43  0.0020000  0  6 19  6 11 18 16  2
  22143826.055     6907742.266 6   5382651.022 6
  22937950.494   -10364995.931 6  -8076587.318 5
  24138298.796     1854132.165 6   1444791.502 5
  24528612.703    19880851.027 5  15491561.391 2
  24513074.453      610298.869 5    475547.543 2
  21569818.820   -10831710.165 8  -8440265.265 9
 91  5  8 20 43 30.0020000  0  6 19  6 11 18 16  2
  22154702.811     6964899.087 6   5427188.728 6
  22929828.517   -10407701.853 6  -8109864.550 5
  24151796.959     1925079.998 6   1500075.505 4
  24552060.054    20004075.152 5  15587580.121 2
  24523803.719      666657.047 5    519463.226 2
  21566753.445   -10847803.337 8  -8452805.337 9
 91  5  8 20 44  0.0020000  0  6 19  6 11 18 16  2
  22165627.258     7022310.200 6   5471924.594 5
  22921709.228   -10450336.410 6  -8143086.191 6
  24165399.735     1996558.861 6   1555773.280 4
  24575538.310    20127425.809 5  15683697.450 2
  24534598.354      723413.545 5    563689.307 3
  21563756.126   -10863573.197 8  -8465093.473 9
 91  5  8 20 44 30.0020000  0  6 19  6 11 18 16  2
  22176605.347     7079969.521 6   5516853.871 5
  22913616.934   -10492905.410 7  -8176256.751 6
  24179102.361     2068560.229 6   1611878.219 3
  24599032.446    20250894.301 5  15779906.594 3
  24545473.627      780558.987 5    608218.451 3
  21560816.060   -10879026.286 8  -8477134.784 9
 91  5  8 20 45  0.0020000  0  6 19  6 11 18 16  2
  22187622.123     7137876.881 6   5561976.419 5
  22905524.343   -10535408.827 7  -8209376.204 5
  24192902.395     2141081.839 6   1668388.561 3
  24622545.166    20374478.193 5  15876205.671 2
  24556425.645      838089.714 5    653047.844 2
  21557933.860   -10894163.467 8  -8488929.914 9
 91  5  8 20 45 30.0020000  0  6 19  6 11 18 16  2
  22198685.963     7196030.898 6   5607291.174 6
  22897448.522   -10577848.020 7  -8242445.611 5
  24206797.480     2214119.274 6   1725300.852 3
  24646086.364    20498173.352 5  15972591.400 2
  24567441.810      896002.738 5    698174.647 2
  21555114.307   -10908987.002 8  -8500480.658 9
 91  5  8 20 46  0.0020000  0  6 19  6 11 18 16  2
  22209801.978     7254435.848 6   5652801.454 5
  22889387.411   -10620219.015 7  -8275461.874 5
  24220794.788     2287674.213 6   1782616.375 4
  24669647.352    20621980.643 5  16069064.534 2
  24578534.739      954298.566 5    743600.194 2
  21552352.914   -10923494.096 8  -8511784.830 9
 91  5  8 20 46 30.0020000  0  6 19  6 11 18 16  2
  22220960.258     7313090.735 6   5698506.486 5
  22881337.084   -10662522.287 7  -8308425.353 5
  24234896.431     2361743.530 6   1840332.711 3
  24693222.439    20745896.549 5  16165622.273 2
  24589700.209     1012973.560 5    789321.223 2
  21549651.481   -10937686.140 8  -8522843.510 9
 91  5  8 20 47  0.0020000  0  6 19  6 11 18 16  2
  22232171.883     7371995.119 6   5744405.940 5
  22873303.842   -10704758.021 7  -8341336.197 5
  24249088.013     2436324.377 6   1898447.666 3
  24716826.598    20869918.197 5  16262262.416 2
  24600934.327     1072024.231 5    835334.522 2
  21547010.321   -10951564.548 8  -8533657.796 9
 91  5  8 20 47 30.0020000  0  6 19  6 11 18 16  2
  22243430.886     7431147.539 6   5790498.685 6
  22865273.304   -10746927.084 7  -8374195.114 7
  24263373.424     2511413.001 6   1956958.304 2
  24740454.437    20994041.860 5  16358982.054 2
  24612239.503     1131446.962 5    881638.214 2
  21544426.397   -10965131.162 8  -8544229.124 9
 91  5  8 20 48  0.0020000  0  6 19  6 11 18 16  2
  22254733.671     7490557.280 6   5836791.926 6
  22857267.947   -10789020.202 7  -8406994.840 6
  24277763.153     2587016.031 6   2015869.725 3
  24764097.266    21118274.266 5  16455786.429 3
  24623622.019     1191247.674 5    928236.386 3
  21541907.545   -10978377.491 8  -8554550.881 9
 91  5  8 20 48 30.0020000  0  6 19  6 11 18 16  2
  22266084.706     7550222.333 6   5883284.100 6
  22849268.872   -10831038.983 7  -8439736.645 6
  24292246.432     2663128.872 6   2075178.447 2
  24787754.195    21242610.502 5  16552671.682 2
  24635078.889     1251421.649 5    975125.447 3
  21539449.543   -10991305.996 8  -8564624.978 9
 91  5  8 20 49  0.0020000  0  6 19  6 11 18 16  2
  22277489.715     7610127.515 6   5929963.384 6
  22841281.802   -10872998.369 7  -8472432.177 6
  24306823.245     2739733.797 6   2134870.653 3
  24811428.800    21367032.864 5  16649624.061 4
  24646590.920     1311950.795 5   1022291.262 2
  21537045.217   -11003932.789 8  -8574463.970 9
 91  5  8 20 49 30.0020000  0  6 19  6 11 18 16  2
  22288938.489     7670281.788 6   5976836.761 6
  22833314.818   -10914889.425 7  -8505074.453 7
  24321496.278     2816836.762 6   2194950.851 2
  24835123.509    21491547.692 5  16746648.505 3
  24658180.901     1372841.503 5   1069738.847 3
  21534699.942   -11016250.238 8  -8584061.921 9
 91  5  8 20 50  0.0020000  0  6 19  6 11 18 16  2
  22300429.230     7730689.557 6   6023907.661 7
  22825353.540   -10956707.059 7  -8537659.522 6
  24336261.657     2894440.412 6   2255421.238 3
  24858838.285    21616156.726 5  16843746.354 2
  24669841.625     1434095.536 5   1117469.463 2
  21532418.815   -11028254.284 8  -8593415.662 9
 91  5  8 20 50 30.0020000  0  6 19  6 11 18 16  2
  22311973.945     7791349.299 6   6071174.907 7
  22817415.331   -10998452.785 7  -8570188.566 6
  24351123.868     2972540.484 6   2316278.438 3
  24882561.158    21740856.266 5  16940914.724 3
  24681560.511     1495708.163 5   1165479.057 2
  21530190.754   -11039947.692 8  -8602527.347 9
 91  5  8 20 51  0.0020000  0  6 19  6 11 18 16  2
  22323569.022     7852260.176 6   6118637.854 7
  22809484.923   -11040126.927 7  -8602661.816 7
  24366082.614     3051133.046 5   2377519.421 3
  24906311.620    21865642.733 5  17038150.850 4
  24693353.455     1557675.583 5   1213765.568 2
  21528026.857   -11051331.719 9  -8611397.953 9
 91  5  8 20 51 30.0020000  0  6 19  6 11 18 16  2
  22335209.050     7913420.093 6   6166294.855 7
  22801568.300   -11081731.348 7  -8635080.738 6
  24381127.389     3130213.929 5   2439140.851 2
  24930071.976    21990511.290 5  17135450.950 2
  24705214.735     1619992.536 5   1262324.444 2
  21525918.417   -11062409.019 9  -8620029.547 9
 91  5  8 20 52  0.0020000  0  6 19  6 11 18 16  2
  22346889.266     7974831.352 6   6214147.709 7
  22793660.385   -11123263.587 7  -8667443.428 6
  24396272.311     3209782.431 5   2501142.303 3
  24953848.508    22115461.620 5  17232814.752 3
  24717136.287     1682658.175 5   1311155.026 1
  21523868.435   -11073178.650 9  -8628421.404 9
 91  5  8 20 52 30.0020000  0  6 19  6 11 18 16  2
  22358620.750     8036492.154 7   6262195.021 7
  22785768.349   -11164724.585 7  -8699750.606 6
  24411497.870     3289834.738 5   2563520.723 2
  24977642.439    22240489.612 5  17330239.089 3
  24729124.988     1745668.313 5   1360254.072 3
  21521876.318   -11083642.340 8  -8636574.864 9
 91  5  8 20 53  0.0020000  0  6 19  6 11 18 16  2
  22370407.395     8098406.189 6   6310439.655 7
  22777891.897   -11206110.743 7  -8731999.450 6
  24426833.156     3370371.297 5   2626276.462 2
  25001447.450    22365596.431 5  17427724.868 2
  24741181.134     1809023.859 5   1409622.231 3
  21519943.253   -11093797.509 8  -8644487.920 9
 91  5  8 20 53 30.0020000  0  6 19  6 11 18 16  2
  22382231.506     8160571.110 6   6358879.773 6
  22770037.938   -11247423.651 7  -8764191.227 6
  24442241.594     3451387.862 5   2689406.275 2
  25025270.173    22490776.964 5  17525268.019 2
  24753307.447     1872719.530 5   1459255.444 1
  21518070.757   -11103647.266 8  -8652162.997 9
 91  5  8 20 54  0.0020000  0  6 19  6 11 18 16  2
  22394111.073     8222988.113 6   6407516.322 6
  22762188.464   -11288661.479 7  -8796324.491 5
  24457756.443     3532883.283 5   2752909.199 4
  25049106.071    22616030.147 5  17622867.868 1
  24765496.407     1936753.748 5   1509152.370 2
  21516251.904   -11113191.172 8  -8659599.750 9
 91  5  8 20 54 30.0020000  0  6 19  6 11 18 16  2
  22406033.830     8285660.874 6   6456352.167 6
  22754350.698   -11329820.900 7  -8828396.679 6
  24473354.058     3614857.607 5   2816785.239 2
  25072965.946    22741356.660 5  17720524.833 2
  24777745.622     2001126.762 5   1559313.385 4
  21514498.122   -11122426.798 8  -8666796.287 9
 91  5  8 20 55  0.0020000  0  6 19  6 11 18 16  2
  22418009.042     8348585.036 6   6505383.919 5
  22746535.095   -11370905.491 7  -8860410.553 6
  24489038.593     3697304.479 5   2881029.535 2
  25096823.726    22866749.877 5  17818233.749 2
  24790056.001     2065831.113 5   1609732.564 3
  21512797.406   -11131359.152 8  -8673756.502 9
 91  5  8 20 55 30.0020000  0  6 19  6 11 18 16  2
  22430034.912     8411765.475 6   6554615.347 6
  22738730.310   -11411909.778 7  -8892361.853 5
  24504820.273     3780225.876 5   2945643.637 2
  25120698.608    22992211.928 5  17915996.328 3
  24802434.138     2130869.325 5   1660411.873 2
  21511155.131   -11139984.030 8  -8680477.139 9
 91  5  8 20 56  0.0020000  0  6 19  6 11 18 16  2
  22442107.548     8475202.264 6   6604046.552 6
  22730945.000   -11452833.418 7  -8924250.310 6
  24520687.686     3863619.133 5   3010625.371 2
  25144576.771    23117740.519 5  18013810.745 3
  24814871.624     2196238.235 5   1711348.899 4
  21509572.536   -11148301.787 8  -8686958.452 9
 91  5  8 20 56 30.0020000  0  6 19  6 11 18 16  2
  22454224.264     8538897.181 6   6653678.889 5
  22723173.773   -11493673.953 7  -8956074.012 6
  24536650.430     3947483.414 5   3075974.179 3
  25168484.913    23243334.623 5  18111676.278 3
  24827376.869     2261937.136 5   1762543.052 2
  21508047.789   -11156311.808 8  -8693199.980 9
 91  5  8 20 57  0.0020000  0  6 19  6 11 18 16  2
  22466395.546     8602848.567 6   6703511.073 5
  22715415.144   -11534432.519 7  -8987833.850 6
  24552695.015     4031814.268 5   3141686.526 1
  25192394.573    23368990.706 5  18209590.055 2
  24839945.667     2327961.128 5   1813990.510 2
  21506581.796   -11164016.271 8  -8699203.401 9
 91  5  8 20 57 30.0020000  0  6 19  6 11 18 16  2
  22478612.688     8667055.600 6   6753542.465 6
  22707677.805   -11575109.467 7  -9019530.079 6
  24568830.761     4116608.471 5   3207759.968 2
  25216318.001    23494705.018 5  18307549.202 2
  24852561.529     2394306.089 5   1865688.094 3
  21505172.481   -11171416.650 9  -8704969.884 9
 91  5  8 20 58  0.0020000  0  6 19  6 11 18 16  2
  22490891.272     8731517.823 6   6803772.705 6
  22699949.453   -11615704.876 7  -9051162.792 6
  24585056.113     4201862.771 5   3274191.843 2
  25240250.137    23620474.600 5  18405551.432 2
  24865246.651     2460968.271 4   1917632.852 2
  21503824.312   -11178514.362 9  -8710500.513 9
 91  5  8 20 58 30.0020000  0  6 19  6 11 18 16  2
  22503195.962     8796230.209 6   6854197.860 5
  22692238.795   -11656223.228 7  -9082735.448 6
  24601366.325     4287569.116 5   3340975.982 2
  25264198.153    23746291.873 5  18503590.873 1
  24877987.526     2527940.345 4   1969819.046 2
  21502529.210   -11185315.741 9  -8715800.228 9
 91  5  8 20 59  0.0020000  0  6 19  6 11 18 16  2
  22515562.407     8861197.596 6   6904821.730 5
  22684544.016   -11696659.141 7  -9114243.870 6
  24617765.569     4373729.573 5   3408114.064 2
  25288148.280    23872159.233 5  18601669.303 4
  24890802.163     2595224.024 5   2022248.081 3
  21501290.471   -11191816.651 9  -8720865.818 9
 91  5  8 20 59 30.0020000  0  6 19  6 11 18 16  2
  22527971.118     8926422.802 6   6955646.496 4
  22676869.027   -11737009.271 7  -9145685.452 7
  24634244.874     4460344.241 5   3475605.998 2
  25312113.083    23998076.831 5  18699786.893 3
  24903656.360     2662819.535 5   2074920.089 2
  21500111.674   -11198014.804 9  -8725695.492 9
 91  5  8 21  0  0.0020000  0  6 19  6 11 18 16  2
  22540427.188     8991899.865 6   7006667.505 5
  22669203.338   -11777278.646 7  -9177064.097 8
  24650810.191     4547405.006 5   3543445.568 1
  25336078.496    24124036.415 5  18797937.218 2
  24916584.301     2730717.366 5   2127827.639 1
  21498987.758   -11203916.715 9  -8730294.338 9
 91  5  8 21  0 30.0020000  0  6 19  6 11 18 16  2
  22552942.623     9057634.195 6   7057888.975 6
  22661555.030   -11817461.393 7  -9208375.242 7
  24667463.963     4634914.268 5   3611634.660 1
  25360048.098    24250041.276 4  18896122.822 2
  24929556.933     2798920.285 5   2180972.967 3
  21497925.005   -11209517.733 9  -8734658.704 9
 91  5  8 21  1  0.0020000  0  6 19  6 11 18 16  2
  22565495.525     9123623.641 6   7109309.226 6
  22653930.419   -11857558.824 7  -9239619.904 8
  24684201.078     4722867.445 5   3680169.566 2
  25384054.589    24376086.849 4  18994340.153 1
  24942602.698     2867423.803 5   2234352.499 3
  21496913.799   -11214820.799 9  -8738790.904 9
 91  5  8 21  1 30.0020000  0  6 19  6 11 18 16  2
  22578106.902     9189870.436 6   7160930.020 5
  22646314.184   -11897568.453 7  -9270796.150 7
  24701024.536     4811263.662 5   3749049.775 1
  25408036.476    24502172.435 4  19092588.691 2
  24955694.637     2936225.802 5   2287964.660 2
  21495959.848   -11219824.599 8  -8742689.916 9
 91  5  8 21  2  0.0020000  0  6 19  6 11 18 16  2
  22590762.044     9256375.292 6   7212751.897 6
  22638717.441   -11937488.870 7  -9301902.894 8
  24717927.428     4900100.551 5   3818273.292 1
  25432039.373    24628296.099 4  19190866.884 2
  24968833.935     3005324.271 5   2341807.803 2
  21495066.170   -11224529.189 8  -8746355.778 9
 91  5  8 21  2 30.0020000  0  6 19  6 11 18 16  2
  22603462.749     9323136.830 6   7264773.800 6
  22631136.892   -11977321.022 7  -9332940.847 8
  24734913.068     4989374.002 5   3887837.029 1
  25456046.754    24754453.928 4  19289171.689 3
  24982048.496     3074715.350 4   2395878.969 1
  21494225.558   -11228936.867 8  -8749790.283 9
 91  5  8 21  3  0.0020000  0  6 19  6 11 18 16  2
  22616218.317     9390151.780 6   7316993.164 6
  22623574.631   -12017067.182 7  -9363911.797 7
  24751986.850     5079078.377 5   3957736.514 2
  25480056.526    24880640.712 4  19387499.091 3
  24995300.209     3144392.398 4   2450172.963 3
  21493444.295   -11233051.532 8  -8752996.463 9
 91  5  8 21  3 30.0020000  0  6 19  6 11 18 16  2
  22629022.449     9457427.630 6   7369415.808 5
  22616029.750   -12056719.060 7  -9394809.281 8
  24769136.784     5169218.674 4   4027975.745 1
  25504075.302    25006861.337 4  19485852.849 3
  25008618.495     3214360.153 4   2504693.448 3
  21492717.301   -11236866.465 8  -8755969.096 9
 91  5  8 21  4  0.0020000  0  6 19  6 11 18 16  2
  22641875.459     9524961.412 6   7422039.451 6
  22608500.766   -12096278.957 7  -9425635.086 7
  24786373.359     5259788.717 4   4098549.888 1
  25528105.160    25133110.423 4  19584228.818 2
  25021994.034     3284612.165 4   2559435.413 2
  21492048.766   -11240385.134 8  -8758710.867 9
 91  5  8 21  4 30.0020000  0  4 19  6 11  2
  22654770.734     9592752.043 6   7474863.236 5
  22600990.960   -12135747.507 7  -9456389.712 7
  24803694.759     5350784.426 5   4169455.602 1
  21491435.094   -11243609.519 9  -8761223.337 9
 91  5  8 21  5  0.0020000  0  4 19  6 11  2
  22667716.370     9660798.094 6   7527886.049 6
  22593499.442   -12175125.354 7  -9487073.656 6
  24821090.218     5442201.558 5   4240689.721 1
  21490874.174   -11246542.254 9  -8763508.540 9
 91  5  8 21  5 30.0020000  0  4 19  6 11  2
  22680723.466     9729097.758 6   7581106.468 6
  22586017.522   -12214413.272 7  -9517687.523 7
  24838557.328     5534036.029 5   4312249.004 2
  21490376.529   -11249185.621 9  -8765568.265 9
 91  5  8 21  6  0.0020000  0  4 19  6 11  2
  22693759.633     9797657.273 6   7634529.389 5
  22578561.689   -12253604.373 7  -9548225.953 7
  24856116.173     5626291.167 5   4384136.144 2
  21489927.134   -11251534.340 9  -8767398.392 9
 91  5  8 21  6 30.0020000  0  4 19  6 11  2
  22706854.277     9866471.095 6   7688150.470 5
  22571119.939   -12292703.574 7  -9578692.772 8
  24873750.264     5718958.387 5   4456344.351 2
  21489535.010   -11253594.562 9  -8769003.726 9
 91  5  8 21  7  0.0020000  0  4 19  6 11  2
  22719998.077     9935546.372 6   7741975.276 5
  22563698.868   -12331702.671 7  -9609081.577 6
  24891464.102     5812042.108 5   4528877.147 2
  21489198.343   -11255359.787 9  -8770379.182 9
 91  5  8 21  7 30.0020000  0  5 19  6 11 16  2
  22733196.428    10004883.681 6   7796004.265 6
  22556297.009   -12370600.334 7  -9639391.360 6
  24909251.981     5905540.007 5   4601732.681 2
  25117031.846       12040.78914      9379.749 2
  21488918.040   -11256830.067 9  -8771524.813 9
 91  5  8 21  8  0.0020000  0  5 19  6 11 16  2
  22746435.262    10074483.468 6   7850237.792 5
  22548915.515   -12409395.507 7  -9669621.262 7
  24927128.316     5999449.462 5   4674908.849 2
  25130807.606       84464.646 4     65814.046 3
  21488694.084   -11258005.932 9  -8772441.025 9
 91  5  8 21  8 30.0020000  0  5 19  6 11 16  2
  22759732.572    10144336.112 6   7904668.346 5
  22541552.011   -12448096.678 7  -9699777.907 6
  24945075.987     6093758.584 5   4748396.476 2
  25144643.919      157141.564 5    122445.576 2
  21488524.398   -11258897.625 9  -8773135.804 9
 91  5  8 21  9  0.0020000  0  5 19  6 11 16  2
  22773072.426    10214447.503 6   7959300.513 6
  22534204.702   -12486697.092 7  -9729856.056 7
  24963098.014     6188470.417 5   4822197.948 1
  25158519.826      230073.902 5    179276.116
  21488409.889   -11259499.896 9  -8773605.062 9
 91  5  8 21  9 30.0020000  0  5 19  6 11 16  2
  22786464.159    10284819.513 6   8014135.764 5
  22526879.572   -12525193.917 7  -9759853.486 6
  24981193.785     6283584.336 4   4896312.699 2
  25172442.186      303260.549 5    236304.795 2
  21488348.430   -11259811.251 9  -8773847.625 9
 91  5  8 21 10  0.0020000  0  5 19  6 11 16  2
  22799908.348    10355455.858 6   8069176.980 5
  22519570.024   -12563582.940 7  -9789766.913 7
  24999377.086     6379100.714 4   4970741.035 2
  25186429.303      376701.871 5    293531.844 2
  21488344.521   -11259829.642 9  -8773861.925 9
 91  5  8 21 10 30.0020000  0  5 19  6 11 16  2
  22813397.209    10426352.832 6   8124421.294 5
  22512285.972   -12601866.586 7  -9819598.227 7
  25017626.349     6475013.112 4   5045478.000 2
  25200446.086      450391.822 5    350952.712 1
  21488399.995   -11259559.006 9  -8773650.988 9
 91  5  8 21 11  0.0020000  0  5 19  6 11 16  2
  22826939.730    10497507.918 6   8179866.714 4
  22505022.895   -12640046.936 7  -9849349.055 7
  25035946.966     6571315.781 4   5120519.068 2
  25214515.952      524324.442 5    408562.645 2
  21488505.220   -11259002.836 9  -8773217.561 9
 91  5  8 21 11 30.0020000  0  5 19  6 11 16  2
  22840529.925    10568921.528 6   8235513.604 4
  22497780.513   -12678122.604 7  -9879018.312 8
  25054344.033     6668006.032 4   5195862.075 2
  25228636.476      598496.923 5    466359.481 2
  21488662.307   -11258161.650 9  -8772562.032 9
 91  5  8 21 12  0.0020000  0  5 19  6 11 16  2
  22854171.982    10640599.278 6   8291366.291 5
  22490552.511   -12716086.688 7  -9908600.620 8
  25072828.351     6765087.409 4   5271509.903 2
  25242792.983      672911.918 5    524345.275 1
  21488879.667   -11257030.025 8  -8771680.196 9
 91  5  8 21 12 30.0020000  0  5 19  6 11 16  2
  22867853.615    10712531.403 6   8347417.215 4
  22483347.595   -12753948.012 7  -9938102.852 8
  25091363.309     6862547.259 4   5347452.676 2
  25257003.445      747557.178 5    582510.486 1
  21489147.074   -11255618.757 9  -8770580.461 9
 91  5  8 21 13  0.0020000  0  5 19  6 11 16  2
  22881594.597    10784729.428 6   8403675.307 4
  22476162.468   -12791694.284 7  -9967515.450 8
  25109988.223     6960394.055 4   5423696.933 2
  25271250.484      822441.050 5    640861.616 2
  21489472.643   -11253917.293 9  -8769254.588 9
 91  5  8 21 13 30.0020000  0  5 19  6 11 16  2
  22895382.363    10857190.984 6   8460138.756 5
  22469004.930   -12829326.318 7  -9996839.037 8
  25128677.284     7058622.910 4   5500238.896 2
  25285539.193      897558.288 4    699394.608 2
  21489850.684   -11251927.890 9  -8767704.355 9
 91  5  8 21 14  0.0020000  0  5 19  6 11 16  2
  22909224.679    10929909.704 6   8516802.584 5
  22461864.178   -12866849.415 8 -10026077.736 9
  25147442.480     7157224.737 4   5577071.482 2
  25299880.655      972899.449 4    758102.053 1
  21490282.978   -11249657.272 9  -8765934.993 9
 91  5  8 21 14 30.0020000  0  5 19  6 11 16  2
  22923112.557    11002887.216 6   8573668.065 5
  22454744.699   -12904261.312 7 -10055229.779 9
  25166274.842     7256197.803 4   5654193.401 1
  25314251.816     1048463.229 4    816982.976 1
  21490768.060   -11247105.548 9  -8763946.588 9
 91  5  8 21 15  0.0020000  0  5 19  6 11 16  2
  22937048.405    11076125.106 6   8630736.444 5
  22447648.917   -12941559.563 7 -10084293.283 9
  25185183.654     7355540.868 4   5731603.554 2
  25328682.012     1124248.241 4    876036.279 2
  21491307.079   -11244272.116 9  -8761738.672 9
 91  5  8 21 15 30.0020000  0  5 19  6 11 16  2
  22951033.429    11149622.612 6   8688007.118 4
  22440570.812   -12978743.572 7 -10113267.756 9
  25204157.520     7455250.525 4   5809299.424 2
  25343142.816     1200250.087 4    935258.509 1
  21491899.165   -11241157.581 9  -8759311.713 9
 91  5  8 21 16  0.0020000  0  5 19  6 11 16  2
  22965074.205    11223384.477 6   8745483.787 6
  22433518.498   -13015807.736 7 -10142148.846 9
  25223203.333     7555328.289 4   5887282.096 2
  25357650.962     1276470.785 4    994651.323 3
  21492546.411   -11237758.556 9  -8756663.077 9
 91  5  8 21 16 30.0020000  0  5 19  6 11 16  2
  22979160.265    11297399.264 6   8803157.562 4
  22426486.270   -13052762.209 7 -10170944.473 9
  25242319.611     7655760.299 4   5965540.851 1
  25372198.685     1352896.257 4   1054203.639 2
  21493246.427   -11234086.597 9  -8753801.769 9
 91  5  8 21 17  0.0020000  0  5 19  6 11 16  2
  22993289.777    11371675.997 6   8861035.430 4
  22419479.519   -13089596.558 7 -10199646.491 9
  25261492.531     7756552.986 4   6044080.583 2
  25386775.794     1429532.831 4   1113920.458 3
  21493998.618   -11230133.113 9  -8750721.086 9
 91  5  8 21 17 30.0020000  0  5 19  6 11 16  2
  23007470.556    11446209.246 6   8919113.177 6
  22412490.759   -13126314.853 7 -10228258.092 9
  25280738.900     7857698.287 4   6122895.160 1
  25401390.386     1506372.023 4   1173795.171 2
  21494801.451   -11225904.216 9  -8747425.807 9
 91  5  8 21 18  0.0020000  0  5 19  6 11 16  2
  23021709.201    11520998.552 6   8977390.456 5
  22405522.381   -13162916.957 7 -10256779.153 9
  25300050.044     7959192.038 4   6201981.159 2
  25416059.528     1583410.444 4   1233825.109 2
  21495661.258   -11221401.683 9  -8743917.308 9
 91  5  8 21 18 30.0020000  0  5 19  6 11 16  2
  23035984.125    11596050.947 6   9035872.736 5
  22398582.779   -13199394.891 7 -10285203.451 9
  25319430.727     8061038.467 4   6281342.045 2
  25430762.854     1660651.886 5   1294013.240 3
  21496569.943   -11216619.579 9  -8740190.949 9
 91  5  8 21 19  0.0020000  0  5 19  6 11 16  2
  23050318.100    11671361.488 6   9094556.156 5
  22391660.871   -13235752.190 7 -10313533.746 9
  25338881.263     8163229.910 4   6360971.691 2
  25445496.754     1738088.145 5   1354353.186 1
  21497532.567   -11211563.089 9  -8736250.794 9
 91  5  8 21 19 30.0020000  0  4 19  6 11  2
  23064698.842    11746931.897 6   9153442.089 5
  22384770.146   -13271986.094 7 -10341767.896 9
  25358395.056     8265765.002 4   6440869.187 2
  21498547.070   -11206230.747 9  -8732095.691 9
 91  5  8 21 20  0.0020000  0  4 19  6 11  2
  23079132.057    11822762.874 6   9212531.060 4
  22377896.505   -13308094.309 7 -10369904.100 9
  25377969.699     8368642.231 4   6521033.257 1
  21499611.935   -11200622.512 9  -8727725.609 9
 91  5  8 21 20 30.0020000  0  4 19  6 11  2
  23093605.721    11898852.464 6   9271821.528 5
  22371048.045   -13344076.882 7 -10397942.400 9
  25397608.802     8471857.582 4   6601460.843 3
  21500732.256   -11194740.402 9  -8723142.123 9
 91  5  8 21 21  0.0020000  0  4 19  6 11  2
  23108136.064    11975197.534 6   9331311.078 5
  22364225.970   -13379936.717 7 -10425885.061 9
  25417305.770     8575403.814 4   6682146.213 1
  21501902.939   -11188589.178 9  -8718348.925 9
 91  5  8 21 21 30.0020000  0  4 19  6 11  2
  23122713.173    12051800.776 6   9391001.796 4
  22357428.168   -13415669.457 7 -10453728.681 9
  25437088.174     8679281.336 4   6763089.773 1
  21503123.704   -11182166.407 9  -8713344.134 9
 91  5  8 21 22  0.0020000  0  4 19  6 11  2
  23137340.958    12128665.212 6   9450896.068 4
  22350649.561   -13451270.750 7 -10481469.883 8
  25456910.156     8783490.288 4   6844291.549 2
  21504402.316   -11175469.333 9  -8708125.599 9
 91  5  8 21 22 30.0020000  0  4 19  6 11  2
  23152018.196    12205786.502 6   9510990.459 4
  22343900.933   -13486743.745 7 -10509111.092 7
  25476807.365     8888023.286 4   6925745.880 2
  21505726.788   -11168503.590 9  -8702697.710 9
 91  5  8 21 23  0.0020000  0  4 19  6 11  2
  23166741.905    12283159.448 5   9571280.961 5
  22337175.689   -13522092.562 7 -10536655.553 7
  25496757.955     8992872.465 4   7007446.520 2
  21507101.638   -11161274.831 9  -8697064.877 9
 91  5  8 21 23 30.0020000  0  4 19  6 11  2
  23181511.769    12360789.951 6   9631772.152 5
  22330473.828   -13557309.521 7 -10564097.260 7
  25516769.114     9098041.107 4   7089396.191 1
  21508527.757   -11153777.636 9  -8691222.865 9
 91  5  8 21 24  0.0020000  0  4 19  6 11  2
  23196334.717    12438676.588 5   9692462.914 2
  22323795.962   -13592394.902 7 -10591436.439 7
  25536842.920     9203524.628 4   7171591.104 1
  21510006.628   -11146014.023 9  -8685173.261 9
 91  5  8 21 24 30.0020000  0  4 19  6 11  2
  23211202.320    12516816.045 5   9753350.695 5
  22317145.056   -13627350.555 8 -10618674.524 7
  25556970.385     9309316.943 5   7254026.731 1
  21511531.079   -11137987.867 9  -8678919.068 9
 91  5  8 21 25  0.0020000  0  4 19  6 11  2
  23226120.284    12595214.366 5   9814440.180 4
  22310517.253   -13662169.268 8 -10645805.893 6
  25577164.998     9415421.245 4   7336705.431 1
  21513113.081   -11129693.643 9  -8672455.995 9
 91  5  8 21 25 30.0020000  0  4 19  6 11  2
  23241088.034    12673866.586 5   9875727.510 5
  22303915.225   -13696854.692 8 -10672833.403 6
  25597415.680     9521829.690 4   7419621.093 2
  21514740.052   -11121137.129 9  -8665788.548 9
 91  5  8 21 26  0.0020000  0  4 19  6 11  2
  23256098.345    12752775.113 6   9937214.562 4
  22297345.567   -13731402.608 8 -10699753.772 6
  25617719.427     9628542.239 4   7502773.777 1
  21516417.995   -11112316.210 9  -8658915.069 9
 91  5  8 21 26 30.0020000  0  4 19  6 11  2
  23271170.412    12831935.247 6   9998897.670 5
  22290794.511   -13765816.478 8 -10726569.680 7
  25638086.117     9735551.137 4   7586157.302 1
  21518147.189   -11103236.533 9  -8651839.960 9
 91  5  8 21 27  0.0020000  0  4 19  6 11  2
  23286284.743    12911355.262 6  10060783.264 4
  22284274.011   -13800086.595 8 -10753273.586 7
  25658506.780     9842861.972 4   7669776.142 2
  21519923.465   -11093890.328 9  -8644557.169 9
 91  5  8 21 27 30.0020000  0  4 19  6 11  2
  23301442.543    12991034.605 6  10122870.935 5
  22277777.521   -13834211.877 8 -10779864.626 7
  25678986.513     9950471.829 5   7753628.001 1
  21521753.102   -11084278.253 9  -8637067.206 9
 91  5  8 21 28  0.0020000  0  4 19  6 11  2
  23316660.320    13070970.032 6  10185158.159 5
  22271313.996   -13868194.032 8 -10806344.144 8
  25699516.886    10058374.465 4   7837707.986 2
  21523631.601   -11074404.306 9  -8629373.192 9
 91  5  8 21 28 30.0020000  0  4 19  6 11  2
  23331917.342    13151156.319 6  10247640.853 5
  22264870.555   -13902036.711 8 -10832714.985 8
  25720100.343    10166561.905 4   7922009.866 1
  21525560.164   -11064273.870 9  -8621479.308 9
 91  5  8 21 29  0.0020000  0  4 19  6 11  2
  23347230.152    13231595.486 6  10310320.586 4
  22258460.392   -13935736.563 8 -10858974.535 9
  25740750.058    10275033.160 4   8006532.996 2
  21527536.401   -11053885.593 9  -8613384.519 9
 91  5  8 21 29 30.0020000  0  4 19  6 11  2
  23362577.130    13312289.060 6  10373198.572 5
  22252075.410   -13969290.630 8 -10885120.494 9
  25761439.019    10383787.061 4   8091276.308 2
  21529561.202   -11043239.365 9  -8605088.724 9
 91  5  8 21 30  0.0020000  0  5 19  6 11 13  2
  23377983.160    13393239.326 6  10436276.582 5
  22245718.016   -14002694.964 8 -10911149.787 9
  25782189.753    10492823.545 4   8176239.829 1
  24962412.674      -39079.001 4    -30451.350 2
  21531639.052   -11032332.692 9  -8596589.981 9
 91  5  8 21 30 30.0020000  0  5 19  6 11 13  2
  23393436.863    13474442.567 5  10499551.705 5
  22239389.991   -14035951.743 8 -10937064.102 9
  25802990.256    10602135.688 4   8261418.103 2
  24942143.112     -145593.267 5   -113449.331 2
  21533762.779   -11021169.829 9  -8587891.618 9
 91  5  8 21 31  0.0020000  0  5 19  6 11 13  2
  23408938.537    13555900.242 5  10563025.092 5
  22233088.945   -14069058.081 8 -10962861.198 9
  25823845.028    10711722.079 4   8346810.084 2
  24921897.823     -252017.047 5   -196376.717 3
  21535935.383   -11009749.935 9  -8578992.962 9
 91  5  8 21 31 30.0020000  0  5 19  6 11 13  2
  23424483.662    13637611.364 5  10626695.964 4
  22226820.285   -14102012.975 7 -10988540.287 9
  25844742.362    10821579.407 3   8432413.210 2
  24901654.942     -358348.018 5   -279231.921 2
  21538158.942   -10998074.192 9  -8569894.949 9
 91  5  8 21 32  0.0020000  0  5 19  6 11 13  2
  23440083.372    13719583.463 5  10690570.228 4
  22220575.324   -14134807.518 7 -11014094.428 9
  25865705.343    10931712.219 3   8518231.009 1
  24881434.240     -464575.005 5   -362005.991 1
  21540430.768   -10986136.130 9  -8560592.527 9
 91  5  8 21 32 30.0020000  0  5 19  6 11 13  2
  23455731.034    13801812.819 5  10754644.931 5
  22214364.809   -14167443.932 7 -11039525.348 9
  25886707.605    11042113.789 4   8604258.228 3
  24861246.816     -570698.680 5   -444699.626 3
  21542751.455   -10973940.010 9  -8551089.023 9
 91  5  8 21 33  0.0020000  0  5 19  6 11 13  2
  23471430.262    13884297.835 5  10818918.864 4
  22208186.699   -14199921.899 7 -11064832.806 9
  25907765.324    11152780.333 4   8690491.927 1
  24841060.300     -676717.220 5   -527311.312 2
  21545117.129   -10961487.017 9  -8541385.366 9
 91  5  8 21 33 30.0020000  0  4 19  6 13  2
  23487177.164    13967038.513 6  10883391.983 5
  22202030.157   -14232239.398 7 -11090015.228 9
  24820917.234     -782626.896 5   -609838.099 1
  21547538.556   -10948777.583 9  -8531481.877 9
 91  5  8 21 34  0.0020000  0  4 19  6 13  2
  23502964.533    14050039.531 6  10948067.955 2
  22195922.180   -14264390.201 7 -11115067.762 9
  24800786.471     -888419.814 5   -692273.943 2
  21550003.749   -10935807.787 9  -8521375.511 9
 91  5  8 21 34 30.0020000  0  4 19  6 13  2
  23518809.767    14133297.133 6  11012943.870 3
  22189831.007   -14296376.546 7 -11139992.153 9
  24780673.996     -994096.586 4   -774619.616 2
  21552520.506   -10922581.940 9  -8511069.629 9
 91  5  8 21 35  0.0020000  0  4 19  6 13  2
  23534708.661    14216813.036 6  11078021.074 4
  22183777.892   -14328195.276 7 -11164785.920 9
  24760586.701    -1099652.071 4   -856870.402 1
  21555087.922   -10909098.971 9  -8500563.375 9
 91  5  8 21 35 30.0030000  0  4 19  6 13  2
  23550654.027    14300586.293 5  11143298.817 4
  22177751.463   -14359849.400 7 -11189451.421 9
  24740521.292    -1205090.853 4   -939030.730 2
  21557702.107   -10895362.858 9  -8489859.878 9
 91  5  8 21 36  0.0030000  0  4 19  6 13  2
  23566635.059    14384609.540 6  11208771.329 2
  22171761.903   -14391336.484 7 -11213986.763 9
  24720473.278    -1310404.154 4  -1021093.236 1
  21560362.480   -10881376.106 9  -8478961.079 9
 91  5  8 21 36 30.0030000  0  4 19  6 13  2
  23582674.548    14468885.321 6  11274440.623 2
  22165801.135   -14422656.281 7 -11238391.745 9
  24700459.431    -1415592.731 4  -1103058.105 1
  21563072.900   -10867139.291 9  -8467867.433 9
 91  5  8 21 37  0.0030000  0  4 19  6 13  2
  23598758.414    14553405.520 5  11340300.387 5
  22159872.441   -14453814.942 8 -11262671.162 9
  24680466.560    -1520659.944 4  -1184928.828 2
  21565829.180   -10852660.328 9  -8456585.097 9
 91  5  8 21 37 30.0030000  0  4 19  6 13  2
  23614880.950    14638166.488 5  11406347.776 5
  22153973.430   -14484814.606 8 -11286826.687 9
  24660492.604    -1625606.685 4  -1266705.696 2
  21568626.851   -10837943.912 9  -8445117.734 9
 91  5  8 21 38  0.0030000  0  4 19  6 13  2
  23631056.254    14723175.686 5  11472588.577 5
  22148105.585   -14515645.925 8 -11310851.035 9
  24640549.501    -1730422.351 4  -1348380.400 2
  21571476.384   -10822982.769 9  -8433459.673 9
 91  5  8 21 38 30.0030000  0  4 19  6 13  2
  23647278.622    14808431.939 5  11539021.878 5
  22142270.127   -14546307.982 8 -11334743.481 9
  24620633.393    -1835104.795 4  -1429950.976 2
  21574370.573   -10807777.962 9  -8421611.737 9
 91  5  8 21 39  0.0030000  0  4 19  6 13  2
  23663558.262    14893938.219 5  11605650.017 5
  22136468.837   -14576795.781 9 -11358500.146 9
  24600742.169    -1939647.095 4  -1511412.709 2
  21577308.247   -10792327.082 9  -8409572.065 9
 91  5  8 21 39 30.0030000  0  4 19  6 13  2
  23679881.964    14979690.002 5  11672469.456 5
  22130702.326   -14607112.548 9 -11382123.532 8
  24580868.919    -2044050.993 4  -1592766.629 1
  21580294.171   -10776635.433 9  -8397344.782 9
 91  5  8 21 40  0.0030000  0  4 19  6 13  2
  23696239.833    15065695.452 5  11739486.560 4
  22124969.999   -14637248.156 9 -11405605.770 9
  24561023.850    -2148304.554 5  -1674002.914 2
  21583326.565   -10760695.192 9  -8384923.775 9
 91  5  8 21 40 30.0030000  0  4 19  6 13  2
  23712658.271    15151940.605 5  11806690.449 5
  22119265.854   -14667214.238 9 -11428955.900 8
  24541213.875    -2252418.290 5  -1755130.281 2
  21586403.946   -10744519.946 9  -8372319.664 9
 91  5  8 21 41  0.0030000  0  4 19  6 13  2
  23729113.268    15238431.380 5  11874085.716 6
  22113596.174   -14697003.008 9 -11452167.869 8
  24521429.376    -2356382.828 5  -1836141.405 3
  21589528.076   -10728104.885 9  -8359528.675 9
 91  5  8 21 41 30.0030000  0  4 19  6 13  2
  23745620.755    15325170.591 5  11941674.586 5
  22107961.568   -14726610.087 9 -11475238.261 8
  24501680.546    -2460192.239 5  -1917031.607 1
  21592697.489   -10711447.172 9  -8346548.614 9
 91  5  8 21 42  0.0030000  0  4 19  6 13  2
  23762171.083    15412150.140 5  12009450.705 3
  22102361.148   -14756041.196 9 -11498171.540 7
  24481954.488    -2563851.089 5  -1997804.539
  21595912.465   -10694554.920 9  -8333385.793 9
 91  5  8 21 42 30.0030000  0  4 19  6 13  2
  23778767.601    15499375.022 5  12077417.993 5
  22096794.005   -14785289.909 9 -11520962.675 7
  24462247.347    -2667351.140 5  -2078453.735 1
  21599173.300   -10677423.794 9  -8320036.834 9
 91  5  8 21 43  0.0030000  0  4 19  6 13  2
  23795417.779    15586843.111 5  12145574.787 3
  22091262.530   -14814356.183 9 -11543611.659 6
  24442588.141    -2770690.419 5  -2158977.688 2
  21602481.809   -10660055.887 9  -8306503.381 9
 91  5  8 21 43 30.0030000  0  4 19  6 13  2
  23812101.827    15674553.613 5  12213920.472 4
  22085765.851   -14843238.537 8 -11566117.336 7
  24422952.650    -2873866.296 5  -2239374.281 2
  21605828.394   -10642452.310 9  -8292786.273 9
 91  5  8 21 44  0.0030000  0  4 19  6 13  2
  23828838.331    15762502.520 5  12282451.925 3
  22080304.823   -14871939.309 8 -11588481.512 7
  24403359.702    -2976880.036 5  -2319644.561 2
  21609222.043   -10624617.712 9  -8278889.174 9
 91  5  8 21 44 30.0030000  0  4 19  6 13  2
  23845618.914    15850685.820 5  12351166.015 3
  22074878.276   -14900460.523 8 -11610705.783 8
  24383781.465    -3079731.595 5  -2399788.499
  21612658.863   -10606556.344 9  -8264815.358 9
 91  5  8 21 45  0.0030000  0  4 19  6 13  2
  23862445.077    15939105.281 5  12420064.147 5
  22069485.321   -14928798.233 8 -11632787.054 8
  24364239.787    -3182416.119 5  -2479802.271 2
  21616137.651   -10588266.701 9  -8250563.674 9
 91  5  8 21 45 30.0030000  0  4 19  6 13  2
  23879317.693    16027762.651 5  12489147.661 4
  22064127.424   -14956948.514 8 -11654722.290 8
  24344723.603    -3284927.785 5  -2559681.330 2
  21619662.019   -10569747.104 9  -8236132.808 9
 91  5  8 21 46  0.0030000  0  4 19  6 13  2
  23896235.574    16116651.655 5  12558411.638 5
  22058807.900   -14984915.505 8 -11676514.682 9
  24325256.279    -3387269.451 5  -2639427.993 1
  21623228.949   -10551003.751 9  -8221527.595 9
 91  5  8 21 46 30.0030000  0  4 19  6 13  2
  23913190.642    16205774.258 5  12627857.676 5
  22053517.465   -15012695.372 7 -11698161.280 9
  24305809.041    -3489436.195 5  -2719038.282 2
  21626839.346   -10532035.265 9  -8206746.948 9
 91  5  8 21 47  0.0030000  0  4 19  6 13  2
  23930200.870    16295134.329 5  12697488.743 3
  22048271.406   -15040281.916 7 -11719657.236 9
  24286406.476    -3591419.862 5  -2798505.942 2
  21630492.026   -10512837.768 9  -8191787.848 9
 91  5  8 21 47 30.0030000  0  4 19  6 13  2
  23947245.562    16384726.872 5  12767300.951 5
  22043058.310   -15067678.580 7 -11741005.243 9
  24267027.887    -3693222.869 5  -2877832.869 1
  21634189.064   -10493416.992 9  -8176654.761 9
 91  5  8 21 48  0.0030000  0  4 19  6 13  2
  23964341.226    16474552.609 5  12837294.857 4
  22037880.900   -15094882.109 7 -11762202.752 9
  24247695.174    -3794840.185 5  -2957014.997 2
  21637927.477   -10473772.119 9  -8161347.061 9
 91  5  8 21 48 30.0030000  0  4 19  6 13  2
  23981480.062    16564611.079 5  12907470.098 3
  22032742.143   -15121890.447 7 -11783248.170 9
  24228394.536    -3896268.572 5  -3036050.023 2
  21641708.450   -10453903.368 9  -8145864.910 9
 91  5  8 21 49  0.0030000  0  4 19  6 13  2
  23998656.381    16654898.041 5  12977823.412 3
  22027636.680   -15148706.451 7 -11804143.715 9
  24209131.362    -3997509.436 5  -3114938.955 4
  21645531.409   -10433815.534 9  -8130212.046 9
 91  5  8 21 49 30.0030000  0  4 19  6 13  2
  24015885.749    16745423.359 5  13048362.435 3
  22022577.688   -15175317.399 7 -11824879.488 9
  24189902.671    -4098548.914 5  -3193670.881 2
  21649397.836   -10413498.220 9  -8114380.366 9
 91  5  8 21 50  0.0030000  0  4 19  6 13  2
  24033156.491    16836179.133 5  13119081.049 3
  22017546.877   -15201729.077 7 -11845459.972 9
  24170712.370    -4199391.089 5  -3272249.163 4
  21653307.121   -10392959.876 9  -8098376.455 9
 91  5  8 21 50 30.0030000  0  4 19  6 13  2
  24050468.608    16927162.064 5  13189976.647 4
  22012560.722   -15227942.914 7 -11865886.310 9
  24151561.925    -4300036.496 5  -3350674.066 2
  21657256.001   -10372204.599 9  -8082203.497 9
 91  5  8 21 51  0.0030000  0  4 19  6 13  2
  24067825.397    17018373.473 5  13261050.303 4
  22007611.142   -15253955.396 7 -11886155.739 9
  24132444.758    -4400479.729 5  -3428941.451 2
  21661248.035   -10351230.784 9  -8065860.244 9
 91  5  8 21 51 30.0030000  0  4 19  6 13  2
  24085225.341    17109820.372 5  13332307.437 4
  22002699.045   -15279757.037 7 -11906260.876 9
  24113371.059    -4500710.095 5  -3507042.957 2
  21665279.035   -10330031.220 9  -8049341.090 9
 91  5  8 21 52  0.0030000  0  4 19  6 13  2
  24102677.757    17201502.600 5  13403747.982 4
  21997828.323   -15305345.567 7 -11926199.947 9
  24094342.626    -4600724.004 5  -3584975.827 2
  21669357.709   -10308606.446 9  -8032646.438 9
 91  5  8 21 52 30.0030000  0  4 19  6 13  2
  24120159.263    17293413.068 5  13475366.348 4
  21992999.865   -15330726.455 8 -11945977.224 9
  24075347.192    -4700525.648 5  -3662743.287 3
  21673474.460   -10286963.551 9  -8015781.827 9
 91  5  8 21 53  0.0030000  0  4 19  6 13  2
  24137709.104    17385552.170 4  13547162.878 4
  21988207.983   -15355896.730 8 -11965590.386 9
  24056398.803    -4800111.024 5  -3740342.243 1
  21677636.180   -10265102.252 9  -7998747.027 9
 91  5  8 21 53 30.0030000  0  4 19  6 13  2
  24155282.940    17477917.185 5  13619135.456 4
  21983461.664   -15380856.712 8 -11985039.674 9
  24037489.101    -4899478.985 5  -3817771.783 3
  21681838.384   -10243025.345 9  -7981544.225 9
 91  5  8 21 54  0.0030000  0  4 19  6 13  2
  24172902.948    17570513.396 4  13691288.166 2
  21978752.234   -15405598.635 8 -12004319.046 9
  24018625.555    -4998619.957 5  -3895024.399 2
  21686080.742   -10220727.492 9  -7964169.251 9
 91  5  8 21 54 30.0030000  0  4 19  6 13  2
  24190560.719    17663337.783 5  13763618.657 3
  21974087.162   -15430123.391 8 -12023429.190 9
  23999795.287    -5097534.037 5  -3972100.277 2
  21690363.269   -10198211.726 9  -7946624.469 9
 91  5  8 21 55  0.0030000  0  4 19  6 13  2
  24208265.273    17756380.840 5  13836119.545 3
  21969457.166   -15454438.280 8 -12042375.805 9
  23981012.693    -5196227.441 5  -4049004.200 3
  21694688.376   -10175487.902 9  -7928917.576 9
 91  5  8 21 55 30.0030000  0  4 19  6 13  2
  24226025.267    17849653.076 5  13908799.497 2
  21964874.529   -15478530.412 9 -12061148.850 9
  23962278.959    -5294685.785 5  -4125724.996 3
  21699055.764   -10152545.659 9  -7911040.477 9
 91  5  8 21 56  0.0030000  0  4 19  6 13  2
  24243800.268    17943152.087 5  13981655.672 3
  21960330.580   -15502399.873 9 -12079748.374 9
  23943581.208    -5392907.838 5  -4202261.644 1
  21703461.804   -10129386.959 9  -7892994.714 9
 91  5  8 21 56 30.0030000  0  4 19  6 13  2
  24261649.904    18036879.594 5  14054689.872 3
  21955833.694   -15526042.232 9 -12098170.942 9
  23924942.508    -5490888.270 5  -4278610.021 3
  21707911.330   -10106009.948 9  -7874778.829 9
 91  5  8 21 57  0.0030000  0  4 19  6 13  2
  24279517.531    18130832.901 5  14127900.018 2
  21951374.884   -15549457.530 9 -12116416.579 9
  23906340.681    -5588625.346 5  -4354768.798 2
  21712400.416   -10082417.368 9  -7856394.992 9
 91  5  8 21 57 30.0030000  0  4 19  6 13  2
  24297444.227    18225006.364 5  14201281.745 4
  21946963.137   -15572649.508 9 -12134488.201 9
  23887793.717    -5686122.033 5  -4430740.267 2
  21716928.190   -10058614.984 9  -7837847.637 9
 91  5  8 21 58  0.0030000  0  4 19  6 13  2
  24315407.202    18319401.996 5  14274836.590 5
  21942594.266   -15595614.016 9 -12152382.569 9
  23869283.643    -5783372.936 5  -4506520.174 2
  21721498.227   -10034600.750 9  -7819135.221 9
 91  5  8 21 58 30.0030000  0  4 19  6 13  2
  24333409.422    18414020.450 5  14348565.020 4
  21938267.048   -15618348.027 9 -12170097.345 9
  23850825.413    -5880373.467 6  -4582105.023 2
  21726110.529   -10010374.174 9  -7800257.354 9
 91  5  8 21 59  0.0030000  0  4 19  6 13  2
  24351460.242    18508862.783 5  14422467.929 4
  21933985.410   -15640847.731 9 -12187629.530 9
  23832412.764    -5977118.572 5  -4657490.884 3
  21730759.407    -9985933.986 9  -7781213.036 9
 91  5  8 21 59 30.0030000  0  4 19  6 13  2
  24369552.715    18603932.373 5  14496548.414 2
  21929749.056   -15663107.318 9 -12204974.617 9
  23814054.681    -6073601.514 5  -4732672.405 2
  21735452.067    -9961276.762 9  -7761999.604 9
 91  5  8 22  0  0.0030000  0  4 19  6 13  2
  24387686.859    18699219.924 5  14570798.244 2
  21925558.857   -15685133.313 9 -12222137.679 9
  23795742.143    -6169827.396 6  -4807653.609 2
  21740183.990    -9936411.477 9  -7742624.040 9
 91  5  8 22  0 30.0030000  0  4 19  6 13  2
  24405867.176    18794727.674 5  14645219.624 3
  21921415.722   -15706921.593 9 -12239115.526 9
  23777480.002    -6265790.954 5  -4882430.456 2
  21744954.880    -9911336.067 9  -7723084.748 9
 91  5  8 22  1  0.0030000  0  4 19  6 13  2
  24424070.266    18890458.930 5  14719815.202 3
  21917310.366   -15728466.021 9 -12255903.353 9
  23759267.297    -6361484.722 5  -4956997.060 2
  21749769.848    -9886047.306 9  -7703379.206 9
 91  5  8 22  1 30.0030000  0  4 19  6 13  2
  24442333.629    18986404.672 5  14794578.361 3
  21913259.263   -15749772.917 9 -12272506.096 9
  23741104.081    -6456914.462 5  -5031357.914 3
  21754617.187    -9860553.548 9  -7683513.933 9
 91  5  8 22  2  0.0030000  0  4 19  6 13  2
  24460636.849    19082572.380 5  14869514.005 4
  21909249.238   -15770832.130 8 -12288915.832 9
  23723002.010    -6552068.935 5  -5105504.320 2
  21759512.200    -9834847.026 9  -7663482.875 9
 91  5  8 22  2 30.0030000  0  4 19  6 13  2
  24478978.755    19178953.027 5  14944615.599 4
  21905288.091   -15791650.838 8 -12305138.160 9
  23704946.409    -6646953.833 5  -5179440.588 3
  21764442.288    -9808937.603 9  -7643293.706 9
 91  5  8 22  3  0.0030000  0  4 19  6 13  2
  24497355.736    19275552.740 5  15019887.885 3
  21901376.398   -15812220.131 8 -12321166.134 9
  23686939.669    -6741558.895 5  -5253158.873 3
  21769410.749    -9782818.690 9  -7622941.306 9
 91  5  8 22  3 30.0030000  0  4 19  6 13  2
  24515777.373    19372367.967 5  15095328.584 3
  21897509.063   -15832540.971 8 -12337000.514 9
  23668996.186    -6835884.220 6  -5326659.181 4
  21774421.474    -9756493.521 9  -7602428.169 9
 91  5  8 22  4  0.0030000  0  4 19  6 13  2
  24534248.201    19469397.791 5  15170936.027 3
  21893688.809   -15852611.562 8 -12352639.898 9
  23651097.986    -6929927.050 6  -5399939.369 1
  21779469.089    -9729962.914 9  -7581754.961 9
 91  5  8 22  4 30.0030000  0  4 19  6 13  2
  24552755.588    19566643.851 5  15246711.943 2
  21889915.932   -15872427.858 8 -12368081.128 9
  23633253.743    -7023681.639 6  -5472994.988 2
  21784557.171    -9703224.520 9  -7560919.837 9
 91  5  8 22  5  0.0030000  0  4 19  6 13  2
  24571296.846    19664101.476 5  15322653.215 2
  21886194.307   -15891991.826 8 -12383325.743 9
  23615472.756    -7117149.449 6  -5545827.081 2
  21789682.719    -9676283.070 9  -7539926.493 9
 91  5  8 22  5 30.0030000  0  4 19  6 13  2
  24589887.575    19761766.754 5  15398755.794 4
  21882520.041   -15911304.828 8 -12398374.798 9
  23597737.018    -7210330.938 6  -5618436.123 2
  21794848.734    -9649142.488 9  -7518777.977 9
 91  5  8 22  6  0.0030000  0  4 19  6 13  2
  24608514.286    19859640.754 4  15475021.008 2
  21878892.263   -15930362.757 8 -12413225.099 9
  23580059.773    -7303220.535 6  -5690817.718 2
  21800052.843    -9621801.109 9  -7497472.998 9
 91  5  8 22  6 30.0030000  0  4 19  6 13  2
  24627167.662    19957721.870 4  15551447.619 3
  21875312.735   -15949165.140 8 -12427876.264 9
  23562436.170    -7395816.553 6  -5762970.549 3
  21805293.510    -9594260.745 9  -7476012.960 9
 91  5  8 22  7  0.0030000  0  4 19  6 13  2
  24645869.619    20056014.719 4  15628039.697 2
  21871785.383   -15967704.872 8 -12442322.767 9
  23544868.634    -7488111.114 6  -5834888.473 3
  21810573.753    -9566516.823 9  -7454394.309 9
 91  5  8 22  7 30.0030000  0  4 19  6 13  2
  24664619.843    20154515.993 4  15704793.690 2
  21868306.595   -15985982.401 8 -12456564.953 9
  23527371.842    -7580103.643 6  -5906571.075 2
  21815888.479    -9538571.692 9  -7432618.862 9
 91  5  8 22  8  0.0030000  0  4 19  6 13  2
  24683409.923    20253216.140 4  15781703.112 1
  21864878.465   -16004004.448 8 -12470608.076 9
  23509920.019    -7671800.181 6  -5978023.035 4
  21821243.061    -9510434.634 9  -7410693.861 9
 91  5  8 22  8 30.0030000  0  3  6 13  2
  21861501.289   -16021761.905 8 -12484445.004 9
  23492531.156    -7763190.247 6  -6049236.221 3
  21826638.738    -9482099.221 9  -7388614.307 9
 91  5  8 22  9  0.0030000  0  3  6 13  2
  21858171.212   -16039250.505 8 -12498072.439 8
  23475196.860    -7854268.107 6  -6120206.122 3
  21832065.878    -9453563.365 9  -7366378.556 9
 91  5  8 22  9 30.0030000  0  3  6 13  2
  21854893.276   -16056474.701 8 -12511493.836 9
  23457919.818    -7945038.066 6  -6190936.093 2
  21837533.485    -9424833.870 9  -7343991.920 9
 91  5  8 22 10  0.0030000  0  3  6 13  2
  21851666.905   -16073426.724 8 -12524703.157 9
  23440708.442    -8035490.671 6  -6261418.822 3
  21843039.186    -9395905.092 9  -7321449.992 9
 91  5  8 22 10 30.0030000  0  3  6 13  2
  21848490.599   -16090105.980 8 -12537699.929 9
  23423555.506    -8125624.289 6  -6331652.944 2
  21848582.038    -9366779.249 8  -7298754.506 9
 91  5  8 22 11  0.0030000  0  3  6 13  2
  21845370.971   -16106512.501 8 -12550484.174 9
  23406466.734    -8215438.892 6  -6401638.530 3
  21854162.076    -9337458.479 8  -7275907.140 9
 91  5  8 22 11 30.0030000  0  3  6 13  2
  21842306.486   -16122633.679 8 -12563046.086 9
  23389437.922    -8304920.420 6  -6471364.504 3
  21859778.098    -9307932.714 8  -7252900.023 9
 91  5  8 22 12  0.0030000  0  3  6 13  2
  21839287.877   -16138472.117 8 -12575387.683 8
  23372469.383    -8394070.183 6  -6540832.044 2
  21865434.568    -9278206.964 8  -7229737.086 9
 91  5  8 22 12 30.0030000  0  3  6 13  2
  21836331.322   -16154026.830 8 -12587508.196 9
  23355576.071    -8482886.245 6  -6610039.537 3
  21871127.929    -9248282.793 8  -7206419.530 9
 91  5  8 22 13  0.0030000  0  3  6 13  2
  21833424.831   -16169299.741 8 -12599409.113 9
  23338734.325    -8571369.932 6  -6678988.048 3
  21876860.866    -9218164.354 8  -7182950.606 9
 91  5  8 22 13 30.0030000  0  3  6 13  2
  21830571.110   -16184283.779 8 -12611084.955 9
  23321963.636    -8659513.704 6  -6747671.665 4
  21882629.175    -9187846.776 9  -7159326.503 9
 91  5  8 22 14  0.0030000  0  3  6 13  2
  21827776.440   -16198978.373 8 -12622535.243 9
  23305254.407    -8747315.646 6  -6816088.940 2
  21888438.545    -9157331.776 9  -7135548.576 9
 91  5  8 22 14 30.0030000  0  3  6 13  2
  21825035.744   -16213386.998 8 -12633762.711 9
  23288609.639    -8834778.645 6  -6884242.141 3
  21894281.209    -9126625.382 8  -7111621.504 9
 91  5  8 22 15  0.0030000  0  3  6 13  2
  21822346.002   -16227502.860 8 -12644762.053 9
  23272029.611    -8921894.586 6  -6952124.832 4
  21900164.323    -9095722.980 8  -7087541.703 9
 91  5  8 22 15 30.0030000  0  3  6 13  2
  21819718.924   -16241319.645 8 -12655528.344 9
  23255520.344    -9008656.263 6  -7019731.503 4
  21906078.341    -9064620.644 8  -7063306.104 9
 91  5  8 22 16  0.0030000  0  4 19  6 13  2
  24989173.650       11897.83715      9246.829 5
  21817146.099   -16254841.219 8 -12666064.600 9
  23239076.114    -9095066.743 6  -7087064.519 3
  21912034.607    -9033324.772 8  -7038919.701 9
 91  5  8 22 16 30.0030000  0  3  6 13  2
  21814630.249   -16268065.233 8 -12676368.990 9
  23222701.161    -9181123.061 6  -7154121.572 3
  21918028.059    -9001835.118 8  -7014382.299 9
 91  5  8 22 17  0.0030000  0  3  6 13  2
  21812168.058   -16280988.143 8 -12686438.755 9
  23206393.043    -9266820.673 6  -7220899.093 4
  21924057.789    -8970150.600 8  -6989693.054 9
 91  5  8 22 17 30.0030000  0  3  6 13  2
  21809770.904   -16293608.507 8 -12696272.769 9
  23190156.296    -9352157.516 6  -7287395.483 5
  21930122.892    -8938272.012 8  -6964852.587 9
 91  5  8 22 18  0.0030000  0  3  6 13  2
  21807425.629   -16305921.332 8 -12705867.151 9
  23173985.790    -9437127.583 6  -7353606.127 2
  21936227.275    -8906196.765 8  -6939858.875 9
 91  5  8 22 18 30.0030000  0  3  6 13  2
  21805138.517   -16317928.872 8 -12715223.631 9
  23157882.729    -9521732.214 6  -7419532.000 2
  21942367.622    -8873929.520 8  -6914715.558 9
 91  5  8 22 19  0.0030000  0  3  6 13  2
  21802915.254   -16329627.003 8 -12724339.029 9
  23141852.837    -9605966.586 6  -7485169.345 4
  21948542.434    -8841468.330 8  -6889421.108 9
 91  5  8 22 19 30.0030000  0  4  6 15 13  2
  21800745.355   -16341019.785 7 -12733216.471 9
  24911318.160        3586.089 4      2794.476 3
  23125895.782    -9689833.882 6  -7550520.662 3
  21954757.731    -8808819.493 8  -6863980.440 9
 91  5  8 22 20  0.0030000  0  4  6 15 13  2
  21798636.025   -16352100.998 8 -12741851.145 9
  24912608.464       10328.350 4      8048.322 2
  23110006.172    -9773327.439 6  -7615580.792 3
  21961006.305    -8775978.926 8  -6838390.374 9
 91  5  8 22 20 30.0030000  0  4  6 15 13  2
  21796586.043   -16362869.556 8 -12750242.188 9
  24913990.801       17596.755 5     13712.106 2
  23094191.528    -9856445.898 6  -7680348.619 5
  21967291.768    -8742948.374 8  -6812652.262 9
 91  5  8 22 21  0.0030000  0  4  6 15 13  2
  21794598.707   -16373324.374 8 -12758388.764 9
  24915469.078       25391.488 5     19786.079 1
  23078444.923    -9939186.350 6  -7744821.899 4
  21973612.883    -8709728.589 8  -6786766.699 9
 91  5  8 22 21 30.0030000  0  4  6 15 13  2
  21792669.254   -16383460.082 8 -12766286.672 9
  24917057.676       33716.799 5     26273.406 2
  23062772.080   -10021543.043 6  -7808996.179 4
  21979971.777    -8676316.707 9  -6760731.445 9
 91  5  8 22 22  0.0030000  0  4  6 15 13  2
  21790799.743   -16393280.568 8 -12773938.965 9
  24918738.621       42567.794 5     33170.401 1
  23047172.981   -10103519.473 6  -7872874.139 5
  21986366.357    -8642718.913 9  -6734551.329 9
 91  5  8 22 22 30.0030000  0  4  6 15 13  2
  21788993.191   -16402783.335 8 -12781343.670 9
  24920516.990       51946.838 5     40478.842 1
  23031645.515   -10185112.012 6  -7936452.968 5
  21992795.104    -8608934.949 8  -6708226.138 9
 91  5  8 22 23  0.0030000  0  4  6 15 13  2
  21787245.412   -16411968.885 8 -12788501.200 9
  24922408.681       61851.363 5     48196.713 1
  23016191.829   -10266320.885 6  -7999732.368 3
  21999257.723    -8574968.317 8  -6681758.606 9
 91  5  8 22 23 30.0030000  0  4  6 15 13  2
  21785558.465   -16420832.406 8 -12795407.791 9
  24924399.890       72285.956 5     56327.709 2
  23000813.668   -10347140.010 6  -8062708.066 4
  22005755.434    -8540815.490 8  -6655146.007 9
 91  5  8 22 24  0.0030000  0  4  6 15 13  2
  21783932.105   -16429374.652 8 -12802064.055 9
  24926485.558       83248.449 5     64870.002 2
  22985509.565   -10427569.319 6  -8125380.492 3
  22012290.313    -8506479.377 8  -6628390.583 9
 91  5  8 22 24 30.0030000  0  4  6 15 13  2
  21782368.687   -16437593.809 8 -12808468.551 9
  24928671.634       94739.470 5     73824.153 2
  22970274.112   -10507606.922 7  -8187747.205 4
  22018857.860    -8471961.123 8  -6601493.229 9
 91  5  8 22 25  0.0030000  0  4  6 15 13  2
  21780865.822   -16445495.796 8 -12814625.914 9
  24930953.058      106752.282 5     83184.865 2
  22955118.999   -10587257.734 6  -8249812.530 4
  22025459.295    -8437268.415 8  -6574459.938 9
 91  5  8 22 25 30.0030000  0  4  6 15 13  2
  21779420.822   -16453069.155 7 -12820527.196 9
  24933344.506      119297.209 5     92960.214
  22940037.038   -10666509.512 6  -8311566.926 5
  22032099.992    -8402392.661 8  -6547284.016 9
 91  5  8 22 26  0.0030000  0  4  6 15 13  2
  21778045.675   -16460312.688 8 -12826171.478 9
  24935835.175      132374.580 5    103150.453 3
  22925031.822   -10745360.853 6  -8373009.282 5
  22038770.076    -8367334.160 8  -6519965.697 9
 91  5  8 22 26 30.0030000  0  4  6 15 13  2
  21776726.578   -16467228.067 8 -12831560.056 9
  24938418.191      145981.438 5    113753.247 1
  22910105.464   -10823812.535 6  -8434140.208 5
  22045475.235    -8332097.053 8  -6492508.206 9
 91  5  8 22 27  0.0030000  0  4  6 15 13  2
  21775477.352   -16473813.238 7 -12836691.332 9
  24941112.435      160118.331 5    124769.172 2
  22895251.944   -10901861.850 7  -8494957.629 5
  22052214.562    -8296681.607 8  -6464911.760 9
 91  5  8 22 27 30.0030000  0  4  6 15 13  2
  21774286.881   -16480065.567 8 -12841563.248 9
  24943900.491      174786.932 5    136199.297 2
  22880475.780   -10979506.067 7  -8555459.377 5
  22058988.684    -8261087.422 8  -6437176.028 9
 91  5  8 22 28  0.0030000  0  4  6 15 13  2
  21773161.760   -16485978.339 8 -12846170.593 9
  24946788.991      189992.927 5    148048.271 2
  22865779.957   -11056737.362 7  -8615639.399 5
  22065795.769    -8225310.285 8  -6409297.745 9
 91  5  8 22 28 30.0030000  0  4  6 15 13  2
  21772099.287   -16491555.525 8 -12850516.435 9
  24949789.312      205730.740 5    160311.532 1
  22851160.862   -11133559.221 7  -8675500.371 4
  22072637.633    -8189356.168 8  -6381281.546 9
 91  5  8 22 29  0.0030000  0  4  6 15 13  2
  21771102.181   -16496802.670 8 -12854605.095 9
  24952888.278      221993.713 5    172984.125 1
  22836617.031   -11209976.544 7  -8735046.116 2
  22079510.681    -8153232.268 8  -6353133.044 9
 91  5  8 22 29 30.0030000  0  4  6 15 13  2
  21770164.127   -16501712.906 8 -12858431.230 9
  24956075.369      238787.312 5    186070.027 2
  22822155.355   -11285982.182 7  -8794271.068 4
  22086417.896    -8116934.372 8  -6324848.951 9
 91  5  8 22 30  0.0040000  0  4  6 15 13  2
  21769296.523   -16506288.763 8 -12861996.804 9
  24959375.784      256108.703 5    199567.262 1
  22807770.114   -11361580.414 7  -8853178.565 4
  22093358.095    -8080465.794 8  -6296431.880 9
 91  5  8 22 30 30.0040000  0  4  6 15 13  2
  21768488.595   -16510523.108 8 -12865296.276 9
  24962770.636      273962.437 5    213479.298 1
  22793461.913   -11436758.498 7  -8911758.676 3
  22100331.254    -8043824.128 8  -6267879.917 9
 91  5  8 22 31  0.0040000  0  4  6 15 13  2
  21767751.097   -16514413.676 8 -12868327.870 9
  24966264.711      292350.134 5    227807.504 2
  22779237.961   -11511516.327 7  -8970011.318 4
  22107335.911    -8007008.076 8  -6239192.093 9
 91  5  8 22 31 30.0040000  0  4  6 15 13  2
  21767074.168   -16517956.872 8 -12871088.774 9
  24969872.421      311273.905 5    242553.366 2
  22765090.755   -11585849.642 7  -9027933.173 4
  22114377.441    -7970016.061 8  -6210367.130 9
 91  5  8 22 32  0.0040000  0  4  6 15 13  2
  21766463.498   -16521163.234 8 -12873587.211 9
  24973570.053      330721.536 5    257707.437 1
  22751023.594   -11659768.076 7  -9085531.727 4
  22121447.745    -7932860.860 8  -6181415.021 9
 91  5  8 22 32 30.0040000  0  4  6 15 13  2
  21765920.272   -16524022.636 8 -12875815.296 9
  24977369.925      350702.274 5    273276.962 1
  22737038.571   -11733261.141 7  -9142798.860 4
  22128550.420    -7895534.747 8  -6152329.723 9
 91  5  8 22 33  0.0040000  0  4  6 15 13  2
  21765442.398   -16526540.676 8 -12877777.377 9
  24981281.915      371208.991 5    289256.280 1
  22723133.609   -11806334.363 7  -9199738.815 4
  22135684.279    -7858045.266 8  -6123117.131 9
 91  5  8 22 33 30.0040000  0  4  6 15 13  2
  21765028.392   -16528707.765 8 -12879465.982 9
  24985279.358      392249.706 5    305651.692 2
  22709310.471   -11878977.290 7  -9256343.501 4
  22142849.617    -7820384.823 8  -6093771.331 9
 91  5  8 22 34  0.0040000  0  4  6 15 13  2
  21764684.814   -16530524.883 8 -12880881.888 9
  24989384.714      413821.859 5    322461.207 2
  22695568.582   -11951190.938 7  -9312613.685 5
  22150048.233    -7782556.564 8  -6064294.757 8
 91  5  8 22 34 30.0040000  0  4  6 15 13  2
  21764402.714   -16531990.669 8 -12882024.027 9
  24993594.701      435925.190 5    339684.730 2
  22681905.847   -12022973.378 7  -9368547.868 5
  22157278.033    -7744560.928 8  -6034687.773 8
 91  5  8 22 35  0.0040000  0  4  6 15 13  2
  21764192.265   -16533103.549 8 -12882891.186 9
  24997903.020      458559.806 5    357322.142 2
  22668331.549   -12094322.897 7  -9424144.688 4
  22164542.314    -7706398.410 8  -6004950.742 9
 91  5  8 22 35 30.0040000  0  4  6 15 13  2
  21764046.869   -16533866.702 8 -12883485.815 9
  25002311.451      481721.549 5    375370.318 2
  22654832.479   -12165241.509 7  -9479405.753 5
  22171831.166    -7668074.494 8  -5975087.953 8
 91  5  8 22 36  0.0040000  0  4  6 15 13  2
  21763970.420   -16534272.169 8 -12883801.733 9
  25006819.733      505416.548 5    393834.037 2
  22641423.366   -12235720.940 7  -9534324.574 5
  22179157.483    -7629583.469 8  -5945094.936 8
 91  5  8 22 36 30.0040000  0  4  6 15 13  2
  21763963.230   -16534316.248 8 -12883836.086 9
  25011423.658      529647.152 5    412715.087 3
  22628097.594   -12305757.183 7  -9588898.072 4
  22186515.297    -7590923.673 8  -5914970.420 8
 91  5  8 22 37  0.0040000  0  4  6 15 13  2
  21764020.781   -16533998.511 8 -12883588.450 9
  25016137.887      554411.523 4    432012.025 3
  22614852.163   -12375349.251 7  -9643125.459 5
  22193901.276    -7552096.722 7  -5884715.644 8
 91  5  8 22 37 30.0040000  0  4  6 15 13  2
  21764151.797   -16533317.565 8 -12883057.812 9
  25020958.545      579710.415 4    451725.535 2
  22601693.966   -12444495.745 7  -9697005.653 4
  22201322.644    -7513103.186 8  -5854331.071 8
 91  5  8 22 38  0.0040000  0  4  6 15 13  2
  21764353.260   -16532262.684 8 -12882235.811 9
  25025871.845      605552.315 4    471862.123 3
  22588623.317   -12513185.012 7  -9750529.558 5
  22208775.179    -7473934.241 8  -5823809.808 8
 91  5  8 22 38 30.0040000  0  4  6 15 13  2
  21764625.763   -16530829.018 8 -12881118.646 9
  25030888.277      631940.474 4    492424.414 1
  22575640.215   -12581412.149 7  -9803693.366 3
  22216264.899    -7434586.746 8  -5793149.425 9
 91  5  8 22 39  0.0040000  0  4  6 15 13  2
  21764969.619   -16529019.436 8 -12879708.565 9
  25036014.435      658870.487 4    513408.875 1
  22562745.237   -12649179.877 7  -9856499.189 6
  22223783.989    -7395066.191 8  -5762354.181 8
 91  5  8 22 39 30.0040000  0  4  6 15 13  2
  21765386.645   -16526838.600 8 -12878009.194 9
  25041241.910      686336.513 5    534810.999 2
  22549935.713   -12716492.200 7  -9908950.155 5
  22231337.560    -7355378.625 7  -5731428.801 7
 91  5  8 22 40  0.0040000  0  4  6 15 13  2
  21765869.894   -16524280.299 8 -12876015.706 9
  25046568.030      714342.491 4    556633.919 2
  22537214.312   -12783342.792 7  -9961041.324 5
  22238923.815    -7315520.168 7  -5700370.249 8
 91  5  8 22 40 30.0040000  0  4  6 15 13  2
  21766429.313   -16521348.445 8 -12873731.126 9
  25051997.264      742882.904 4    578873.218 2
  22524579.255   -12849735.117 7 -10012775.431 6
  22246537.049    -7275496.961 8  -5669183.321 7
 91  5  8 22 41  0.0040000  0  4  6 15 13  2
  21767057.381   -16518041.799 8 -12871154.506 9
  25057540.431      771957.784 4    601529.028 1
  22512034.451   -12915667.330 7 -10064150.990 5
  22254187.154    -7235309.504 7  -5637868.418 8
 91  5  8 22 41 30.0040000  0  4  6 15 13  2
  21767760.398   -16514355.510 8 -12868282.058 9
  25063173.221      801569.316 4    624602.982 2
  22499576.863   -12981135.065 7 -10115164.632 6
  22261863.627    -7194954.834 7  -5606423.217 7
 91  5  8 22 42  0.0040000  0  4  6 15 13  2
  21768533.565   -16510287.685 8 -12865112.316 9
  25068911.254      831718.091 5    648095.567 3
  22487205.932   -13046135.630 7 -10165814.246 6
  22269573.395    -7154432.980 7  -5574847.742 7
 91  5  8 22 42 30.0040000  0  4  6 15 13  2
  21769378.975   -16505833.138 8 -12861641.218 9
  25074744.618      862407.473 5    672009.408 2
  22474925.237   -13110663.650 7 -10216095.663 5
  22277320.629    -7113740.638 7  -5543139.414 7
 91  5  8 22 43  0.0040000  0  4  6 15 13  2
  21770303.540   -16500993.946 8 -12857870.407 9
  25080686.801      893633.488 5    696341.391 2
  22462733.276   -13174720.991 7 -10266010.291 6
  22285092.450    -7072881.630 7  -5511301.221 8
 91  5  8 22 43 30.0040000  0  4  6 15 13  2
  21771295.847   -16495771.189 8 -12853800.710 9
  25086739.618      925393.505 5    721089.508 2
  22450633.958   -13238307.985 7 -10315558.444 6
  22292901.440    -7031858.664 7  -5479335.263 8
 91  5  8 22 44  0.0040000  0  4  6 15 13  2
  21772362.212   -16490162.609 8 -12849430.368 9
  25092878.169      957687.691 5    746253.868 2
  22438624.264   -13301422.418 7 -10364738.336 5
  22300738.315    -6990671.892 7  -5447241.678 7
 91  5  8 22 44 30.0040000  0  4  6 15 13  2
  21773503.823   -16484162.118 8 -12844754.644 9
  25099125.835      990520.250 5    771837.724 3
  22426706.306   -13364058.549 7 -10413545.552 6
  22308607.281    -6949316.955 7  -5415017.045 7
 91  5  8 22 45  0.0040000  0  4  6 15 13  2
  21774724.570   -16477771.565 8 -12839774.977 9
  25105481.431     1023887.915 5    797838.524 4
  22414876.507   -13426217.013 7 -10461980.539 6
  22316506.803    -6907797.400 8  -5382664.143 6
 91  5  8 22 45 30.0040000  0  4  6 15 13  2
  21776010.983   -16470988.869 8 -12834489.745 9
  25111928.781     1057790.591 5    824256.236 2
  22403140.224   -13487895.931 7 -10510041.868 5
  22324441.417    -6866113.546 8  -5350183.213 7
 91  5  8 22 46  0.0040000  0  4  6 15 13  2
  21777377.143   -16463816.781 8 -12828901.097 9
  25118483.135     1092223.895 5    851087.369 3
  22391494.193   -13549098.007 7 -10557731.616 5
  22332404.492    -6824269.687 8  -5317577.613 7
 91  5  8 22 46 30.0040000  0  4  6 15 13  2
  21778817.030   -16456254.233 8 -12823008.181 9
  25125136.135     1127187.265 5    878331.669 3
  22379938.100   -13609822.000 7 -10605048.860 6
  22340398.472    -6782266.507 8  -5284847.869 7
 91  5  8 22 47  0.0040000  0  4  6 15 13  2
  21780334.292   -16448297.687 8 -12816808.268 9
  25131883.558     1162681.538 5    905989.562 2
  22368472.836   -13670063.795 7 -10651990.358 6
  22348417.911    -6740102.415 8  -5251992.742 6
 91  5  8 22 47 30.0040000  0  4  6 15 13  2
  21781921.092   -16439940.733 8 -12810296.340 9
  25138744.618     1198711.680 5    934065.061 2
  22357100.197   -13729816.716 7 -10698550.905 5
  22356475.741    -6697772.297 8  -5219008.239 7
 91  5  8 22 48  0.0040000  0  4  6 15 13  2
  21783588.531   -16431183.845 8 -12803472.781 9
  25145702.194     1235274.840 5    962555.869 3
  22345824.111   -13789081.286 7 -10744730.949 5
  22364561.736    -6655278.846 8  -5185896.477 7
 91  5  8 22 48 30.0040000  0  4  6 15 13  2
  21785330.027   -16422023.123 8 -12796334.550 9
  25152762.011     1272373.544 5    991464.039 2
  22334641.558   -13847853.810 7 -10790527.572 6
  22372680.118    -6612620.003 8  -5152655.831 7
 91  5  8 22 49  0.0040000  0  4  6 15 13  2
  21787151.272   -16412457.465 8 -12788880.784 9
  25159924.942     1310006.292 5   1020788.316 3
  22323550.426   -13906132.534 7 -10835939.432 6
  22380826.682    -6569796.276 8  -5119286.690 7
 91  5  8 22 49 30.0040000  0  4  6 15 13  2
  21789047.465   -16402486.603 8 -12781111.278 9
  25167186.815     1348171.442 5   1050527.436 3
  22312555.847   -13963917.108 7 -10880966.242 6
  22389008.618    -6526809.161 8  -5085790.236 8
 91  5  8 22 50  0.0040000  0  4  6 15 13  2
  21791023.388   -16392112.704 8 -12773027.717 9
  25174549.114     1386865.031 5   1080678.343 2
  22301653.282   -14021209.896 8 -10925609.827 6
  22397217.532    -6483662.285 8  -5052169.315 7
 91  5  8 22 50 30.0040000  0  4  6 15 13  2
  21793076.371   -16381333.644 8 -12764628.443 9
  25182012.450     1426087.521 5   1111241.397 1
  22290845.176   -14078008.413 8 -10969868.269 7
  22405460.928    -6440355.176 8  -5018423.529 7
 91  5  8 22 51  0.0040000  0  4  6 15 13  2
  21795204.600   -16370143.748 8 -12755909.035 9
  25189576.526     1465842.603 5   1142219.427 3
  22280130.585   -14134306.980 8 -11013737.140 6
  22413731.895    -6396883.592 9  -4984549.584 8
 91  5  8 22 51 30.0040000  0  4  6 15 13  2
  21797408.963   -16358543.843 7 -12746870.140 9
  25197243.419     1506126.452 5   1173609.462 2
  22269513.733   -14190106.681 8 -11057217.290 5
  22422036.139    -6353250.671 9  -4950549.916 7
 91  5  8 22 52  0.0040000  0  4  6 15 13  2
  21799694.890   -16346530.373 7 -12737508.989 9
  25205011.034     1546940.940 5   1205413.038 2
  22258991.321   -14245403.678 8 -11100305.715 6
  22430372.772    -6309454.436 9  -4916422.996 9
 91  5  8 22 52 30.0040000  0  4  6 15 13  2
  21802059.656   -16334102.780 7 -12727825.144 9
  25212876.685     1588284.612 5   1237628.900 2
  22248565.130   -14300197.070 8 -11143001.727 6
  22438737.882    -6265495.889 9  -4882169.591 9
 91  5  8 22 53  0.0040000  0  4  6 15 13  2
  21804505.949   -16321256.160 7 -12717814.782 9
  25220854.174     1630160.893 5   1270259.850 2
  22238233.397   -14354482.141 7 -11185301.638 6
  22447132.065    -6221371.325 9  -4847786.830 8
 91  5  8 22 53 30.0040000  0  4  6 15 13  2
  21807032.008   -16307985.075 7 -12707473.673 9
  25228915.878     1672572.276 5   1303307.666 1
  22228000.276   -14408253.193 7 -11227201.023 6
  22455563.435    -6177077.090 9  -4813271.854 8
 91  5  8 22 54  0.0040000  0  4  6 15 13  2
  21809638.704   -16294289.297 7 -12696801.637 9
  25237084.936     1715517.429 5   1336771.449 2
  22217864.596   -14461510.160 7 -11268699.827 6
  22464022.375    -6132614.879 9  -4778625.989 9
 91  5  8 22 54 30.0040000  0  4  6 15 13  2
  21812326.945   -16280172.634 7 -12685801.626 9
  25245355.013     1758990.572 5   1370646.654 2
  22207828.435   -14514256.568 7 -11309800.790 6
  22472513.407    -6087989.995 9  -4743853.369 9
 91  5  8 22 55  0.0040000  0  4  6 15 13  2
  21815091.025   -16265628.729 7 -12674468.715 9
  25253736.003     1802995.524 5   1404936.257 2
  22197890.012   -14566486.098 8 -11350498.993 6
  22481037.996    -6043197.738 9  -4708950.323 9
 91  5  8 22 55 30.0040000  0  4  6 15 13  2
  21817939.057   -16250660.456 7 -12662805.118 9
  25262209.637     1847527.105 5   1439636.225 1
  22188047.531   -14618202.034 8 -11390796.993 6
  22489590.173    -5998242.234 9  -4673920.068 9
 91  5  8 22 56  0.0040000  0  4  6 15 13  2
  21820868.024   -16235264.724 7 -12650808.443 9
  25270783.697     1892586.014 5   1474747.085 2
  22178303.975   -14669400.991 8 -11430692.145 7
  22498178.629    -5953121.821 9  -4638761.322 9
 91  5  8 22 56 30.0040000  0  4  6 15 13  2
  21823881.537   -16219434.653 7 -12638473.317 9
  25279465.093     1938177.557 5   1510273.049 4
  22168663.550   -14720075.726 7 -11470178.820 6
  22506797.675    -5907831.188 9  -4603469.946 9
 91  5  8 22 57  0.0040000  0  4  6 15 13  2
  21826973.908   -16203175.999 7 -12625804.229 9
  25288230.721     1984294.128 5   1546208.015 4
  22159116.361   -14770232.504 7 -11509261.891 6
  22515446.684    -5862377.767 9  -4568051.717 9
 91  5  8 22 57 30.0040000  0  4  6 15 13  2
  21830151.994   -16186484.925 7 -12612798.194 9
  25297115.971     2030937.277 5   1582553.372 2
  22149672.007   -14819867.040 7 -11547938.024 6
  22524127.766    -5816759.577 9  -4532505.093 9
 91  5  8 22 58  0.0040000  0  4  6 15 13  2
  21833413.439   -16169349.518 7 -12599445.928 9
  25306088.157     2078115.583 5   1619315.733 4
  22140328.078   -14868968.094 7 -11586198.464 6
  22532841.846    -5770965.757 9  -4496821.604 9
 91  5  8 22 58 30.0040000  0  4  6 15 13  2
  21836757.320   -16151769.600 8 -12585747.292 9
  25315168.867     2125827.169 5   1656493.612 2
  22131084.262   -14917535.212 7 -11624042.844 6
  22541590.373    -5724997.765 9  -4461002.409 9
 91  5  8 22 59  0.0040000  0  4  6 15 13  2
  21840188.155   -16133749.463 8 -12571705.637 9
  25324349.112     2174066.426 4   1694082.663 2
  22121943.000   -14965572.554 7 -11661474.426 6
  22550368.601    -5678861.096 9  -4425051.765 9
 91  5  8 22 59 30.0040000  0  4  6 15 13  2
  21843701.425   -16115287.314 8 -12557319.551 9
  25333630.988     2222832.226 4   1732082.032 3
  22112904.258   -15013078.523 7 -11698491.945 6
  22559180.105    -5632555.405 9  -4388969.427 9
 91  5  8 23  0  0.0040000  0  4  6 15 13  2
  21847298.333   -16096379.729 7 -12542586.378 9
  25343004.896     2272126.350 4   1770493.047 2
  22103965.349   -15060049.590 7 -11735092.671 6
  22568023.684    -5586078.486 9  -4352753.653 9
 91  5  8 23  0 30.0040000  0  4  6 15 13  2
  21850980.975   -16077026.129 8 -12527505.650 9
  25352481.934     2321946.978 4   1809314.339 2
  22095128.961   -15106485.396 7 -11771276.309 6
  22576900.837    -5539431.138 9  -4316405.082 9
 91  5  8 23  1  0.0040000  0  4  6 15 13  2
  21854748.773   -16057229.142 7 -12512079.444 9
  25362071.405     2372288.962 4   1848541.925 2
  22086393.608   -15152389.150 7 -11807045.347 6
  22585807.969    -5492617.692 9  -4279927.079 9
 91  5  8 23  1 30.0040000  0  4  6 15 13  2
  21858599.600   -16036986.052 8 -12496305.614 9
  25371742.106     2423152.566 4   1888175.967 3
  22077760.776   -15197757.639 8 -11842397.306 6
  22594749.582    -5445636.523 9  -4243318.391 9
 91  5  8 23  2  0.0040000  0  4  6 15 13  2
  21862534.083   -16016300.770 7 -12480187.228 9
  25381525.832     2474532.324 3   1928212.172 4
  22069228.684   -15242595.229 8 -11877335.572 6
  22603721.769    -5398492.701 9  -4206582.950 9
 91  5  8 23  2 30.0040000  0  3  6 13  2
  21866557.301   -15995169.311 7 -12463721.165 9
  22060794.924   -15286898.092 8 -11911857.160 6
  22612723.935    -5351183.976 9  -4169719.022 9
 91  5  8 23  3  0.0040000  0  3  6 13  2
  21870663.861   -15973587.581 7 -12446904.238 9
  22052468.797   -15330662.186 8 -11945958.944 6
  22621758.785    -5303707.363 9  -4132724.266 9
 91  5  8 23  3 30.0040000  0  3  6 13  2
  21874858.544   -15951559.916 7 -12429739.824 9
  22044243.689   -15373891.935 8 -11979644.342 6
  22630823.004    -5256068.563 9  -4095603.139 9
 91  5  8 23  4  0.0040000  0  4  6 15 13  2
  21879133.289   -15929087.685 7 -12412229.003 9
  25421622.175        8940.09014      6971.436 2
  22036119.008   -15416589.297 8 -12012914.895 6
  22639918.703    -5208270.071 8  -4058357.569 9
 91  5  8 23  4 30.0040000  0  4  6 15 13  2
  21883494.081   -15906166.831 7 -12394368.604 9
  25431878.977       62889.104 4     49009.683 3
  22028095.973   -15458750.097 8 -12045767.370 6
  22649044.085    -5160309.207 8  -4020985.481 9
 91  5  8 23  5  0.0040000  0  4  6 15 13  2
  21887940.902   -15882797.651 7 -12376158.850 9
  25442249.100      117345.757 4     91443.467 4
  22020174.255   -15500374.674 8 -12078201.986 6
  22658204.245    -5112187.027 8  -3983487.690 9
 91  5  8 23  5 30.0040000  0  4  6 15 13  2
  21892470.159   -15858977.861 7 -12357597.985 9
  25452702.269      172310.085 4    134272.824 3
  22012355.371   -15541460.488 7 -12110216.812 6
  22667393.495    -5063903.131 8  -3945863.895 9
 91  5  8 23  6  0.0040000  0  4  6 15 13  2
  21897092.058   -15834707.004 7 -12338685.621 9
  25463262.757      227780.685 4    177496.712 3
  22004638.413   -15582008.160 8 -12141812.294 7
  22676609.409    -5015457.664 8  -3908114.188 9
 91  5  8 23  6 30.0040000  0  4  6 15 13  2
  21901797.597   -15809985.931 7 -12319422.450 9
  25473907.180      283753.854 4    221112.171 3
  21997025.773   -15622018.073 8 -12172988.738 6
  22685858.007    -4966852.936 7  -3870240.390 9
 91  5  8 23  7  0.0040000  0  4  6 15 13  2
  21906585.588   -15784817.285 7 -12299810.507 9
  25484655.642      340224.576 4    265115.359 3
  21989514.170   -15661493.461 8 -12203748.681 7
  22695137.177    -4918092.725 7  -3832245.429 9
 91  5  8 23  7 30.0040000  0  4  6 15 13  2
  21911461.719   -15759197.441 7 -12279846.993 9
  25495506.327      397194.645 4    309507.629 4
  21982104.214   -15700430.695 8 -12234089.277 6
  22704446.031    -4869174.076 7  -3794127.014 9
 91  5  8 23  8  0.0040000  0  4  6 15 13  2
  21916422.083   -15733124.553 7 -12259530.454 9
  25506430.163      454662.669 4    354287.921 4
  21974797.372   -15738828.115 8 -12264009.234 7
  22713786.679    -4820096.496 7  -3755884.753 9
 91  5  8 23  8 30.0040000  0  4  6 15 13  2
  21921472.386   -15706600.741 7 -12238862.561 9
  25517458.928      512625.319 4    399453.634 2
  21967594.254   -15776687.993 8 -12293510.342 6
  22723152.787    -4770863.574 7  -3717521.458 9
 91  5  8 23  9  0.0040000  0  4  6 15 13  2
  21926604.530   -15679618.438 7 -12217837.386 9
  25528587.525      571087.372 5    445008.490 4
  21960489.764   -15814003.044 8 -12322586.901 7
  22732554.877    -4721468.525 7  -3679031.819 9
 91  5  8 23  9 30.0040000  0  4  6 15 13  2
  21931826.612   -15652181.186 8 -12196457.713 9
  25539810.249      630042.357 5    490947.471 4
  21953492.907   -15850777.164 8 -12351241.942 7
  22741984.259    -4671916.033 7  -3640419.488 9
 91  5  8 23 10  0.0040000  0  4  6 15 13  2
  21937134.741   -15624285.671 8 -12174720.947 9
  25551118.426      689491.922 4    537271.816 2
  21946600.979   -15887007.106 8 -12379472.973 7
  22751443.603    -4622203.468 7  -3601682.439 8
 91  5  8 23 10 30.0040000  0  4  6 15 13  2
  21942531.902   -15595927.694 8 -12152623.836 9
  25562532.421      749437.812 4    583982.926 3
  21939808.289   -15922689.498 8 -12407277.336 6
  22760935.038    -4572327.877 7  -3562818.367 9
 91  5  8 23 11  0.0040000  0  4  6 15 13  2
  21948015.109   -15567106.132 8 -12130165.471 9
  25574028.869      809878.157 5    631079.287 4
  21933124.106   -15957823.447 8 -12434654.330 7
  22770458.844    -4522289.155 7  -3523827.158 7
 91  5  8 23 11 30.0040000  0  4  6 15 13  2
  21953587.941   -15537817.698 8 -12107343.330 9
  25585624.539      870814.175 5    678561.905 5
  21926541.273   -15992406.018 8 -12461601.705 7
  22780012.925    -4472085.077 7  -3484707.131 7
 91  5  8 23 12  0.0040000  0  4  6 15 13  2
  21959252.823   -15508060.012 8 -12084155.532 9
  25597314.649      932245.762 5    726430.677 2
  21920069.947   -16026434.630 8 -12488117.414 7
  22789595.189    -4421714.020 7  -3445456.982 7
 91  5  8 23 12 30.0040000  0  4  6 15 13  2
  21965004.345   -15477832.419 7 -12060601.574 9
  25609099.793      994170.978 5    774684.093 3
  21913696.656   -16059908.632 8 -12514200.953 7
  22799213.731    -4371176.029 7  -3406076.751 6
 91  5  8 23 13  0.0040000  0  4  6 15 13  2
  21970847.602   -15447129.573 7 -12036677.290 9
  25620976.063     1056593.085 5    823324.697 2
  21907433.703   -16092823.456 8 -12539848.778 7
  22808861.660    -4320467.067 8  -3366563.305 6
 91  5  8 23 13 30.0040000  0  4  6 15 13  2
  21976775.389   -15415962.122 7 -12012390.974 9
  25632952.182     1119499.047 5    872342.335 2
  21901272.659   -16125190.260 8 -12565069.582 7
  22818543.756    -4269598.413 8  -3326925.420 6
 91  5  8 23 14  0.0040000  0  4  6 15 13  2
  21982798.227   -15384327.620 7 -11987740.718 9
  25645006.827     1182888.989 5    921737.112 4
  21895220.156   -16157006.724 8 -12589861.536 8
  22828253.424    -4218568.377 8  -3287161.790 5
 91  5  8 23 14 30.0040000  0  4  6 15 13  2
  21988905.890   -15352215.964 7 -11962718.662 9
  25657164.621     1246770.512 5    971514.917 3
  21889272.267   -16188262.730 8 -12614216.777 7
  22837997.591    -4167368.011 8  -3247265.399 6
 91  5  8 23 15  0.0040000  0  4  6 15 13  2
  21995110.699   -15319630.298 7 -11937327.253 9
  25669417.431     1311137.680 5   1021671.149 3
  21883427.822   -16218962.117 8 -12638138.294 8
  22847770.515    -4116001.276 8  -3207239.418 4
 91  5  8 23 15 30.0040000  0  4  6 15 13  2
  22001401.241   -15286571.193 7 -11911566.918 9
  25681755.398     1375987.623 5   1072203.576 2
  21877693.681   -16249105.878 8 -12661626.844 8
  22857574.623    -4064469.561 8  -3167084.863 5
 91  5  8 23 16  0.0040000  0  4  6 15 13  2
  22007778.440   -15253043.109 7 -11885441.157 9
  25694188.381     1441313.949 5   1123107.250 4
  21872062.391   -16278698.876 8 -12684686.242 8
  22867413.527    -4012777.818 8  -3126805.612 6
 91  5  8 23 16 30.0040000  0  4  6 15 13  2
  22014252.157   -15219039.135 7 -11858944.560 9
  25706714.305     1507120.500 5   1174385.103 3
  21866536.012   -16307734.687 8 -12707311.469 7
  22877281.782    -3960920.293 8  -3086397.185 6
 91  5  8 23 17  0.0040000  0  4  6 15 13  2
  22020809.809   -15184561.351 7 -11832078.769 9
  25719325.385     1573403.386 5   1226034.098 2
  21861114.561   -16336215.115 8 -12729503.929 7
  22887180.942    -3908899.507 8  -3045861.524 6
 91  5  8 23 17 30.0040000  0  4  6 15 13  2
  22027463.700   -15149607.225 7 -11804841.800 9
  25732030.889     1640162.842 6   1278054.490 3
  21855804.040   -16364138.553 8 -12751262.376 7
  22897111.268    -3856713.874 8  -3005197.431 6
 91  5  8 23 18  0.0040000  0  4  6 15 13  2
  22034205.731   -15114180.300 7 -11777236.418 9
  25744822.736     1707391.962 5   1330440.839 3
  21850593.946   -16391509.040 8 -12772589.944 8
  22907074.557    -3804367.373 8  -2964407.984 6
 91  5  8 23 18 30.0040000  0  4  6 15 13  2
  22041036.514   -15078278.955 7 -11749261.360 9
  25757701.206     1775090.480 5   1383192.898 3
  21845490.875   -16418324.959 8 -12793485.379 7
  22917064.841    -3751859.010 8  -2923492.401 7
 91  5  8 23 19  0.0040000  0  4  6 15 13  2
  22047957.514   -15041903.816 7 -11720917.122 9
  25770678.933     1843255.287 5   1436308.375 3
  21840494.249   -16444587.819 8 -12813949.876 7
  22927088.107    -3699190.700 8  -2882452.195 6
 91  5  8 23 19 30.0040000  0  4  6 15 13  2
  22054969.064   -15005060.319 7 -11692207.923 9
  25783730.998     1911878.855 5   1489781.296 3
  21835600.126   -16470302.812 8 -12833987.451 9
  22937139.851    -3646367.807 8  -2841291.529 7
 91  5  8 23 20  0.0040000  0  5 12  6 15 13  2
  26144562.988    -1094846.453 4   -853127.457 2
  22062070.553   -14967744.310 8 -11663130.531 9
  25796875.392     1980962.508 5   1543612.734 3
  21830812.449   -16495466.393 8 -12853595.356 8
  22947220.667    -3593386.894 8  -2800007.739 6
 91  5  8 23 20 30.0040000  0  5 12  6 15 13  2
  26128645.510    -1178456.035 4   -918277.630 3
  22069262.276   -14929952.965 8 -11633682.755 9
  25810107.630     2050506.431 5   1597802.833 2
  21826128.183   -16520077.147 8 -12872772.495 8
  22957335.075    -3540246.034 8  -2758599.307 7
 91  5  8 23 21  0.0040000  0  5 12  6 15 13  2
  26112728.329    -1262122.029 5   -983472.156 2
  22076543.327   -14891684.460 7 -11603863.156 8
  25823432.215     2120510.056 5   1652351.116 2
  21821552.456   -16544132.521 8 -12891516.858 7
  22967477.944    -3486943.827 8  -2717065.156 7
 91  5  8 23 21 30.0040000  0  5 12  6 15 13  2
  26096790.469    -1345847.318 5  -1048712.463 2
  22083916.131   -14852942.470 7 -11573674.632 9
  25836840.125     2190967.128 5   1707252.717 3
  21817079.843   -16567636.844 8 -12909831.844 8
  22977648.699    -3433484.343 8  -2675408.437 6
 91  5  8 23 22  0.0040000  0  5 12  6 15 13  2
  26080852.295    -1429627.950 5  -1113995.867 1
  22091377.059   -14813724.021 7 -11543114.814 9
  25850336.193     2261878.969 5   1762508.743 2
  21812711.879   -16590587.418 8 -12927715.333 8
  22987851.248    -3379865.178 8  -2633627.281 8
 91  5  8 23 22 30.0040000  0  5 12  6 15 13  2
  26064898.852    -1513455.489 5  -1179315.837 2
  22098934.521   -14774021.842 7 -11512178.077 8
  25863917.680     2333250.071 5   1818122.575 3
  21808450.030   -16612977.655 8 -12945162.194 8
  22998089.151    -3326079.776 8  -2591716.612 8
 91  5  8 23 23  0.0040000  0  5 12  6 15 13  2
  26048938.499    -1597329.955 5  -1244672.365 2
  22106580.439   -14733836.885 7 -11480865.156 8
  25877588.512     2405077.097 5   1874091.713 4
  21804295.797   -16634808.724 8 -12962173.341 8
  23008354.940    -3272129.616 8  -2549677.558 8
 91  5  8 23 23 30.0040000  0  5 12  6 15 13  2
  26032962.860    -1681255.840 5  -1310068.972 2
  22114320.780   -14693174.471 7 -11449180.187 8
  25891343.890     2477351.727 5   1930409.605 3
  21800248.306   -16656086.657 8 -12978753.481 8
  23018650.725    -3218020.059 8  -2507514.297 8
 91  5  8 23 24  0.0040000  0  5 12  6 15 13  2
  26016989.611    -1765229.307 5  -1375502.605 2
  22122150.152   -14652032.103 7 -11417121.232 9
  25905174.828     2550075.047 5   1987077.126 2
  21796304.539   -16676809.588 8 -12994901.153 8
  23028981.568    -3163749.359 8  -2465225.457 9
 91  5  8 23 24 30.0040000  0  5 12  6 15 13  2
  26001000.483    -1849244.565 5  -1440968.857 2
  22130073.667   -14610404.876 7 -11384684.459 9
  25919095.390     2623249.010 5   2044095.796 3
  21792466.591   -16696973.304 8 -13010613.073 8
  23039339.704    -3109313.073 8  -2422807.604 8
 91  5  8 23 25  0.0040000  0  5 12  6 15 13  2
  25985005.055    -1933296.410 5  -1506463.584 3
  22138084.120   -14568288.890 7 -11351866.837 9
  25933115.471     2696874.720 5   2101466.475 3
  21788735.071   -16716574.316 8 -13025886.515 8
  23049729.598    -3054707.650 8  -2380257.953 9
 91  5  8 23 25 30.0040000  0  5 12  6 15 13  2
  25969000.029    -2017387.459 5  -1571988.882 2
  22146193.201   -14525687.763 7 -11318671.181 9
  25947208.127     2770946.942 5   2159185.125 3
  21785113.872   -16735616.409 8 -13040724.446 8
  23060150.694    -2999937.168 7  -2337579.693 9
 91  5  8 23 26  0.0040000  0  5 12  6 15 13  2
  25952998.616    -2101513.449 5  -1637541.373 3
  22154391.331   -14482598.655 7 -11285095.282 9
  25961391.909     2845465.837 5   2217251.775 2
  21781594.023   -16754096.809 8 -13055124.680 8
  23070606.253    -2944998.833 7  -2294770.637 9
 91  5  8 23 26 30.0040000  0  5 12  6 15 13  2
  25936982.195    -2185672.408 5  -1703119.572 1
  22162682.697   -14439020.892 7 -11251138.623 9
  25975660.830     2920429.700 4   2275665.196 2
  21778185.978   -16772016.129 8 -13069087.722 9
  23081089.995    -2889892.777 7  -2251830.884 9
 91  5  8 23 27  0.0040000  0  5 12  6 15 13  2
  25920960.400    -2269867.373 5  -1768725.843 2
  22171070.284   -14394958.548 7 -11216804.357 9
  25989997.196     2995831.650 4   2334419.990 2
  21774883.769   -16789378.731 8 -13082616.953 9
  23091610.609    -2834623.190 7  -2208763.714 9
 91  5  8 23 27 30.0040000  0  5 12  6 15 13  2
  25904928.100    -2354088.728 5  -1834352.683 1
  22179547.512   -14350403.242 7 -11182085.963 9
  26004437.006     3071677.948 4   2393521.000 1
  21771684.673   -16806176.483 8 -13095706.046 8
  23102158.201    -2779181.814 7  -2165562.669 9
 91  5  8 23 28  0.0040000  0  4 12  6 13  2
  25888895.782    -2438340.758 5  -1900003.406 2
  22188116.791   -14305360.616 7 -11146987.844 9
  21768595.007   -16822415.838 8 -13108360.013 9
  23112741.776    -2723574.924 7  -2122232.654 8
 91  5  8 23 28 30.0040000  0  4 12  6 13  2
  25872858.089    -2522615.984 5  -1965672.250 2
  22196786.792   -14259824.696 7 -11111505.329 9
  21765611.473   -16838091.497 8 -13120574.745 9
  23123356.534    -2667796.565 7  -2078769.029 8
 91  5  8 23 29  0.0050000  0  4 12  6 13  2
  25856817.695    -2606924.143 5  -2031366.731 2
  22205538.324   -14213802.369 7 -11075643.816 8
  21762734.075   -16853212.237 8 -13132357.075 9
  23134002.165    -2611853.569 7  -2035177.123 7
 91  5  8 23 29 30.0050000  0  4 12  6 13  2
  25840776.705    -2691247.007 5  -2097072.702 2
  22214392.390   -14167285.270 7 -11039396.748 8
  21759963.993   -16867766.155 8 -13143697.727 9
  23144681.663    -2555738.447 7  -1991451.091 8
 91  5  8 23 30  0.0050000  0  4 12  6 13  2
  25824727.321    -2775583.692 5  -2162789.414 2
  22223340.896   -14120270.084 7 -11002761.565 8
  21757302.730   -16881753.240 8 -13154596.688 9
  23155391.752    -2499447.333 7  -1947587.918 7
 91  5  8 23 30 30.0050000  0  4 12  6 13  2
  25808671.934    -2859935.569 5  -2228517.935 2
  22232379.045   -14072759.089 7 -10965740.037 8
  21754748.803   -16895176.521 8 -13165056.333 9
  23166137.508    -2442983.225 8  -1903589.944 7
 91  5  8 23 31  0.0050000  0  4 12  6 13  2
  25792619.234    -2944298.146 5  -2294254.837 4
  22241519.120   -14024749.852 7 -10928330.277 8
  21752300.991   -16908033.487 8 -13175074.688 9
  23176917.154    -2386343.614 8  -1859455.213 6
 91  5  8 23 31 30.0050000  0  4 12  6 13  2
  25776564.755    -3028672.819 5  -2360001.145 3
  22250746.725   -13976245.137 7 -10890534.428 8
  21749964.407   -16920327.262 8 -13184654.201 8
  23187727.668    -2329531.316 8  -1815185.912 7
 91  5  8 23 32  0.0050000  0  4 12  6 13  2
  25760503.382    -3113056.240 5  -2425754.272 1
  22260072.680   -13927243.164 7 -10852351.106 9
  21747731.250   -16932056.957 8 -13193794.164 9
  23198569.960    -2272544.613 8  -1770780.732 8
 91  5  8 23 32 30.0050000  0  4 12  6 13  2
  25744443.197    -3197445.784 5  -2491512.141 2
  22269493.948   -13877742.944 7 -10813779.549 8
  21745609.321   -16943221.813 8 -13202493.997 9
  23209448.530    -2215382.812 7  -1726239.100 6
 91  5  8 23 33  0.0050000  0  4 12  6 13  2
  25728383.011    -3281836.258 5  -2557270.771 3
  22279005.765   -13827740.970 7 -10774817.009 9
  21743588.429   -16953819.018 8 -13210751.499 9
  23220360.378    -2158042.494 7  -1681558.388 6
 91  5  8 23 33 30.0050000  0  4 12  6 13  2
  25712329.125    -3366228.311 5  -2623030.628 2
  22288617.711   -13777239.266 7 -10735465.070 9
  21741677.857   -16963851.559 8 -13218569.002 8
  23231304.003    -2100525.784 7  -1636740.214 7
 91  5  8 23 34  0.0050000  0  4 12  6 13  2
  25696263.844    -3450625.207 5  -2688794.243 3
  22298321.986   -13726242.860 8 -10695727.655 9
  21739878.199   -16973324.685 8 -13225950.604 9
  23242281.499    -2042837.532 7  -1591788.391 6
 91  5  8 23 34 30.0050000  0  4 12  6 13  2
  25680208.160    -3535015.774 5  -2754552.968 2
  22308121.017   -13674742.630 7 -10655597.641 9
  21738182.264   -16982229.953 8 -13232889.708 9
  23253293.476    -1984968.637 8  -1546695.807 7
 91  5  8 23 35  0.0050000  0  4 12  6 13  2
  25664144.379    -3619401.457 5  -2820307.854 1
  22318016.267   -13622741.523 7 -10615077.337 9
  21736595.760   -16990571.138 8 -13239389.280 9
  23264340.232    -1926921.724 8  -1501464.496 6
 91  5  8 23 35 30.0050000  0  4 12  6 13  2
  25648095.292    -3703777.976 5  -2886055.611 3
  22328011.333   -13570237.169 7 -10574164.894 8
  21735115.389   -16998345.886 8 -13245447.463 9
  23275420.858    -1868694.725 8  -1456092.867 6
 91  5  8 23 36  0.0050000  0  4 12  6 13  2
  25632035.717    -3788144.544 5  -2951795.608 1
  22338093.668   -13517230.648 7 -10532861.148 9
  21733744.151   -17005556.360 8 -13251065.955 9
  23286533.261    -1810288.664 8  -1410581.715 6
 91  5  8 23 36 30.0050000  0  4 12  6 13  2
  25615983.332    -3872501.685 5  -3017528.243 3
  22348278.801   -13463724.228 7 -10491167.880 9
  21732478.120   -17012205.224 8 -13256246.836 9
  23297681.647    -1751705.210 8  -1364932.329 6
 91  5  8 23 37  0.0050000  0  4 12  6 13  2
  25599935.431    -3956845.000 5  -3083250.081 3
  22358557.486   -13409715.351 7 -10449083.074 8
  21731320.612   -17018290.368 8 -13260988.439 9
  23308866.609    -1692942.200 8  -1319143.025 5
 91  5  8 23 37 30.0050000  0  4 12  6 13  2
  25583888.141    -4041170.057 5  -3148957.715 3
  22368927.906   -13355201.516 7 -10406604.808 8
  21730269.254   -17023809.841 8 -13265289.278 8
  23320080.642    -1633996.671 8  -1273211.503 5
 91  5  8 23 38  0.0050000  0  4 12  6 13  2
  25567840.257    -4125481.671 5  -3214654.819
  22379399.659   -13300189.443 7 -10363738.298 8
  21729324.900   -17028770.973 8 -13269155.038 9
  23331331.862    -1574875.251 8  -1227142.928 3
 91  5  8 23 38 30.0050000  0  4 12  6 13  2
  25551804.362    -4209774.765 5  -3280338.024 3
  22389962.259   -13244676.332 7 -10320481.368 8
  21728487.587   -17033172.038 8 -13272584.396 9
  23342616.342    -1515575.261 8  -1180935.190 5
 91  5  8 23 39  0.0050000  0  4 12  6 13  2
  25535765.763    -4294047.579 6  -3346004.950 4
  22400618.670   -13188662.225 7 -10276834.075 8
  21727757.888   -17037013.547 8 -13275577.722 9
  23353933.803    -1456096.726 7  -1134588.353 5
 91  5  8 23 39 30.0050000  0  4 12  6 13  2
  25519735.556    -4378300.055 6  -3411656.017 2
  22411374.636   -13132149.196 7 -10232798.003 7
  21727133.415   -17040297.809 8 -13278136.843 9
  23365289.340    -1396441.102 7  -1088103.516 4
 91  5  8 23 40  0.0050000  0  4 12  6 13  2
  25503702.663    -4462528.872 6  -3477288.642 3
  22422223.820   -13075136.157 7 -10188372.301 7
  21726610.886   -17043024.922 8 -13280261.814 9
  23376675.171    -1336606.965 7  -1041479.548 5
 91  5  8 23 40 30.0050000  0  4 12  6 13  2
  25487683.851    -4546732.053 6  -3542901.327 4
  22433167.445   -13017623.209 7 -10143557.074 8
  21726198.973   -17045195.734 8 -13281953.313 8
  23388093.965    -1276594.464 7   -994716.623 5
 91  5  8 23 41  0.0050000  0  4 12  6 13  2
  25471662.039    -4630914.157 6  -3608497.550 3
  22444205.807   -12959617.003 7 -10098357.492 7
  21725890.471   -17046816.751 8 -13283216.402 9
  23399548.131    -1216409.455 7   -947819.278 4
 91  5  8 23 41 30.0050000  0  4 12  6 13  2
  25455645.025    -4715071.244 6  -3674074.333 3
  22455337.091   -12901115.884 7 -10052772.254 7
  21725688.711   -17047887.086 8 -13284050.382 9
  23411033.184    -1156050.274 7   -900786.210 5
 91  5  8 23 42  0.0050000  0  4 12  6 13  2
  25439636.108    -4799200.516 6  -3739629.388 2
  22466566.725   -12842119.188 7 -10006800.862 8
  21725587.081   -17048407.149 8 -13284455.585 9
  23422551.496    -1095516.180 7   -853616.852 5
 91  5  8 23 42 30.0050000  0  4 12  6 13  2
  25423633.194    -4883297.565 5  -3805159.413 3
  22477888.374   -12782624.272 7  -9960441.245 7
  21725593.677   -17048374.779 8 -13284430.305 8
  23434105.513    -1034803.899 7   -806308.638 6
 91  5  8 23 43  0.0050000  0  4 12  6 13  2
  25407636.265    -4967362.582 6  -3870664.430 2
  22489298.478   -12722633.848 7  -9913695.514 7
  21725705.498   -17047793.664 8 -13283977.454 8
  23445690.695     -973915.708 7   -758863.346 6
 91  5  8 23 43 30.0050000  0  4 12  6 13  2
  25391646.526    -5051397.221 6  -3936145.785 4
  22500812.010   -12662152.217 7  -9866567.027 7
  21725917.152   -17046668.308 8 -13283100.498 9
  23457310.934     -912855.434 7   -711283.957 7
 91  5  8 23 44  0.0050000  0  4 12  6 13  2
  25375656.193    -5135392.500 5  -4001596.469 2
  22512416.073   -12601172.513 7  -9819050.440 7
  21726236.735   -17044992.078 8 -13281794.295 9
  23468965.673     -851615.795 7   -663564.814 7
 91  5  8 23 44 30.0050000  0  4 12  6 13  2
  25359686.853    -5219347.276 6  -4067015.576 3
  22524115.484   -12539695.836 7  -9771146.586 8
  21726662.137   -17042766.785 8 -13280060.251 9
  23480651.578     -790197.750 7   -615706.642 7
 91  5  8 23 45  0.0050000  0  4 12  6 13  2
  25343717.217    -5303257.590 6  -4132400.059 4
  22535907.521   -12477720.931 7  -9722854.521 8
  21727191.873   -17039992.107 8 -13277898.119 9
  23492374.076     -728599.393 7   -567707.980 8
 91  5  8 23 45 30.0050000  0  4 12  6 13  2
  25327757.160    -5387126.799 6  -4197752.514 3
  22547797.279   -12415253.588 7  -9674178.738 7
  21727820.535   -17036674.741 8 -13275313.108 9
  23504130.427     -666826.430 7   -519573.246 8
 91  5  8 23 46  0.0050000  0  4 12  6 13  2
  25311805.794    -5470948.334 6  -4263067.831 2
  22559779.698   -12352289.451 7  -9625115.845 7
  21728556.829   -17032810.697 8 -13272302.124 9
  23515919.166     -604873.409 7   -471298.209 8
 91  5  8 23 46 30.0050000  0  4 12  6 13  2
  25295865.230    -5554725.206 6  -4328348.305 3
  22571850.241   -12288834.167 7  -9575670.236 8
  21729396.848   -17028406.029 8 -13268869.877 9
  23527740.292     -542746.059 7   -422887.342 7
 91  5  8 23 47  0.0050000  0  4 12  6 13  2
  25279929.761    -5638453.465 6  -4393590.954 2
  22584018.801   -12224886.323 7  -9525840.846 6
  21730333.994   -17023460.225 8 -13265015.970 9
  23539595.272     -480442.000 7   -374338.782 7
 91  5  8 23 47 30.0050000  0  4 12  6 13  2
  25264003.592    -5722130.688 6  -4458793.802 2
  22596283.617   -12160445.961 7  -9475627.627 7
  21731381.182   -17017973.743 8 -13260740.742 9
  23551486.549     -417960.480 7   -325651.938 7
 91  5  8 23 48  0.0050000  0  4 12  6 13  2
  25248091.210    -5805755.337 6  -4523955.699 3
  22608637.760   -12095514.040 7  -9425031.380 7
  21732527.591   -17011948.613 8 -13256045.801 9
  23563408.084     -355302.187 7   -276827.365 7
 91  5  8 23 48 30.0050000  0  4 12  6 13  2
  25232192.317    -5889325.280 6  -4589074.962 2
  22621086.955   -12030091.087 7  -9374052.525 8
  21733776.224   -17005386.044 8 -13250932.088 9
  23575368.620     -292466.856 7   -227864.815 6
 91  5  8 23 49  0.0050000  0  4 12  6 13  2
  25216302.114    -5972833.260 6  -4654145.964 2
  22633636.262   -11964172.779 7  -9322687.681 7
  21735128.581   -16998282.092 8 -13245396.505 9
  23587358.507     -229449.716 7   -178760.606 6
 91  5  8 23 49 30.0050000  0  4 12  6 13  2
  25200422.415    -6056279.729 6  -4719169.022 2
  22646269.818   -11897761.840 7  -9270938.955 7
  21736581.678   -16990640.240 8 -13239441.790 9
  23599386.192     -166252.639 7   -129516.197 5
 91  5  8 23 50  0.0050000  0  4 12  6 13  2
  25184552.891    -6139665.483 6  -4784144.759 3
  22659003.503   -11830862.064 7  -9218809.321 8
  21738138.499   -16982464.483 8 -13233071.043 9
  23611447.434     -102879.098 7    -80134.276 5
 91  5  8 23 50 30.0050000  0  4 12  6 13  2
  25168697.169    -6222983.884 6  -4849068.062 4
  22671825.627   -11763469.559 7  -9166295.737 7
  21739795.153   -16973751.741 8 -13226281.860 9
  23623538.672      -39324.087 7    -30610.961 6
 91  5  8 23 51  0.0050000  0  4 12  6 13  2
  25152850.138    -6306232.697 6  -4913937.088 4
  22684745.785   -11695584.699 7  -9113398.498 8
  21741554.641   -16964503.095 8 -13219075.091 9
  23635669.470       24412.486 7     19053.836 5
 91  5  8 23 51 30.0050000  0  4 12  6 13  2
  25137030.102    -6389405.086 6  -4978746.582 5
  22697757.977   -11627203.470 7  -9060114.487 8
  21743418.447   -16954715.581 8 -13211448.426 9
  23647831.748       88335.396 7     68863.826 5
 91  5  8 23 52  0.0050000  0  4 12  6 13  2
  25121219.350    -6472501.039 6  -5043496.506 4
  22710865.795   -11558328.691 7  -9006445.894 7
  21745381.788   -16944392.694 8 -13203404.593 9
  23660033.900      152442.287 7    118817.203 5
 91  5  8 23 52 30.0050000  0  4 12  6 13  2
  25105416.677    -6555521.654 6  -5108187.744 3
  22724065.663   -11488964.405 7  -8952395.854 7
  21747447.056   -16933538.951 8 -13194947.086 9
  23672264.531      216730.406 7    168911.763 5
 91  5  8 23 53  0.0050000  0  4 12  6 13  2
  25089631.716    -6638462.340 6  -5172816.695 5
  22737355.452   -11419108.888 7  -8897963.046 7
  21749614.251   -16922153.113 8 -13186074.968 9
  23684535.332      281202.087 7    219149.375 5
 91  5  8 23 53 30.0050000  0  4 12  6 13  2
  25073865.619    -6721324.616 6  -5237384.548 4
  22750740.886   -11348766.670 7  -8843150.999 7
  21751880.389   -16910240.469 8 -13176792.364 9
  23696837.614      345853.659 7    269527.143 4
 91  5  8 23 54  0.0050000  0  4 12  6 13  2
  25058117.233    -6804103.895 6  -5301887.736 3
  22764219.260   -11277936.072 7  -8787958.388 7
  21754248.139   -16897800.359 8 -13167098.738 9
  23709172.283      410687.683 7    320047.093 5
 91  5  8 23 54 30.0050000  0  4 12  6 13  2
  25042378.114    -6886797.600 6  -5366324.225 5
  22777791.760   -11206617.628 7  -8732385.645 7
  21756715.739   -16884833.626 8 -13156994.760 9
  23721544.417      475704.259 7    370709.297 5
 91  5  8 23 55  0.0050000  0  4 12  6 13  2
  25026656.410    -6969406.490 6  -5430694.644 4
  22791456.310   -11134815.058 7  -8676435.674 7
  21759279.857   -16871344.493 8 -13146483.720 9
  23733954.925      540900.498 7    421511.500 6
 91  5  8 23 55 30.0050000  0  4 12  6 13  2
  25010955.682    -7051918.718 6  -5494989.735 3
  22805214.986   -11062519.777 7  -8620101.764 7
  21761948.309   -16857324.616 8 -13135559.113 9
  23746391.520      606286.044 7    472461.193 5
 91  5  8 23 56  0.0050000  0  4 12  6 13  2
  24995275.038    -7134332.699 6  -5559208.270 5
  22819063.584   -10989732.990 7  -8563384.860 7
  21764719.299   -16842776.601 8 -13124222.974 9
  23758873.068      671860.390 6    523558.024 4
 91  5  8 23 56 30.0050000  0  4 12  6 13  2
  24979606.383    -7216644.884 6  -5623347.487 4
  22833007.233   -10916454.386 7  -8506284.727 7
  21767588.307   -16827700.372 8 -13112475.231 9
  23771389.411      737625.127 6    574803.203 6
 91  5  8 23 57  0.0050000  0  4 12  6 13  2
  24963965.910    -7298855.816 6  -5687407.809 3
  22847047.120   -10842687.395 7  -8448804.031 7
  21770554.163   -16812100.232 8 -13100319.262 9
  23783934.826      803577.395 6    626194.509 6
 91  5  8 23 57 30.0050000  0  4 12  6 13  2
  24948342.224    -7380958.372 6  -5751383.689 3
  22861176.334   -10768428.413 7  -8390939.957 7
  21773623.727   -16795973.007 8 -13087752.565 9
  23796523.710      869721.716 6    677735.465 5
 91  5  8 23 58  0.0050000  0  4 12  6 13  2
  24932738.920    -7462946.247 6  -5815270.194 4
  22875400.896   -10693674.146 7  -8332689.961 7
  21776795.845   -16779316.042 8 -13074773.087 9
  23809152.171      936062.680 7    729429.645 6
 91  5  8 23 58 30.0050000  0  4 12  6 13  2
  24917162.314    -7544821.012 6  -5879068.572 1
  22889723.180   -10618429.657 7  -8274057.967 7
  21780061.775   -16762135.166 8 -13061385.366 9
  23821810.000     1002596.296 6    781273.940 5
 91  5  8 23 59  0.0050000  0  4 12  6 13  2
  24901603.683    -7626577.122 6  -5942774.494 2
  22904134.791   -10542692.303 7  -8215041.921 7
  21783435.042   -16744428.473 8 -13047587.916 9
  23834509.204     1069326.066 7    833271.095 5
 91  5  8 23 59 30.0050000  0  4 12  6 13  2
  24886068.434    -7708215.067 6  -6006388.344 4
  22918639.953   -10466465.669 7  -8155644.613 6
  21786905.436   -16726200.456 8 -13033384.238 9
  23847242.890     1136249.883 7    885419.449 5
 91  5  9  0  0  0.0050000  0  4 12  6 13  2
  24870554.475    -7789722.128 6  -6069900.203 5
  22933237.444   -10389740.623 7  -8095858.947 6
  21790472.662   -16707442.016 8 -13018767.237 9
  23860020.358     1203377.443 7    937726.541 5
 91  5  9  0  0 30.0050000  0  4 12  6 13  2
  24855066.587    -7871102.225 6  -6133313.121 4
  22947930.877   -10312524.595 7  -8035690.699 6
  21794141.221   -16688161.327 8 -13003743.308 9
  23872828.993     1270702.383 7    990187.460 5
 91  5  9  0  1  0.0050000  0  4 12  6 13  2
  24839602.693    -7952346.625 6  -6196620.310 4
  22962719.936   -10234811.884 7  -7975135.435 6
  21797912.021   -16668353.331 8 -12988308.476 9
  23885681.689     1338231.477 7   1042807.459 5
 91  5  9  0  1 30.0050000  0  4 12  6 13  2
  24824167.591    -8033461.715 6  -6259826.741 4
  22977603.733   -10156612.309 7  -7914200.795 6
  21801777.838   -16648028.755 8 -12972471.117 9
  23898567.366     1405956.255 7   1095579.933 4
 91  5  9  0  2  0.0050000  0  4 12  6 13  2
  24808758.246    -8114444.621 6  -6322930.186 4
  22992572.076   -10077926.427 7  -7852887.211 6
  21805745.302   -16627188.816 8 -12956232.191 9
  23911492.323     1473877.265 7   1148505.306 6
 91  5  9  0  2 30.0050000  0  4 12  6 13  2
  24793376.507    -8195294.473 6  -6385929.951 3
  23007640.549    -9998757.068 7  -7791196.906 6
  21809806.578   -16605836.789 8 -12939594.222 8
  23924456.247     1541992.900 7   1201582.336 4
 91  5  9  0  3  0.0050000  0  4 12  6 13  2
  24778021.433    -8276009.562 6  -6448824.705 4
  23022798.052    -9919105.763 7  -7729131.046 6
  21813965.611   -16583975.044 8 -12922559.082 9
  23937454.042     1610302.771 7   1254810.735 5
 91  5  9  0  3 30.0050000  0  4 12  6 13  2
  24762688.240    -8356584.352 6  -6511610.148 4
  23038048.199    -9838970.309 7  -7666687.913 7
  21818222.661   -16561601.819 8 -12905125.381 9
  23950492.024     1678810.296 7   1308193.146 5
 91  5  9  0  4  0.0050000  0  4 12  6 13  2
  24747383.544    -8437009.816 6  -6574279.218 3
  23053388.877    -9758345.660 7  -7603863.599 7
  21822579.841   -16538711.932 8 -12887289.097 9
  23963566.565     1747521.477 7   1361734.240 5
 91  5  9  0  4 30.0050000  0  4 12  6 13  2
  24732106.420    -8517289.678 6  -6636834.835 2
  23068823.682    -9677238.789 7  -7540663.526 7
  21827033.556   -16515313.644 8 -12869056.648 9
  23976678.589     1816430.192 6   1415429.259 6
 91  5  9  0  5  0.0050000  0  4 12  6 13  2
  24716856.273    -8597421.427 6  -6699275.046 4
  23084347.239    -9595650.968 7  -7477088.688 6
  21831582.915   -16491408.978 8 -12850429.612 9
  23989823.297     1885537.144 6   1469278.769 6
 91  5  9  0  5 30.0050000  0  4 12  6 13  2
  24701627.416    -8677401.583 6  -6761597.126 3
  23099967.033    -9513582.515 7  -7413139.317 6
  21836225.196   -16466998.434 8 -12831408.393 9
  24003017.756     1954842.926 6   1523283.178 5
 91  5  9  0  6  0.0050000  0  4 12  6 13  2
  24686442.324    -8757227.467 6  -6823798.990 1
  23115677.656    -9431034.367 7  -7348816.179 7
  21840968.811   -16442084.242 8 -12811994.717 9
  24016241.600     2024348.139 6   1577443.004 5
 91  5  9  0  6 30.0050000  0  4 12  6 13  2
  24671281.522    -8836898.434 6  -6885880.148 4
  23131474.012    -9348009.364 7  -7284121.468 6
  21845803.568   -16416669.878 8 -12792191.305 9
  24029506.820     2094051.333 6   1631757.112 4
 91  5  9  0  7  0.0050000  0  4 12  6 13  2
  24656154.905    -8916408.135 6  -6947835.622 3
  23147364.808    -9264504.891 7  -7219053.143 6
  21850735.750   -16390752.955 8 -12771996.285 9
  24042811.913     2163956.329 6   1686228.447 5
 91  5  9  0  7 30.0050000  0  4 12  6 13  2
  24641056.750    -8995746.518 6  -7009657.624 3
  23163348.841    -9180514.594 7  -7153606.254 6
  21855765.077   -16364327.273 8 -12751404.835 9
  24056153.267     2234070.687 6   1740862.932 4
 91  5  9  0  8  0.0050000  0  4 12  6 13  2
  24625985.887    -9074934.320 7  -7071362.271 4
  23179418.328    -9096063.066 7  -7087799.959 6
  21860884.326   -16337418.283 8 -12730436.774 9
  24069529.418     2304371.010 6   1795642.308 4
 91  5  9  0  8 30.0050000  0  4 12  6 13  2
  24610951.600    -9153952.822 6  -7132935.007 3
  23195578.643    -9011135.189 7  -7021622.488 6
  21866099.812   -16310011.711 8 -12709080.994 9
  24082946.925     2374873.752 6   1850579.412 3
 91  5  9  0  9  0.0050000  0  4 12  6 13  2
  24595942.179    -9232801.118 6  -7194375.104 5
  23211831.881    -8925733.922 7  -6955076.143 6
  21871410.646   -16282110.762 8 -12687339.989 9
  24096403.713     2445578.131 6   1905673.633 4
 91  5  9  0  9 30.0050000  0  4 12  6 13  2
  24580973.242    -9311475.840 6  -7255679.942 3
  23228169.979    -8839859.595 6  -6888161.167 6
  21876812.605   -16253716.426 9 -12665214.530 9
  24109895.261     2516484.380 6   1960925.137 3
 91  5  9  0 10  0.0050000  0  4 12  6 13  2
  24566037.880    -9389970.826 6  -7316844.732 2
  23244604.890    -8753510.076 7  -6820875.911 6
  21882311.692   -16224826.927 9 -12642703.213 9
  24123427.294     2587596.144 6   2016336.801 5
 91  5  9  0 10 30.0050000  0  4 12  6 13  2
  24551132.812    -9468282.030 7  -7377866.334 4
  23261127.961    -8666685.285 7  -6753220.327 6
  21887901.014   -16195443.512 9 -12619807.032 9
  24136997.997     2658915.228 6   2071909.990 3
 91  5  9  0 11  0.0050000  0  4 12  6 13  2
  24536264.005    -9546407.146 6  -7438742.943 5
  23277741.248    -8579386.711 7  -6685195.570 6
  21893588.093   -16165567.832 9 -12596527.277 9
  24150607.090     2730441.568 6   2127644.699 5
 91  5  9  0 11 30.0050000  0  4 12  6 13  2
  24521439.556    -9624347.033 7  -7499475.199 3
  23294440.287    -8491619.507 7  -6616805.647 6
  21899365.389   -16135205.732 9 -12572868.486 9
  24164259.635     2802171.548 6   2183538.068 4
 91  5  9  0 12  0.0050000  0  4 12  6 13  2
  24506644.808    -9702097.586 7  -7560059.932 4
  23311233.469    -8403383.313 7  -6548050.269 6
  21905235.014   -16104357.172 9 -12548830.633 9
  24177949.662     2874106.542 6   2239591.201 5
 91  5  9  0 12 30.0050000  0  4 12  6 13  2
  24491880.929    -9779658.156 6  -7620496.630 4
  23328112.681    -8314681.072 7  -6478931.734 6
  21911198.486   -16073025.859 9 -12524416.611 9
  24191677.748     2946245.562 6   2295803.317 5
 91  5  9  0 13  0.0050000  0  4 12  6 13  2
  24477162.316    -9857023.926 7  -7680781.521 5
  23345079.737    -8225512.692 7  -6409449.985 5
  21917250.710   -16041211.903 9 -12499626.504 9
  24205441.817     3018590.233 6   2352175.692 5
 91  5  9  0 13 30.0050000  0  4 12  6 13  2
  24462477.277    -9934193.693 7  -7740913.713 2
  23362135.230    -8135880.725 7  -6339607.002 5
  21923396.153   -16008918.502 9 -12474462.791 9
  24219248.464     3091139.094 6   2408707.187 5
 91  5  9  0 14  0.0050000  0  4 12  6 13  2
  24447830.315   -10011167.089 7  -7800892.874 5
  23379278.255    -8045788.775 7  -6269405.599 6
  21929632.739   -15976149.857 9 -12448928.763 9
  24233097.079     3163890.660 6   2465396.616 5
 91  5  9  0 14 30.0050000  0  4 12  6 13  2
  24433218.741   -10087937.674 7  -7860714.002 4
  23396512.735    -7955234.425 7  -6198843.864 4
  21935957.448   -15942904.588 9 -12423023.345 9
  24246976.563     3236848.303 6   2522246.624 5
 91  5  9  0 15  0.0050000  0  4 12  6 13  2
  24418647.618   -10164503.578 7  -7920375.643 4
  23413832.041    -7864220.080 7  -6127923.705 5
  21942373.911   -15909184.860 9 -12396748.220 9
  24260901.924     3310011.703 6   2579256.966 6
 91  5  9  0 15 30.0050000  0  4 12  6 13  2
  24404113.680   -10240868.482 7  -7979880.658 4
  23431238.895    -7772753.299 6  -6056650.986 6
  21948880.015   -15874999.289 9 -12370110.104 9
  24274859.656     3383374.308 6   2636422.543 6
 91  5  9  0 16  0.0050000  0  4 12  6 13  2
  24389621.711   -10317022.560 7  -8039221.390 5
  23448729.685    -7680828.328 7  -5985021.239 6
  21955473.946   -15840342.574 9 -12343104.854 9
  24288859.669     3456943.630 6   2693749.184 5
 91  5  9  0 16 30.0050000  0  4 12  6 13  2
  24375171.726   -10392969.701 7  -8098400.884 4
  23466308.005    -7588453.924 7  -5913041.295 5
  21962158.113   -15805223.921 9 -12315739.674 9
  24302896.851     3530713.068 6   2751231.755 5
 91  5  9  0 17  0.0050000  0  4 12  6 13  2
  24360760.691   -10468707.888 7  -8157417.554 6
  23483971.778    -7495631.461 7  -5840712.212 5
  21968927.733   -15769645.367 9 -12288016.111 9
  24316972.702     3604682.320 6   2808870.036 5
 91  5  9  0 17 30.0050000  0  4 12  6 13  2
  24346384.748   -10544235.840 7  -8216270.411 6
  23501722.192    -7402364.452 7  -5768036.728 6
  21975786.680   -15733609.944 9 -12259936.565 9
  24331086.037     3678850.040 6   2866662.962 5
 91  5  9  0 18  0.0050000  0  4 12  6 13  2
  24332060.370   -10619550.824 7  -8274957.313 5
  23519552.947    -7308653.920 7  -5695015.639 6
  21982730.174   -15697120.161 9 -12231502.952 9
  24345236.541     3753216.641 6   2924610.870 5
 91  5  9  0 18 30.0050000  0  4 12  6 13  2
  24317769.252   -10694650.195 7  -8333476.214 6
  23537470.342    -7214501.492 7  -5621650.236 5
  21989759.698   -15660178.063 9 -12202716.895 9
  24359428.716     3827781.821 6   2982713.505 2
 91  5  9  0 19  0.0050000  0  4 12  6 13  2
  24303517.729   -10769529.627 7  -8391823.744 5
  23555471.079    -7119907.490 7  -5547940.744 5
  21996875.286   -15622784.165 9 -12173578.779 9
  24373655.669     3902547.141 6   3040972.101 5
 91  5  9  0 19 30.0050000  0  4 12  6 13  2
  24289306.970   -10844188.314 7  -8449999.247 6
  23573553.064    -7024874.819 7  -5473889.435 5
  22004077.497   -15584942.294 9 -12144091.586 8
  24387917.697     3977511.140 6   3099385.515 3
 91  5  9  0 20  0.0050000  0  4 12  6 13  2
  24275142.663   -10918615.333 7  -8507994.247 5
  23591722.597    -6929397.729 7  -5399491.823 5
  22011362.753   -15546646.679 9 -12114250.839 9
  24402225.898     4052681.819 6   3157959.961 4
 91  5  9  0 20 30.0050000  0  4 12  6 13  2
  24261020.638   -10992813.763 7  -8565811.104 6
  23609975.455    -6833483.510 7  -5324753.598 5
  22018736.151   -15507905.201 9 -12084062.655 8
  24416572.158     4128053.315 6   3216690.902 3
 91  5  9  0 21  0.0050000  0  4 12  6 13  2
  24246942.989   -11066781.817 7  -8623448.466 6
  23628311.952    -6737134.410 7  -5249676.501 6
  22026193.484   -15468720.849 9 -12053529.384 9
  24430952.604     4203624.901 6   3275577.722 3
 91  5  9  0 21 30.0050000  0  4 12  6 13  2
  24232919.000   -11140519.709 7  -8680906.473 6
  23646729.418    -6640355.279 6  -5174264.317 6
  22033731.472   -15429098.783 9 -12022655.034 9
  24445372.329     4279393.712 6   3334618.243 2
 91  5  9  0 22  0.0050000  0  4 12  6 13  2
  24218929.788   -11214021.072 7  -8738180.181 6
  23665226.597    -6543144.248 6  -5098515.595 5
  22041355.786   -15389037.302 9 -11991438.284 8
  24459826.223     4355363.458 6   3393815.342 2
 91  5  9  0 22 30.0050000  0  4 12  6 13  2
  24204984.639   -11287287.117 7  -8795270.526 6
  23683804.447    -6445507.025 6  -5022434.754 5
  22049061.959   -15348542.701 9 -11959884.038 9
  24474318.489     4431530.175 6   3453165.910 3
 91  5  9  0 23  0.0050000  0  4 12  6 13  2
  24191087.460   -11360313.730 7  -8852174.292 6
  23702465.920    -6347443.516 6  -4946021.764 6
  22056848.753   -15307615.362 9 -11927992.591 9
  24488847.627     4507895.496 6   3512671.275 4
 91  5  9  0 23 30.0050000  0  4 12  6 13  2
  24177240.939   -11433095.991 7  -8908887.659 6
  23721208.658    -6248953.523 6  -4869276.432 5
  22064718.312   -15266255.155 9 -11895763.856 9
  24503418.437     4584461.510 6   3572333.001 3
 91  5  9  0 24  0.0050000  0  4 12  6 13  2
  24163435.199   -11505633.121 7  -8965410.004 6
  23740033.220    -6150040.904 6  -4792201.790 5
  22072673.308   -15224466.885 9 -11863201.555 9
  24518026.416     4661226.768 6   3632149.948 3
 91  5  9  0 24 30.0050000  0  4 12  6 13  2
  24149685.213   -11577923.648 7  -9021740.203 6
  23758933.027    -6050708.314 7  -4714799.894 5
  22080707.441   -15182253.651 9 -11830308.122 8
  24532676.083     4738189.523 6   3692120.811 3
 91  5  9  0 25  0.0050000  0  4 12  6 13  2
  24135972.413   -11649965.760 7  -9077876.824 7
  23777914.397    -5950959.093 6  -4637073.359 5
  22088819.227   -15139618.970 9 -11797086.280 8
  24547359.010     4815349.032 6   3752245.004 2
 91  5  9  0 25 30.0050000  0  4 12  6 13  2
  24122310.271   -11721754.888 7  -9133816.312 6
  23796975.496    -5850792.644 6  -4559021.716 4
  22097013.762   -15096562.344 9 -11763535.668 9
  24562076.733     4892707.452 6   3812524.168 3
 91  5  9  0 26  0.0050000  0  4 12  6 13  2
  24108700.602   -11793287.451 7  -9189555.894 7
  23816115.453    -5750210.313 6  -4480645.987 4
  22105285.322   -15053086.681 9 -11729658.519 9
  24576836.110     4970265.223 6   3872958.716 3
 91  5  9  0 26 30.0050000  0  4 12  6 13  2
  24095133.494   -11864565.332 7  -9245097.021 7
  23835335.141    -5649218.550 6  -4401951.252 5
  22113636.647   -15009197.828 9 -11695459.410 9
  24591633.266     5048017.637 6   3933544.870 2
 91  5  9  0 27  0.0050000  0  4 12  6 13  2
  24081621.232   -11935584.410 7  -9300436.472 6
  23854630.684    -5547817.797 6  -4322937.801 5
  22122066.813   -14964896.634 8 -11660939.001 9
  24606465.498     5125966.072 5   3994283.806 4
 91  5  9  0 27 30.0050000  0  4 12  6 13  2
  24068156.068   -12006343.205 7  -9355573.115 5
  23874002.677    -5446011.163 6  -4243608.083 5
  22130576.429   -14920186.627 8 -11626100.032 9
  24621339.400     5204109.534 5   4055174.699 4
 91  5  9  0 28  0.0050000  0  4 12  6 13  2
  24054743.953   -12076834.007 7  -9410500.938 6
  23893456.197    -5343795.572 6  -4163959.695 5
  22139161.273   -14875065.511 9 -11590940.713 9
  24636244.783     5282453.217 5   4116221.623 3
 91  5  9  0 28 30.0050000  0  4 12  6 13  2
  24041377.103   -12147055.022 7  -9465218.531 6
  23912985.277    -5241174.117 6  -4083995.060 4
  22147825.585   -14829536.177 9 -11555463.304 9
  24651193.931     5360995.946 5   4177423.620 4
 91  5  9  0 29  0.0050000  0  4 12  6 13  2
  24028070.510   -12216999.617 7  -9519720.738 6
  23932590.212    -5138144.314 6  -4003712.216 4
  22156566.329   -14783596.970 9 -11519666.532 9
  24666175.466     5439741.711 5   4238783.832 3
 91  5  9  0 29 30.0050000  0  4 12  6 13  2
  24014811.590   -12286666.471 7  -9574006.525 6
  23952275.192    -5034709.851 6  -3923114.081 5
  22165387.414   -14737251.505 9 -11483553.182 9
  24681195.357     5518688.816 5   4300300.935 3
 91  5  9  0 30  0.0050000  0  4 12  6 13  2
  24001606.626   -12356052.655 7  -9628073.603 6
  23972033.009    -4930872.664 6  -3842202.115 5
  22174282.261   -14690501.968 9 -11447124.965 9
  24696259.327     5597837.540 5   4361975.152 5
 91  5  9  0 30 30.0050000  0  4 12  6 13  2
  23988455.043   -12425157.733 8  -9681921.648 5
  23991865.478    -4826637.131 6  -3760979.787 4
  22183254.745   -14643353.549 9 -11410385.932 9
  24711359.577     5677185.290 6   4423804.435 4
 91  5  9  0 31  0.0050000  0  4 12  6 13  2
  23975365.198   -12493970.013 8  -9735541.529 6
  24011778.288    -4721995.887 6  -3679441.296 4
  22192304.585   -14595799.081 9 -11373330.504 9
  24726499.106     5756741.310 6   4485795.999 5
 91  5  9  0 31 30.0050000  0  4 12  6 13  2
  23962322.138   -12562486.050 8  -9788930.578 6
  24031770.549    -4616950.603 6  -3597587.993 5
  22201429.967   -14547840.417 9 -11335960.110 9
  24741675.491     5836506.145 6   4547950.309 5
 91  5  9  0 32  0.0050000  0  4 12  6 13  2
  23949341.409   -12630705.652 8  -9842088.638 6
  24051837.165    -4511505.816 6  -3515423.368 4
  22210633.299   -14499482.611 9 -11298278.703 9
  24756898.956     5916477.010 6   4610265.164 3
 91  5  9  0 32 30.0050000  0  4 12  6 13  2
  23936421.861   -12698624.737 8  -9895012.525 6
  24071973.321    -4405662.442 6  -3432948.186 4
  22219909.782   -14450726.511 9 -11260286.933 9
  24772156.589     5996655.190 6   4672741.520 5
 91  5  9  0 33  0.0050000  0  4 12  6 13  2
  23923549.970   -12766245.103 8  -9947703.638 6
  24092192.225    -4299426.859 6  -3350167.378 4
  22229261.511   -14401579.201 9 -11221990.321 9
  24787453.206     6077036.106 6   4735375.864 4
 91  5  9  0 33 30.0050000  0  4 12  6 13  2
  23910741.632   -12833555.952 8 -10000153.581 6
  24112486.078    -4192793.007 6  -3267076.220 5
  22238688.485   -14352034.893 9 -11183384.359 9
  24802786.991     6157627.803 6   4798174.468 5
 91  5  9  0 34  0.0050000  0  4 12  6 13  2
  23897991.160   -12900562.563 8 -10052366.451 7
  24132855.472    -4085771.052 6  -3183682.626 5
  22248192.502   -14302103.755 9 -11144476.969 8
  24818159.150     6238422.292 6   4861131.075 3
 91  5  9  0 34 30.0050000  0  4 12  6 13  2
  23885300.942   -12967256.628 8 -10104335.782 6
  24153293.220    -3978357.655 6  -3099984.059 5
  22257767.262   -14251782.729 9 -11105265.783 9
  24833575.073     6319424.822 6   4924249.778 4
 91  5  9  0 35  0.0050000  0  4 12  6 13  2
  23872667.997   -13033638.780 8 -10156062.065 6
  24173806.230    -3870558.210 6  -3015984.652 5
  22267415.784   -14201077.087 9 -11065754.884 9
  24849031.167     6400631.941 6   4987527.952 4
 91  5  9  0 35 30.0060000  0  4 12  6 13  2
  23860096.793   -13099706.292 8 -10207543.178 7
  24194395.361    -3762368.933 6  -2931681.462 5
  22277139.258   -14149985.688 9 -11025943.412 9
  24864524.155     6482048.786 6   5050969.505 4
 91  5  9  0 36  0.0060000  0  4 12  6 13  2
  23847586.767   -13165453.387 8 -10258774.605 6
  24215051.969    -3653800.841 6  -2847083.118 4
  22286934.379   -14098516.025 9 -10985837.182 9
  24880052.493     6563668.328 6   5114569.009 3
 91  5  9  0 36 30.0060000  0  4 12  6 13  2
  23835137.276   -13230869.422 8 -10309748.072 6
  24235787.417    -3544842.280 6  -2762180.502 5
  22296802.337   -14046658.238 9 -10945428.523 9
  24895629.115     6645502.845 6   5178336.039 5
 91  5  9  0 37  0.0060000  0  4 12  6 13  2
  23822753.153   -13295952.218 8 -10360461.866 7
  24256594.202    -3435496.045 6  -2676975.801 3
  22306745.262   -13994415.938 9 -10904720.237 8
  24911240.499     6727551.629 5   5242269.998 2
 91  5  9  0 37 30.0060000  0  4 12  6 13  2
  23810431.676   -13360702.123 8 -10410916.274 7
  24277475.359    -3325767.647 6  -2591473.305 4
  22316759.227   -13941794.466 9 -10863716.502 8
  24926894.164     6809811.820 5   5306368.709 2
 91  5  9  0 38  0.0060000  0  4 12  6 13  2
  23798173.474   -13425111.057 8 -10461104.988 7
  24298428.150    -3215653.757 6  -2505670.448 3
  22326844.545   -13888790.169 9 -10822414.449 9
  24942587.704     6892288.531 5   5370636.106 2
 91  5  9  0 38 30.0060000  0  4 12  6 13  2
  23785984.201   -13489179.094 8 -10511028.065 7
  24319458.594    -3105159.336 6  -2419571.071 3
  22337001.217   -13835408.657 9 -10780818.478 9
  24958319.616     6974978.941 5   5435070.047 5
 91  5  9  0 39  0.0060000  0  4 12  6 13  2
  23773854.310   -13552900.293 8 -10560680.882 7
  24340556.483    -2994283.484 6  -2333174.455 3
  22347233.432   -13781649.358 9 -10738928.114 8
  24974097.387     7057885.959 5   5499672.780 3
 91  5  9  0 39 30.0060000  0  4 12  6 13  2
  23761796.052   -13616273.433 8 -10610062.485 7
  24361730.525    -2883029.907 6  -2246483.542 4
  22357532.498   -13727516.175 9 -10696746.420 8
  24989918.034     7141007.938 6   5564443.015 4
 91  5  9  0 40  0.0060000  0  4 12  6 13  2
  23749804.647   -13679291.101 8 -10659167.110 8
  24382970.214    -2771396.493 6  -2159496.660 4
  22367904.715   -13673006.792 9 -10654271.591 9
  25005774.070     7224349.282 6   5629384.185 2
 91  5  9  0 40 30.0060000  0  4 12  6 13  2
  23737881.908   -13741948.948 8 -10707991.342 7
  24404287.261    -2659383.444 6  -2072213.942 3
  22378350.695   -13618122.460 9 -10611504.585 7
  25021681.950     7307912.080 5   5694497.873 4
 91  5  9  0 41  0.0060000  0  4 12  6 13  2
  23726025.706   -13804246.351 7 -10756534.718 7
  24425672.660    -2546995.247 6  -1984638.886 3
  22388865.010   -13562867.253 9 -10568448.582 8
  25037625.516     7391693.518 6   5759781.998 1
 91  5  9  0 41 30.0060000  0  4 12  6 13  2
  23714239.969   -13866179.889 7 -10804794.554 8
  24447134.508    -2434233.271 6  -1896772.594 4
  22399449.177   -13507242.338 9 -10525104.496 8
  25053610.753     7475694.183 6   5825236.889 3
 91  5  9  0 42  0.0060000  0  4 12  6 13  2
  23702521.380   -13927746.951 8 -10852768.829 8
  24468662.301    -2321100.344 6  -1808617.255 4
  22410103.809   -13451250.688 9 -10481474.656 7
  25069636.160     7559914.201 6   5890862.729 4
 91  5  9  0 42 30.0060000  0  4 12  6 13  2
  23690876.553   -13988942.685 8 -10900453.760 8
  24490255.444    -2207596.504 6  -1720172.904 4
  22420828.888   -13394892.929 9 -10437559.521 8
  25085704.129     7644354.721 6   5956660.403 4
 91  5  9  0 43  0.0060000  0  4 12  6 13  2
  23679305.453   -14049762.931 8 -10947846.097 7
  24511927.149    -2093722.379 6  -1631440.014 4
  22431623.505   -13338169.863 9 -10393359.736 8
  25101816.177     7729017.889 6   6022631.548 3
 91  5  9  0 43 30.0060000  0  4 12  6 13  2
  23667802.130   -14110205.183 8 -10994943.899 7
  24533666.892    -1979480.743 6  -1542420.735 4
  22442485.899   -13281084.041 9 -10348877.284 8
  25117965.987     7813902.988 6   6088775.638 2
 91  5  9  0 44  0.0060000  0  4 12  6 13  2
  23656371.941   -14170269.294 8 -11041747.039 7
  24555476.802    -1864876.514 6  -1453118.952 4
  22453415.721   -13223640.528 9 -10304116.120 8
  25134163.785     7899007.182 6   6155090.432 3
 91  5  9  0 44 30.0060000  0  4 12  6 13  2
  23645016.700   -14229953.290 8 -11088253.996 7
  24577355.048    -1749912.880 6  -1363537.116 5
  22464416.006   -13165842.435 9 -10259078.657 7
  25150396.047     7984329.443 6   6221575.174 3
 91  5  9  0 45  0.0060000  0  4 12  6 13  2
  23633731.609   -14289250.259 8 -11134459.366 8
  24599297.754    -1634588.013 6  -1273673.791 4
  22475483.144   -13107687.877 9 -10213763.431 8
  25166678.374     8069874.009 6   6288233.135 4
 91  5  9  0 45 30.0060000  0  4 12  6 13  2
  23622523.561   -14348156.632 8 -11180360.376 8
  24621318.707    -1518903.383 6  -1183530.117 5
  22486615.039   -13049178.816 9 -10168171.954 8
  25182996.980     8155641.067 6   6355064.468 3
 91  5  9  0 46  0.0060000  0  4 12  6 13  2
  23611386.274   -14406672.120 8 -11225956.797 8
  24643393.338    -1402863.978 6  -1093109.990 5
  22497817.678   -12990320.632 9 -10122308.455 8
  25199363.836     8241628.380 6   6422067.398 3
 91  5  9  0 46 30.0060000  0  4 12  6 13  2
  23600328.437   -14464789.657 8 -11271243.139 7
  24665544.400    -1286467.692 6  -1002411.771 4
  22509082.980   -12931110.844 9 -10076170.957 7
  25215762.783     8327840.158 6   6489245.271 3
 91  5  9  0 47  0.0060000  0  4 12  6 13  2
  23589343.438   -14522506.949 8 -11316217.588 8
  24687760.220    -1169717.307 6   -911437.641 5
  22520417.245   -12871551.624 9 -10029761.190 8
  25232213.609     8414275.493 6   6556597.310 3
 91  5  9  0 47 30.0060000  0  4 12  6 13  2
  23578438.186   -14579820.244 8 -11360877.245 7
  24710045.596    -1052614.062 6   -820188.569 4
  22531816.844   -12811645.089 9  -9983080.775 7
  25248705.478     8500935.567 5   6624124.487 4
 91  5  9  0 48  0.0060000  0  4 12  6 13  2
  23567608.476   -14636727.423 8 -11405220.437 7
  24732398.121     -935160.975 6   -728666.901 5
  22543282.702   -12751393.913 8  -9936131.840 7
  25265239.036     8587819.382 6   6691826.019 4
 91  5  9  0 48 30.0060000  0  4 12  6 13  2
  23556857.624   -14693227.182 8 -11449246.167 7
  24754816.293     -817362.142 6   -636875.810 4
  22554813.631   -12690802.389 8  -9888917.676 7
  25281814.858     8674924.722 5   6759700.160 2
 91  5  9  0 49  0.0060000  0  4 12  6 13  2
  23546185.019   -14749314.456 8 -11492950.474 7
  24777297.740     -699217.669 6   -544815.386 4
  22566408.393   -12629870.559 9  -9841438.337 7
  25298434.463     8762254.246 5   6827748.975 2
 91  5  9  0 49 30.0060000  0  4 12  6 13  2
  23535589.159   -14804983.391 8 -11536328.818 7
  24799841.520     -580726.597 6   -452484.898 3
  22578068.524   -12568597.261 9  -9793692.921 7
  25315091.830     8849811.060 5   6895974.891 2
 91  5  9  0 50  0.0060000  0  4 12  6 13  2
  23525077.532   -14860233.420 8 -11579380.731 7
  24822456.374     -461893.658 6   -359888.028 3
  22589792.819   -12506987.354 8  -9745685.227 7
  25331799.855     8937592.604 5   6964375.920 3
 91  5  9  0 50 30.0060000  0  4 12  6 13  2
  23514642.947   -14915061.662 8 -11622103.984 7
  24845134.764     -342721.123 6   -267026.535 4
  22601579.744   -12445043.314 8  -9697417.157 6
  25348546.271     9025598.511 5   7032951.817 4
 91  5  9  0 51  0.0060000  0  4 12  6 13  2
  23504291.426   -14969462.165 8 -11664493.930 7
  24867876.429     -223208.110 5   -173899.718 3
  22613430.850   -12382763.623 8  -9648887.542 7
  25365340.046     9113832.139 5   7101705.116 3
 91  5  9  0 51 30.0060000  0  4 12  6 13  2
  23494021.432   -15023430.132 8 -11706546.840 8
  24890686.132     -103354.653 5    -80507.632 3
  22625345.195   -12320148.947 8  -9600096.896 7
  25382173.085     9202295.669 5   7170637.578 3
 91  5  9  0 52  0.0060000  0  4 12  6 13  2
  23483835.687   -15076962.172 8 -11748260.055 7
  24913555.811       16837.065 5     13148.051 3
  22637324.613   -12257201.218 8  -9551046.736 7
  25399051.407     9290989.074 5   7239749.168 4
 91  5  9  0 52 30.0060000  0  4 12  6 13  2
  23473730.877   -15130056.039 8 -11789631.853 7
  24936488.730      137364.182 5    107065.083 4
  22649367.863   -12193923.055 8  -9501739.095 6
  25415966.897     9379911.855 5   7309039.496 4
 91  5  9  0 53  0.0060000  0  4 12  6 13  2
  23463711.817   -15182705.311 8 -11830657.200 6
  24959490.909      258228.015 5    201244.460 2
  22661470.496   -12130313.198 8  -9452172.977 6
  25432931.249     9469067.329 5   7378511.138 4
 91  5  9  0 53 30.0060000  0  4 12  6 13  2
  23453775.488   -15234908.832 8 -11871335.225 7
  24982555.438      379424.406 6    295682.968 3
  22673638.167   -12066375.836 8  -9402351.662 7
  25449948.073     9558453.576 5   7448162.600 3
 91  5  9  0 54  0.0060000  0  4 12  6 13  2
  23443931.210   -15286655.920 8 -11911657.583 7
  25005682.334      500958.880 6    390384.945 3
  22685868.501   -12002104.398 8  -9352270.037 6
  25467001.769     9648078.551 5   7518000.108 3
 91  5  9  0 54 30.0060000  0  4 12  6 13  2
  23434170.256   -15337949.890 8 -11951626.866 6
  25028872.766      622823.025 6    485343.785 3
  22698161.184   -11937508.179 8  -9301935.322 6
  25484098.027     9737935.858 5   7588018.639 4
 91  5  9  0 55  0.0060000  0  4 12  6 13  2
  23424495.663   -15388784.123 8 -11991237.906 6
  25052125.879      745018.551 6    580560.870 4
  22710515.345   -11872585.464 8  -9251346.204 6
  25501245.553     9828029.592 5   7658221.385 2
 91  5  9  0 55 30.0060000  0  4 12  6 13  2
  23414907.990   -15439158.258 8 -12030490.441 7
  25075439.230      867540.715 6    676032.455 4
  22722931.245   -11807340.473 8  -9200505.963 6
  25518436.251     9918357.036 5   7728606.239 3
 91  5  9  0 56  0.0060000  0  4 12  6 13  2
  23405411.477   -15489070.354 8 -12069382.947 7
  25098820.044      990386.073 6    771755.875 4
  22735405.603   -11741776.556 8  -9149417.210 6
  25535668.324    10008917.171 5   7799172.413 3
 91  5  9  0 56 30.0060000  0  4 12  6 13  2
  23396003.681   -15538516.298 8 -12107912.207 7
  25122258.723     1113553.595 6    867730.335 3
  22747945.923   -11675894.251 8  -9098080.346 6
  25552945.366    10099711.308 5   7869920.939 3
 91  5  9  0 57  0.0060000  0  4 12  6 13  2
  23386684.043   -15587490.248 8 -12146073.687 7
  25145757.046     1237043.990 6    963956.867 4
  22760542.310   -11609693.312 8  -9046495.212 6
  25570269.174    10190742.128 5   7940853.872 3
 91  5  9  0 57 30.0060000  0  4 12  6 13  2
  23377453.733   -15635989.447 8 -12183865.226 7
  25169319.534     1360854.595 6   1060432.929 4
  22773201.640   -11543176.044 8  -8994663.589 6
  25587634.357    10282009.186 5   8011970.931 2
 91  5  9  0 58  0.0060000  0  4 12  6 13  2
  23368316.659   -15684011.161 8 -12221284.704 7
  25192938.387     1484983.250 6   1157156.766 4
  22785917.946   -11476344.257 8  -8942586.878 6
  25605044.788    10373512.850 5   8083272.318 3
 91  5  9  0 58 30.0060000  0  4 12  6 13  2
  23359270.711   -15731549.383 8 -12258327.425 6
  25216619.606     1609430.965 5   1254129.255 4
  22798695.100   -11409196.935 8  -8890264.299 6
  25622506.505    10465256.322 5   8154760.608 2
 91  5  9  0 59  0.0060000  0  4 12  6 13  2
  23350316.812   -15778601.627 8 -12294991.482 7
  25240358.655     1734194.806 5   1351347.584 3
  22811535.808   -11341736.242 8  -8837697.535 5
  25640011.691    10557239.293 5   8226435.463 3
 91  5  9  0 59 30.0060000  0  4 12  6 13  2
  23341455.853   -15825163.159 8 -12331273.157 7
  25264160.386     1859274.133 5   1448812.231 2
  22824430.471   -11273963.358 8  -8784887.516 6
  25657561.532    10649462.407 5   8298297.449 2
 91  5  9  1  0  0.0060000  0  4 12  6 13  2
  23332688.113   -15871232.479 8 -12367171.290 7
  25288026.857     1984665.465 5   1546519.980 4
  22837384.204   -11205881.253 8  -8731836.535 6
  25675158.157    10741924.592 5   8370345.714 2
 91  5  9  1  0 30.0060000  0  4 12  6 13  2
  23324016.612   -15916813.264 8 -12402688.755 8
  25311943.410     2110359.990 5   1644463.989 3
  22850397.600   -11137498.448 8  -8678551.250 6
  25692796.139    10834619.605 5   8442575.399 1
 91  5  9  1  1  0.0060000  0  4 12  6 13  2
  23315435.956   -15961894.547 8 -12437816.979 7
  25335925.610     2236363.624 5   1742648.821 4
  22863468.249   -11068808.373 8  -8625026.519 6
  25710483.296    10927555.832 5   8514993.052 2
 91  5  9  1  1 30.0060000  0  4 12  6 13  2
  23306955.429   -16006463.600 8 -12472546.069 8
  25359959.359     2362683.775 5   1841080.345 2
  22876599.468   -10999803.743 8  -8571256.698 6
  25728215.719    11020742.862 5   8587606.153 2
 91  5  9  1  2  0.0060000  0  4 12  6 13  2
  23298572.938   -16050507.407 8 -12506865.885 7
  25384059.384     2489328.292 5   1939764.593 2
  22889793.333   -10930476.779 8  -8517235.698 6
  25745997.316    11114190.743 5   8660422.519 2
 91  5  9  1  2 30.0060000  0  4 12  6 13  2
  23290295.671   -16094010.081 8 -12540764.040 8
  25408224.149     2616308.112 6   2038710.116 2
  22903050.752   -10860815.792 8  -8462954.432 6
  25763831.369    11207912.653 5   8733452.444 3
 91  5  9  1  3  0.0060000  0  4 12  6 13  2
  23282120.628   -16136964.308 8 -12574234.827 7
  25432449.186     2743625.465 6   2137918.604 1
  22916367.834   -10790818.501 8  -8408411.106 6
  25781715.190    11301912.702 5   8806699.035 3
 91  5  9  1  3 30.0060000  0  4 12  6 13  2
  23274054.108   -16179365.285 8 -12607274.502 8
  25456744.671     2871279.961 6   2237389.837 2
  22929754.454   -10720485.192 8  -8353605.961 6
  25799665.566    11396193.221 5   8880164.160 2
 91  5  9  1  4  0.0060000  0  4 12  6 13  2
  23266095.221   -16221185.604 8 -12639861.725 8
  25481102.802     2999293.551 5   2337140.907 3
  22943205.256   -10649793.581 8  -8298521.616 6
  25817660.003    11490778.321 5   8953866.687 1
 91  5  9  1  4 30.0060000  0  4 12  6 13  2
  23258252.639   -16262404.391 8 -12671980.215 8
  25505534.694     3127682.235 5   2437184.221 1
  22956730.082   -10578727.377 7  -8243145.354 5
  25835718.309    11585686.315 5   9027820.837 2
 91  5  9  1  5  0.0060000  0  4 12  6 13  2
  23250524.897   -16303011.990 8 -12703622.460 8
  25530037.330     3256450.472 5   2537523.312 2
  22970322.668   -10507281.552 7  -8187473.308 5
  25853839.854    11680923.590 5   9102031.472 3
 91  5  9  1  5 30.0060000  0  4 12  6 13  2
  23242913.461   -16343006.271 8 -12734786.795 8
  25554616.416     3385595.298 5   2638155.852 2
  22983992.907   -10435458.677 7  -8131507.460 6
  25872023.766    11776489.209 5   9176497.978 2
 91  5  9  1  6  0.0060000  0  4 12  6 13  2
  23235418.959   -16382379.881 8 -12765467.497 8
  25579265.040     3515118.955 5   2739083.568 2
  22997734.499   -10363256.079 7  -8075245.727 6
  25890279.329    11872387.779 5   9251223.986 2
 91  5  9  1  6 30.0060000  0  4 12  6 13  2
  23228050.064   -16421122.134 8 -12795656.229 8
  25603990.725     3645027.043 5   2840310.824 2
  23011544.741   -10290668.047 7  -8018683.653 5
  25908588.254    11968627.062 5   9326215.467 2
 91  5  9  1  7  0.0060000  0  4 12  6 13  2
  23220797.771   -16459231.052 8 -12825351.463 8
  25628776.369     3775316.366 5   2941835.190 3
  23025430.525   -10217697.387 7  -7961823.429 6
  25926973.629    12065206.608 5   9401472.041 2
 91  5  9  1  7 30.0060000  0  4 12  6 13  2
  23213666.321   -16496696.340 8 -12854545.159 9
  25653646.855     3905992.101 5   3043660.580 3
  23039390.054   -10144338.597 7  -7904660.763 6
  25945416.869    12162133.805 5   9476999.571 2
 91  5  9  1  8  0.0060000  0  4 12  6 13  2
  23206661.664   -16533512.070 8 -12883232.704 8
  25678588.678     4037055.400 5   3145788.015 2
  23053426.049   -10070589.464 7  -7847193.954 5
  25963927.851    12259411.493 5   9552800.167 1
 91  5  9  1  8 30.0060000  0  4 12  6 13  2
  23199778.425   -16569672.858 8 -12911409.917 9
  25703603.967     4168506.498 5   3248217.597 2
  23067534.882    -9996449.881 7  -7789422.855 5
  25982511.390    12357042.674 5   9628876.221 2
 91  5  9  1  9  0.0060000  0  4 12  6 13  2
  23193022.608   -16605183.052 8 -12939080.162 8
  25728689.702     4300335.803 5   3350941.902 2
  23081713.864    -9921928.962 7  -7731354.632 5
  26001152.481    12455019.793 5   9705221.855 2
 91  5  9  1  9 30.0060000  0  4 12  6 13  2
  23186389.990   -16640044.262 8 -12966244.719 8
  25753844.086     4432536.870 5   3453955.844 2
  23095964.201    -9847033.210 7  -7672994.323 5
  26019857.735    12553338.516 5   9781833.675 3
 91  5  9  1 10  0.0060000  0  4 12  6 13  2
  23179879.994   -16674250.826 8 -12992899.165 9
  25779076.717     4565110.487 5   3557260.136 2
  23110290.079    -9771761.007 7  -7614340.696 5
  26038633.437    12652001.964 4   9858714.087 3
 91  5  9  1 10 30.0060000  0  4 12  6 13  2
  23173498.921   -16707794.293 8 -13019036.902 7
  25804373.198     4698059.983 5   3660857.287 3
  23124684.921    -9696108.632 7  -7555390.812 5
  26057466.689    12751015.400 4   9935867.223 2
